     2              OBSERVATION DATA    GPS                 RINEX VERSION / TYPE
TRRINEXO V2.4.6 UX                                          PGM / RUN BY / DATE
                                                            COMMENT
Original Marker Name: octi                                  COMMENT
Campaign Name: STRC 1995                                    COMMENT
4-Character Station Name: OCTI                              COMMENT
6-Character Antenna Code: TRMSST                            COMMENT
Vertical Measurement Point: TGP                             COMMENT
Vertical Offset to Rinex Ref. Point: 0.0629                 COMMENT
Radial Measurement Point: NGP                               COMMENT
Radial Offset to Rinex Ref. Point: 0.2334                   COMMENT
Antenna Height from Field Measurement: 1.4840 m             COMMENT
Original XYZ: -2354463.5773 -4826954.5128 3429201.5347      COMMENT
New XYZ position is based on association with SCEC monument COMMENT
E1C8V0N9+0011. Position of that monument is believed to be  COMMENT
valid to within 1 m horizontally; vertical accuracy         COMMENT
should be no worse than 3-times this value.                 COMMENT
                                                            COMMENT
Revised Rinex header created by UCSD GPS archive for        COMMENT
GSAC on 10-Apr-1999 (1999:100) 04:46:12 GMT                 COMMENT
For assistance contact dagnew@ucsd.edu or hjohnson@ucsd.edu COMMENT
                                                            COMMENT
OCOTILLO 1935                                               MARKER NAME
OCOTILLO                                                    MARKER NUMBER
W. Gallaher UNAVCO                                          OBSERVER / AGENCY
1057 TRIMBLE 4000 SST 4.81                                  REC # / TYPE / VERS
277 TR 4000SST L1/L2 GEO                                    ANT # / TYPE
 -2354461.0000 -4826980.0000  3429223.0000                  APPROX POSITION XYZ
        1.4026        0.0000        0.0000                  ANTENNA: DELTA H/E/N
     1     2     0                                          WAVELENGTH FACT L1/2
     3    C1    L1    L2                                    # / TYPES OF OBSERV
    30                                                      INTERVAL
  1995     2    14    16     0   30.000000                  TIME OF FIRST OBS
  1995     2    14    23    59   60.000000                  TIME OF LAST OBS
     0                                                      # OF SATELLITES
                                                            END OF HEADER
 95  2 14 16  0 30.0000000  0  6 25 15  1 14 22 29
  21123808.867          -0.72317
  21391520.438          -0.45417
  24218498.992          -0.12215
  21969702.602          -0.19417
  23338826.352          -0.84415
  23544834.297          -0.23615
 95  2 14 16  1  0.0000000  0  6 25 15  1 14 22 29
  21125927.570       11126.008 7        -0.23219
  21393730.750       11636.503 7        -0.03617
  24225084.320       34584.212 5
  21948179.469     -113099.659 7        -0.43117
  23315120.133     -124581.279 5
  23526447.695      -96629.058 5
 95  2 14 16  1 30.0000000  0  6 25 15  1 14 22 29
  21128102.578       22566.937 7      8914.748 9
  21396035.875       23720.557 7      9416.065 7
  24231650.117       69076.660 5        -0.02214
  21926679.563     -226088.395 7    -88043.612 7
  23291422.352     -249126.887 5        -0.09215
  23508062.836     -193252.952 5        -0.32615
 95  2 14 16  2  0.0000000  0  6 25 15  1 14 22 29
  21130338.125       34303.565 7     18060.140 9
  21398413.039       36246.884 7     19176.797 7
  24238191.633      103471.188 5     26800.811 5
  21905202.484     -338951.999 7   -175989.292 7
  23267730.172     -373631.057 5    -97016.308 4
  23489679.422     -289850.311 5    -75271.002 5
 95  2 14 16  2 30.0000000  0  6 25 15  1 14 22 29
  21132623.453       46323.836 7     27426.555 9
  21400883.078       49203.571 7     29272.868 7
  24244714.734      137748.866 5     53510.601 5
  21883747.336     -451696.349 7   -263842.039 7
  23244041.148     -498104.827 5   -194008.829 4
  23471302.289     -386423.185 5   -150522.606 5
 95  2 14 16  3  0.0000000  0  6 25 15  1 14 22 29
  21134966.133       58637.407 7     37021.517 9
  21403435.664       62605.846 7     39716.153 7
  24251215.164      171916.052 5     80134.305 5
  21862317.789     -564310.236 7   -351593.135 7
  23220369.750     -622522.765 5   -290957.851 5
  23452931.352     -482958.377 5   -225744.804 5
 95  2 14 16  3 30.0000000  0  6 25 15  1 14 22 29
  21137369.016       71243.233 7     46844.210 9
  21406066.297       76448.837 6     50502.860 7
  24257691.828      205961.474 5    106663.116 4
  21840913.242     -676793.256 7   -439242.250 7
  23196708.508     -746855.749 5   -387840.667 5
  23434565.797     -579481.618 5   -300957.720 5
 95  2 14 16  4  0.0000000  0  6 25 15  1 14 22 29
  21139824.016       84152.697 7     56903.496 9
  21408780.844       90723.926 7     61626.253 7
  24264149.719      239873.753 5    133088.170 4
  21819533.703     -789146.583 7   -526790.305 7
  23173063.086     -871107.745 5   -484660.350 5
  23416195.430     -676007.420 5   -376172.644 5
 95  2 14 16  4 30.0000000  0  6 25 15  1 14 22 29
  21142345.203       97395.306 7     67222.380 9
  21411580.961      105446.122 6     73098.049 7
  24270581.383      273682.758 5    159432.745 4
  21798178.039     -901366.571 7   -614234.461 7
  23149434.891     -995266.069 5   -581407.064 5
  23397824.820     -772536.065 5   -451389.753 5
 95  2 14 16  5  0.0000000  0  6 25 15  1 14 22 29
  21144928.844      110972.797 7     77802.212 9
  21414468.469      120613.528 6     84916.757 7
  24277002.398      307408.193 5    185712.239 4
  21776847.984    -1013459.734 7   -701579.799 7
  23125828.359    -1119326.941 5   -678077.820 5
  23379458.930     -869061.266 5   -526604.193 5
 95  2 14 16  5 30.0000000  0  6 25 15  1 14 22 29
  21147575.508      124885.922 7     88643.576 9
  21417439.094      136213.506 6     97072.539 7
  24283403.680      341077.201 5    211947.724 2
  21755539.750    -1125433.667 7   -788832.217 7
  23102236.586    -1243300.446 5   -774680.547 5
  23361090.836     -965576.800 6   -601811.094 5
 95  2 14 16  6  0.0000000  0  6 25 15  1 14 22 29
  21150287.859      139145.250 7     99754.709 9
  21420491.398      152246.688 6    109565.874 7
  24289811.742      374711.160 5    238155.896 3
  21734252.820    -1237298.026 7   -875999.262 7
  23078656.875    -1367202.850 5   -871227.850 5
  23342730.852    -1062071.965 6   -677002.122 5
 95  2 14 16  6 30.0000000  0  6 25 15  1 14 22 29
  21153064.992      153737.313 7    111125.119 9
  21423625.562      168708.149 6    122392.946 7
  24296202.141      408313.531 4    264339.465 4
  21712985.945    -1349061.008 7   -963087.299 7
  23055094.617    -1491029.463 5   -967716.057 5
  23324368.719    -1158555.092 6   -752183.771 5
 95  2 14 16  7  0.0000000  0  6 25 15  1 14 22 29
  21155904.164      168658.198 7    122751.747 9
  21426838.477      185594.038 7    135550.731 7
  24302587.609      441865.626 4    290483.823 3
  21691740.477    -1460700.959 7  -1050079.478 7
  23031547.703    -1614765.462 5  -1064133.694 5
  23306010.711    -1255023.444 5   -827353.922 5
 95  2 14 16  7 30.0000000  0  6 25 15  1 14 22 29
  21158808.500      183916.129 7    134641.004 9
  21430130.992      202912.448 6    149045.540 6
  24308960.305      475355.520 5    316579.765 4
  21670522.812    -1572197.380 7  -1136959.802 7
  23008024.828    -1738393.584 6  -1160467.272 5
  23287659.555    -1351481.264 5   -902515.864 5
 95  2 14 16  8  0.0000000  0  6 25 15  1 14 22 29
  21161772.336      199494.615 7    146780.073 9
  21433511.766      220654.372 6    162870.377 7
  24315313.086      508742.913 5    342595.780 5
  21649331.148    -1683560.143 7  -1223735.991 7
  22984516.836    -1861920.208 5  -1256721.774 5
  23269300.461    -1447953.494 6   -977688.987 5
 95  2 14 16  8 30.0000000  0  6 25 15  1 14 22 29
  21164796.836      215382.279 7    159160.037 9
  21436963.016      238816.516 6    177022.645 7
  24321648.852      542018.483 5    368524.671 4
  21628168.539    -1794776.784 7  -1310398.314 8
  22961034.930    -1985327.147 5  -1352883.008 5
  23250941.969    -1544434.439 6  -1052868.933 5
 95  2 14 16  9  0.0000000  0  6 25 15  1 14 22 29
  21167880.188      231594.439 7    171792.859 9
  21440507.078      257416.634 6    191516.204 7
  24327960.852      575198.695 5    394379.279 5
  21607033.883    -1905827.259 7  -1396931.158 7
  22937577.633    -2108599.076 5  -1448939.015 5
  23232583.180    -1640893.733 5  -1128031.991 5
 95  2 14 16  9 30.0000000  0  6 25 15  1 14 22 29
  21171026.773      248124.219 7    184673.185 9
  21444122.414      276438.260 6    206338.195 7
  24334256.945      608273.806 5    420151.966 5
  21585927.555    -2016745.992 7  -1483361.346 8
  22914141.484    -2231764.864 6  -1544912.331 5
  23214232.047    -1737338.244 5  -1203183.529 5
 95  2 14 16 10  0.0000000  0  6 25 15  1 14 22 29
  21174237.812      264991.797 7    197816.720 9
  21447825.711      295888.949 6    221494.532 7
  24340530.516      641258.278 5    445854.034 5
  21564847.672    -2127523.107 7  -1569681.188 7
  22890723.539    -2354807.625 5  -1640789.778 5
  23195883.953    -1833740.935 5  -1278302.502 5
 95  2 14 16 10 30.0000000  0  6 25 15  1 14 22 29
  21177508.992      282193.760 7    211220.818 9
  21451609.820      315768.543 6    236985.065 7
  24346791.141      674163.310 5    471494.196 5
  21543798.555    -2238140.898 7  -1655876.872 7
  22867336.867    -2477711.042 5  -1736558.666 5
  23177551.805    -1930081.952 6  -1353373.414 5
 95  2 14 16 11  0.0000000  0  6 25 15  1 14 22 29
  21180844.008      299720.768 7    224878.203 9
  21455473.648      336068.045 6    252802.813 7
  24353038.141      706978.338 5    497064.206 4
  21522779.203    -2348597.610 7  -1741947.038 7
  22843972.320    -2600491.890 5  -1832232.022 5
  23159232.250    -2026374.207 6  -1428406.329 4
 95  2 14 16 11 30.0000000  0  6 25 15  1 14 22 29
  21184242.875      317572.876 7    238788.912 9
  21459413.633      356796.487 6    268954.800 7
  24359273.750      739719.424 5    522576.625 4
  21501796.398    -2458862.798 7  -1827867.961 8
  22820639.477    -2723120.048 6  -1927786.412 5
  23140915.828    -2122621.294 6  -1503404.065 5
 95  2 14 16 11 59.9990000  0  6 25 15  1 14 22 29
  21187693.573      335710.280 7    252921.921 9
  21463440.581      377949.823 6    285437.876 7
  24365479.886      772401.814 5    548043.295 4
  21480854.362    -2568911.385 7  -1913620.108 8
  22797334.925    -2845572.516 6  -2023203.898 5
  23122605.901    -2218840.905 6  -1578380.391 5
 95  2 14 16 12 29.9990000  0  6 25 15  1 14 22 29
  21191193.417      354102.136 7    267253.211 9
  21467545.276      399524.567 6    302249.316 7
  24371697.253      805034.004 5    573470.875 5
  21459952.776    -2678749.094 7  -1999207.942 8
  22774063.667    -2967875.915 6  -2118505.216 5
  23104294.144    -2315061.905 6  -1653357.776 5
 95  2 14 16 12 59.9990000  0  6 25 15  1 14 22 29
  21194741.894      372753.756 7    281786.918 9
  21471733.589      421517.011 6    319386.235 7
  24377900.597      837621.810 5    598863.852 3
  21439092.511    -2788374.343 7  -2084630.227 7
  22750814.839    -3090034.760 6  -2213693.916 5
  23085980.378    -2411299.336 6  -1728347.978 5
 95  2 14 16 13 29.9990000  0  6 25 15  1 14 22 29
  21198342.940      391673.467 7    296529.519 9
  21475995.331      443916.225 6    336840.117 7
  24384090.979      870165.820 5    624222.740 2
  21418268.808    -2897807.664 7  -2169902.948 8
  22727596.261    -3212055.790 6  -2308775.227 5
  23067666.878    -2507557.856 6  -1803354.593 5
 95  2 14 16 13 59.9990000  0  6 25 15  1 14 22 29
  21202000.597      410884.957 7    311499.488 9
  21480332.042      466719.789 6    354609.082 7
  24390271.214      902650.092 5    649535.063 4
  21397477.761    -3007070.125 7  -2255042.532 8
  22704397.761    -3333951.210 6  -2403758.652 6
  23049341.198    -2603826.895 5  -1878369.422 5
 95  2 14 16 14 29.9990000  0  6 25 15  1 14 22 29
  21205719.315      430436.348 7    326734.314 9
  21484753.292      489932.303 6    372696.701 7
  24396431.636      935058.117 5    674787.958 5
  21376715.542    -3116171.441 7  -2340056.546 8
  22681226.815    -3455714.980 6  -2498639.494 6
  23031029.550    -2700079.793 6  -1953371.660 5
 95  2 14 16 14 59.9990000  0  6 25 15  1 14 22 29
  21209509.800      450350.562 7    342251.852 9
  21489243.714      513550.447 6    391100.397 7
  24402586.347      967380.759 5    699974.313 4
  21355982.112    -3225117.594 7  -2424949.669 8
  22658087.292    -3577322.222 6  -2593398.366 6
  23012721.183    -2796310.352 6  -2028356.499 5
 95  2 14 16 15 29.9990000  0  6 25 15  1 14 22 29
  21213367.589      470626.288 7    358051.081 9
  21493815.979      537575.858 6    409821.444 7
  24408722.128      999622.622 5    725097.727 4
  21335280.058    -3333915.479 7  -2509727.253 8
  22634979.136    -3698757.805 6  -2688023.507 5
  22994408.925    -2892511.873 6  -2103318.712 5
 95  2 14 16 15 59.9990000  0  6 25 15  1 14 22 29
  21217289.464      491239.099 7    374112.985 9
  21498468.175      562007.802 6    428859.270 7
  24414849.995     1031788.325 5    750161.793 5
  21314608.511    -3442550.482 7  -2594377.906 8
  22611904.706    -3820003.097 6  -2782500.365 5
  22976105.354    -2988683.271 6  -2178257.437 5
 95  2 14 16 16 29.9990000  0  6 25 15  1 14 22 29
  21221274.042      512179.061 7    390429.805 9
  21503195.808      586856.113 6    448221.533 7
  24420968.229     1063916.651 5    775196.721 5
  21293973.706    -3550983.772 7  -2678871.393 8
  22588870.730    -3941042.695 6  -2876816.935 6
  22957814.269    -3084813.008 6  -2253163.713 5
 95  2 14 16 16 59.9990000  0  6 25 15  1 14 22 29
  21225317.683      533417.638 7    406979.308 8
  21507999.612      612112.587 6    467901.848 7
  24427062.190     1096020.366 4    800212.490 5
  21273379.737    -3659204.955 7  -2763199.590 8
  22565878.003    -4061881.079 6  -2970976.698 6
  22939527.456    -3180916.242 6  -2328049.346 5
 95  2 14 16 17 29.9990000  0  6 25 15  1 14 22 29
  21229412.089      554946.588 7    423755.074 8
  21512888.979      637780.876 6    487903.058 7
  24433178.737     1128107.171 4    825215.059 5
  21252828.847    -3767193.300 7  -2847346.360 8
  22542922.347    -4182518.671 6  -3064980.023 5
  22921249.089    -3276980.381 6  -2402904.505 5
 95  2 14 16 17 59.9990000  0  6 25 15  1 14 22 29
  21233564.479      576760.727 7    440753.068 8
  21517849.065      663853.268 6    508219.157 7
  24439276.878     1160158.411 5    850189.911 3
  21232326.229    -3874939.318 7  -2931304.315 8
  22520003.573    -4302957.315 6  -3158828.330 5
  22902972.198    -3373010.143 6  -2477732.865 5
 95  2 14 16 18 29.9990000  0  6 25 15  1 14 22 29
  21237774.292      598881.522 7    457990.018 8
  21522887.128      690346.603 6    528863.262 7
  24445370.737     1192173.029 5    875136.258 3
  21211872.644    -3982429.600 7  -3015062.985 8
  22497123.097    -4423176.483 6  -3252505.597 5
  22884711.206    -3468983.980 6  -2552517.666 5
 95  2 14 16 18 59.9990000  0  6 25 15  1 14 22 29
  21242038.776      621288.759 7    475450.164 8
  21528004.495      717238.761 6    549818.142 7
  24451447.019     1224110.823 5    900022.766 1
  21191459.659    -4089702.531 7  -3098652.286 8
  22474289.386    -4543183.314 6  -3346017.413 5
  22866454.011    -3564920.636 6  -2627273.494 5
 95  2 14 16 19 29.9990000  0  6 25 15  1 14 22 29
  21246357.081      643978.928 7    493130.783 9
  21533198.073      744528.230 6    571082.611 7
  24457505.784     1255968.676 5    924846.944 2
  21171086.698    -4196762.398 7  -3182075.569 8
  22451496.190    -4662978.972 6  -3439364.675 6
  22848203.284    -3660819.036 6  -2701999.508 5
 95  2 14 16 19 59.9990000  0  6 25 15  1 14 22 29
  21250727.253      666945.203 7    511026.550 9
  21538466.628      772212.286 6    592654.551 7
  24463558.464     1287748.634 5    949610.438 2
  21150753.909    -4303605.464 7  -3265329.917 8
  22428734.253    -4782565.489 6  -3532548.978 5
  22829964.604    -3756677.579 6  -2776694.463 5
 95  2 14 16 20 29.9990000  0  6 25 15  1 14 22 29
  21255148.526      690185.359 7    529135.733 9
  21543811.690      800295.284 6    614537.354 6
  24469583.823     1319467.783 5    974326.592 2
  21130466.808    -4410218.450 7  -3348404.978 8
  22406019.808    -4901944.703 6  -3625571.747 6
  22811733.386    -3852487.374 6  -2851351.442 6
 95  2 14 16 20 59.9990000  0  6 25 15  1 14 22 29
  21259624.862      713718.624 7    547473.306 8
  21549232.604      828770.741 6    636725.957 6
  24475619.675     1351148.562 5    999012.825 1
  21110223.722    -4516592.517 7  -3431293.869 8
  22383340.034    -5021130.134 6  -3718443.501 6
  22793505.690    -3948252.742 6  -2925973.779 5
 95  2 14 16 21 29.9990000  0  6 25 15  1 14 22 29
  21264161.589      737547.802 7    566041.455 8
  21554722.956      857626.063 6    659210.567 7
  24481645.839     1382794.470 4   1023671.851 2
  21090030.487    -4622717.373 7  -3513988.580 8
  22360692.745    -5140136.578 6  -3811175.792 6
  22775289.683    -4043977.280 6  -3000564.325 5
 95  2 14 16 21 59.9990000  0  6 25 15  1 14 22 29
  21268756.511      761690.809 7    584854.159 8
  21560282.144      886867.158 6    681995.775 6
  24487658.433     1414410.436 3   1048307.544 1
  21069883.878    -4728581.387 7  -3596480.023 8
  22338084.698    -5258940.614 6  -3903750.340 6
  22757090.589    -4139650.044 6  -3075114.519 5
 95  2 14 16 22 29.9990000  0  6 25 15  1 14 22 29
  21273413.558      786169.304 7    603928.284 9
  21565926.659      916492.189 6    705080.161 6
  24493656.097     1445994.221 3   1072918.174 1
  21049784.479    -4834198.835 7  -3678779.336 8
  22315520.417    -5377529.704 6  -3996157.416 5
  22738886.987    -4235269.528 6  -3149623.195 5
 95  2 14 16 22 59.9990000  0  6 25 15  1 14 22 29
  21278138.698      810998.888 7    623275.982 9
  21571635.659      946509.167 6    728469.946 7
  24499670.300     1477554.569 4   1097510.507 4
  21029735.261    -4939566.337 7  -3760883.885 8
  22292997.019    -5495874.136 6  -4088373.860 6
  22720709.300    -4330824.463 6  -3224081.585 5
 95  2 14 16 23 29.9990000  0  6 25 15  1 14 22 29
  21282923.448      836141.875 7    642867.894 9
  21577420.464      976912.999 6    752161.192 7
  24505668.698     1509068.405 5   1122066.660 2
  21009731.081    -5044680.000 7  -3842790.642 8
  22270530.198    -5613959.383 6  -4180388.327 6
  22702534.073    -4426329.976 6  -3298501.452 5
 95  2 14 16 23 59.9990000  0  6 25 15  1 14 22 29
  21287762.769      861572.601 7    662684.011 9
  21583281.933     1007694.641 6    776146.817 7
  24511652.050     1540521.529 5   1146575.535 2
  20989775.354    -5149555.753 7  -3924512.012 8
  22248104.894    -5731782.690 6  -4272198.687 6
  22684364.159    -4521806.283 6  -3372898.561 5
 95  2 14 16 24 29.9990000  0  6 25 15  1 14 22 29
  21292651.245      887256.060 7    682697.058 9
  21589206.073     1038832.423 6
  24517624.565     1571899.366 5
  20969859.714    -5254209.694 7  -4006060.540 8
  22225730.651    -5849370.886 6  -4363825.862 6
  22666198.933    -4617278.108 6  -3447292.198 5
 95  2 14 16 24 59.9990000  0  6 25 15  1 14 22 29
  21297583.229      913177.740 7    702895.742 9
  21595199.808     1070341.714 6    824962.590 6
  24523592.276     1603229.610 5   1195438.745 2
  20949994.315    -5358601.513 7  -4087404.813 8
  22203401.573    -5966703.080 6  -4455253.551 6
  22648035.073    -4712738.672 6  -3521677.032 5
 95  2 14 16 25 29.9990000  0  6 25 15  1 14 22 29
  21302558.120      939327.490 7    723272.141 8
  21601268.378     1102215.704 6    849799.413 6
  24529540.479     1634513.083 5   1219815.361 4
  20930180.722    -5462730.996 7  -4168544.674 8
  22181120.690    -6083783.213 6  -4546484.828 6
  22629868.058    -4808188.463 6  -3596053.479 5
 95  2 14 16 25 59.9990000  0  5 25 15 14 22 29
  21307581.120      965718.275 7    743836.356 9
  21607404.706     1134460.305 6    874925.011 6
  20910412.136    -5566599.213 7  -4249480.952 8
  22158896.198    -6200595.173 6  -4637507.141 6
  22611711.065    -4903604.982 6  -3670403.997 5
 95  2 14 16 26 29.9990000  0  5 25 15 14 22 29
  21312651.659      992362.243 7    764597.850 8
  21613607.339     1167079.060 6    900342.164 6
  20890702.909    -5670192.688 7  -4330203.135 8
  22136718.558    -6317126.302 6  -4728310.640 6
  22593561.175    -4998969.830 6  -3744714.271 5
 95  2 14 16 26 59.9990000  0  5 25 15 14 22 29
  21317773.620     1019276.163 7    785569.701 8
  21619886.417     1200072.036 6    926050.912 7
  20871040.097    -5773510.626 7  -4410710.623 8
  22114601.995    -6433359.608 6  -4818882.069 6
  22575428.917    -5094269.130 6  -3818973.460 5
 95  2 14 16 27 29.9990000  0  5 25 15 14 22 29
  21322948.745     1046477.972 7    806765.879 8
  21626233.659     1233430.725 6    952044.629 6
  20851427.417    -5876571.521 7  -4491017.821 8
  22092539.495    -6549304.272 6  -4909228.594 6
  22557308.940    -5189493.491 6  -3893174.246 5
 95  2 14 16 27 59.9990000  0  5 25 15 14 22 29
  21328181.769     1073975.657 7    828192.615 8
  21632651.972     1267149.585 6    978319.001 6
  20831866.386    -5979375.769 7  -4571125.031 8
  22070524.386    -6664972.092 6  -4999359.375 6
  22539200.925    -5284649.283 6  -3967321.599 5
 95  2 14 16 28 29.9990000  0  5 25 15 14 22 29
  21333477.167     1101799.743 7    849873.692 8
  21639138.784     1301235.952 6   1004879.749 6
  20812355.792    -6081900.309 7  -4651014.283 8
  22048570.683    -6780364.971 6  -5089275.919 6
  22521107.948    -5379727.208 6  -4041408.280 5
 95  2 14 16 28 59.9990000  0  5 25 15 14 22 29
  21338833.487     1129955.025 7    871812.828 8
  21645698.636     1335691.231 6   1031727.956 6
  20792903.104    -6184128.017 7  -4730672.233 8
  22026662.956    -6895479.545 6  -5178975.620 6
  22503028.401    -5474731.342 6  -4115437.454 5
 95  2 14 16 29 29.9990000  0  5 25 15 14 22 29
  21344252.956     1158437.089 7    894006.607 8
  21652326.081     1370524.015 6   1058870.311 6
  20773512.933    -6286021.955 7  -4810070.121 8
  22004809.175    -7010309.578 6  -5268453.588 6
  22484965.386    -5569659.259 6  -4189407.243 5
 95  2 14 16 29 59.9990000  0  5 25 15 14 22 29
  21349733.776     1187230.390 7    916442.907 8
  21659025.620     1405729.340 6   1086302.980 6
  20754188.792    -6387569.451 7  -4889198.044 8
  21983016.081    -7124835.653 6  -5357694.674 6
  22466914.995    -5664525.425 6  -4263328.904 5
 95  2 14 16 30 29.9990000  0  5 25 15 14 22 29
  21355267.425     1216306.495 7    939099.586 8
  21665790.737     1441295.288 6   1114016.633 6
  20734930.948    -6488776.799 7  -4968060.910 9
  21961283.425    -7239043.871 6  -5446688.091 6
  22448866.315    -5759350.180 6  -4337218.305 5
 95  2 14 16 30 59.9990000  0  5 25 15 14 22 29
  21360851.714     1245651.704 7    961965.951 8
  21672626.425     1477221.615 6   1142011.103 6
  20715733.628    -6589650.136 7  -5046663.508 9
  21939615.995    -7352918.001 6  -5535421.192 6
  22430831.034    -5854132.813 6  -4411074.888 6
 95  2 14 16 31 29.9990000  0  5 25 15 14 22 29
  21366485.440     1275263.165 7    985039.783 8
  21679536.308     1513515.611 6   1170292.067 6
  20696601.683    -6690189.752 7  -5125006.059 9
  21918009.198    -7466447.768 6  -5623885.942 6
  22412808.378    -5948860.176 6  -4484888.383 6
 95  2 14 16 31 59.9980000  0  5 25 15 14 22 29
  21372168.764     1305122.474 7   1008306.741 8
  21686505.920     1550161.082 6   1198846.905 6
  20677526.779    -6790434.484 7  -5203118.836 9
  21896473.600    -7579636.758 6  -5712085.140 6
  22394786.771    -6043544.208 6  -4558668.140 6
 95  2 14 16 32 29.9980000  0  5 25 15 14 22 29
  21377898.646     1335241.908 7   1031776.407 8
  21693551.240     1587163.947 6   1227680.235 6
  20658504.982    -6890389.368 7  -5281005.757 9
  21874993.568    -7692511.898 6  -5800039.791 6
  22376782.311    -6138182.059 6  -4632411.890 6
 95  2 14 16 32 59.9980000  0  5 25 15 14 22 29
  21383683.701     1365632.401 7   1055457.276 8
  21700657.725     1624526.749 6   1256794.026 6
  20639544.779    -6990035.585 7  -5358652.166 9
  21853570.498    -7805075.746 6  -5887751.863 6
  22358782.107    -6232741.686 6  -4706094.691 6
 95  2 14 16 33 29.9980000  0  5 25 15 14 22 29
  21389511.865     1396276.952 7   1079336.115 8
  21707834.865     1662235.986 6   1286177.786 6
  20620639.420    -7089383.437 7  -5436066.073 8
  21832213.186    -7917330.339 6  -5975222.952 6
  22340799.443    -6327235.690 6  -4779726.366 6
 95  2 14 16 33 59.9980000  0  5 25 15 14 22 29
  21395398.373     1427197.029 7   1103429.645 8
  21715076.678     1700292.017 6   1315831.762 6
  20601790.670    -7188431.802 7  -5513246.623 9
  21810910.115    -8029255.468 6  -6062437.321 6
  22322831.912    -6421661.012 6  -4853304.494 6
 95  2 14 16 34 29.9980000  0  5 25 15 14 22 29
  21401333.842     1458391.167 7   1127736.729 8
  21722383.287     1738688.808 6   1345751.270 6
  20583005.490    -7287154.752 7  -5590173.603 9
  21789676.459    -8140844.164 6  -6149389.544 6
  22304880.873    -6516007.917 6  -4926821.518 6
 95  2 14 16 34 59.9980000  0  5 25 15 14 22 29
  21407319.982     1489857.755 7   1152256.117 8
  21729759.639     1777436.920 6   1375944.521 6
  20564280.646    -7385538.226 7  -5666836.057 9
  21768516.443    -8252052.253 6  -6236045.170 6
  22286948.740    -6610251.431 6  -5000257.984 5
 95  2 14 16 35 29.9980000  0  5 25 15 14 22 29
  21413356.318     1521569.533 7   1176966.554 8
  21737194.662     1816516.409 6   1406396.003 6
  20545621.303    -7483606.678 7  -5743253.039 9
  21747422.115    -8362887.993 6  -6322410.674 6
  22269024.498    -6704420.244 6  -5073636.255 6
 95  2 14 16 35 59.9980000  0  5 25 15 14 22 29
  21419440.342     1553538.562 7   1201877.442 8
  21744692.506     1855925.973 6   1437104.670 6
  20527022.662    -7581335.107 7  -5819405.073 9
  21726399.131    -8473366.401 6  -6408497.730 6
  22251122.779    -6798516.024 6  -5146957.598 6
 95  2 14 16 36 29.9980000  0  5 25 15 14 22 29
  21425571.318     1585760.339 7   1226985.282 8
  21752253.936     1895672.086 6   1468075.602 6
  20508494.818    -7678699.200 7  -5895273.207 9
  21705445.615    -8583483.658 6  -6494303.365 6
  22233232.951    -6892524.652 6  -5220211.041 5
 95  2 14 16 36 59.9980000  0  5 25 15 14 22 29
  21431754.404     1618240.606 7   1252294.544 8
  21759881.881     1935751.540 6   1499306.275 6
  20490033.561    -7775712.617 7  -5970868.081 8
  21684558.779    -8693250.042 6  -6579835.599 6
  22215360.615    -6986457.971 6  -5293405.819 6
 95  2 14 16 37 29.9980000  0  5 25 15 14 22 29
  21437986.717     1650999.532 7   1277820.936 7
  21767573.396     1976166.639 6   1530798.487 6
  20471645.068    -7872352.287 7  -6046171.726 8
  21663732.967    -8802670.976 6  -6665098.651 6
  22197495.889    -7080333.343 6  -5366555.431 6
 95  2 14 16 37 59.9980000  0  5 25 15 14 22 29
  21444276.615     1684052.206 7   1303576.236 8
  21775329.850     2016920.008 6   1562554.287 6
  20453331.826    -7968592.805 7  -6121164.345 9
  21642984.217    -8911731.166 6  -6750080.591 6
  22179640.662    -7174142.630 6  -5439653.555 6
 95  2 14 16 38 29.9980000  0  5 25 15 14 22 29
  21450619.076     1717374.341 7   1329541.501 7
  21783145.506     2058000.523 6   1594564.996 6
  20435085.303    -8064461.335 7  -6195867.101 9
  21622300.482    -9020425.738 6  -6834777.643 6
  22161802.779    -7267889.267 6  -5512702.864 6
 95  2 14 16 38 59.9980000  0  5 25 15 14 22 29
  21457008.576     1750959.422 7   1355711.662 7
  21791022.240     2099400.505 6   1626824.650 6
  20416913.897    -8159962.140 7  -6270283.320 9
  21601681.272    -9128764.680 6  -6919197.584 6
  22143972.654    -7361588.622 6  -5585715.335 6
 95  2 14 16 39 29.9980000  0  5 25 15 14 22 29
  21463447.100     1784795.127 7   1382077.115 7
  21798962.951     2141116.835 6   1659330.808 6
  20398812.420    -8255080.959 7  -6344401.887 9
  21581136.170    -9236740.745 6  -7003334.748 6
  22126152.545    -7455238.542 6  -5658689.301 6
 95  2 14 16 39 59.9980000  0  5 25 15 14 22 29
  21469934.350     1818892.094 7   1408646.149 7
  21806966.146     2183165.396 6   1692095.839 6
  20380784.896    -8349814.516 7  -6418220.253 9
  21560663.686    -9344328.881 6  -7087169.639 6
  22108345.107    -7548808.165 6  -5731600.694 6
 95  2 14 16 40 29.9980000  0  5 25 15 14 22 29
  21476466.646     1853220.253 7   1435395.335 7
  21815027.248     2225523.953 6   1725102.438 6
  20362826.600    -8444200.633 7  -6491767.888 9
  21540256.857    -9451551.963 6  -7170720.072 6
  22090548.201    -7642323.941 6  -5804470.120 6
 95  2 14 16 40 59.9980000  0  5 25 15 14 22 29
  21483045.475     1887780.522 7   1462325.387 7
  21823144.920     2268190.334 6   1758348.889 6
  20344932.631    -8538233.042 7  -6565039.907 9
  21519926.834    -9558395.676 6  -7253974.884 6
  22072764.225    -7735784.040 6  -5877296.166 6
 95  2 14 16 41 29.9980000  0  5 25 15 14 22 29
  21489664.139     1922565.141 7   1489430.266 7
  21831319.436     2311155.464 6   1791828.140 6
  20327100.670    -8631925.953 7
  21499671.943    -9664844.785 6  -7336922.225 6
  22054993.506    -7829179.395 6
 95  2 14 16 41 59.9980000  0  5 25 15 14 22 29
  21496324.553     1957566.759 7   1516704.222 7
  21839554.521     2354413.199 6   1825535.377 6
  20309332.217    -8725297.820 7
  21479487.967    -9770891.295 6  -7419555.848 6
  22037239.428    -7922501.990 6
 95  2 14 16 42 29.9980000  0  5 25 15 14 22 29
  21503026.607     1992782.961 7   1544145.391 7
  21847841.061     2397964.791 6   1859471.596 6
  20291630.389    -8818333.149 7  -6783299.755 8
  21459384.936    -9876532.085 6  -7501873.330 6
  22019494.342    -8015737.185 6  -6095441.462 6
 95  2 14 16 42 59.9980000  0  5 25 15 14 22 29
  21509768.881     2028219.206 7   1571758.021 7
  21856183.662     2441803.167 6   1893631.284 6
  20273998.147    -8911002.548 7  -6855509.684 9
  21439360.021    -9981765.728 6  -7583873.551 6
  22001766.818    -8108873.734 6  -6168015.384 6
 95  2 14 16 43 29.9980000  0  5 25 15 14 22 29
  21516559.264     2063896.979 7   1599558.848 7
  21864581.584     2485937.418 6   1928021.529 6
  20256434.889    -9003281.062 7  -6927415.029 9
  21419415.748   -10086584.635 6  -7665550.591 6
  21984067.693    -8201896.233 6  -6240500.450 6
 95  2 14 16 43 59.9980000  0  5 25 15 14 22 29
  21523395.248     2099820.558 7   1627551.204 7
  21873036.803     2530364.517 6   1962639.977 6
  20238953.475    -9095153.687 7  -6999004.091 9
  21399548.107   -10190994.456 6  -7746908.873 6
  21966384.350    -8294820.288 6  -6312908.804 6
 95  2 14 16 44 29.9980000  0  5 25 15 14 22 29
  21530279.545     2135995.076 7   1655739.111 7
  21881542.459     2575075.796 6   1997479.847 6
  20221549.389    -9186606.608 7  -7070266.113 9
  21379757.295   -10295004.324 6  -7827955.505 6
  21948714.834    -8387662.283 6  -6385253.207 6
 95  2 14 16 44 59.9980000  0  5 25 15 14 22 29
  21537208.271     2172417.768 7   1684120.386 7
  21890104.709     2620063.014 6   2032534.743 6
  20204226.295    -9277651.182 7  -7141209.949 8
  21360039.514   -10398612.194 6  -7908688.897 6
  21931059.686    -8480440.766 6  -6457548.115 6
 95  2 14 16 45 29.9980000  0  5 25 15 14 22 29
  21544186.412     2209080.262 7   1712688.512 7
  21898717.334     2665327.178 6   2067805.429 6
  20186971.732    -9368313.429 7  -7211855.860 8
  21340399.115   -10501819.428 6  -7989110.098 6
  21913420.537    -8573160.517 6  -6529797.261 6
 95  2 14 16 45 59.9980000  0  5 25 15 14 22 29
  21551204.584     2245969.791 7   1741433.545 7
  21907387.889     2710871.422 6   2103294.375 6
  20169796.084    -9458588.083 7  -7282199.746 8
  21320833.717   -10604620.414 6  -8069214.730 6
  21895780.521    -8665827.316 6  -6602005.151 6
 95  2 14 16 46 29.9980000  0  5 25 15 14 22 29
  21558265.506     2283073.401 7   1770345.389 7
  21916103.850     2756685.709 6   2138993.717 6
  20152690.311    -9548473.318 7  -7352240.193 9
  21301347.162   -10707024.115 6  -8149009.811 6
  21878160.303    -8758435.225 6  -6674167.142 6
 95  2 14 16 46 59.9980000  0  5 25 15 14 22 29
  21565363.232     2320370.102 7   1799407.695 7
  21924870.990     2802760.038 6   2174895.697 6
  20135658.014    -9637977.215 7  -7421983.498 9
  21281937.623   -10809028.030 6  -8228493.363 6
  21860548.436    -8850986.868 6  -6746285.294 6
 95  2 14 16 47 29.9980000  0  5 25 15 14 22 29
  21572499.740     2357867.056 7   1828626.037 7
  21933691.975     2849101.768 6   2211006.056 6
  20118702.404    -9727080.420 7  -7491414.578 9
  21262606.787   -10910617.705 6  -8307654.119 6
  21842949.350    -8943467.211 6  -6818347.902 6
 95  2 14 16 47 59.9980000  0  5 25 15 14 22 29
  21579675.670     2395579.307 7   1858012.140 7
  21942561.850     2895713.475 6   2247326.754 6
  20101824.584    -9815761.279 7  -7560516.553 9
  21243360.826   -11011771.313 6  -8386475.084 6
  21825366.311    -9035874.077 6  -6890353.243 6
 95  2 14 16 48 29.9980000  0  5 25 15 14 22 29
  21586901.623     2433548.391 7   1887598.383 7
  21951486.670     2942620.670 6   2283877.736 5
  20085034.818    -9903996.275 7  -7629271.108 9
  21224202.029   -11112453.504 6  -8464928.712 6
  21807801.006    -9128168.376 6  -6962270.867 6
 95  2 14 16 48 59.9980000  0  5 25 15 14 22 29
  21594169.639     2471746.116 7   1917362.785 7
  21960461.521     2989793.827 6   2320635.955 6
  20068320.740    -9991827.911 7  -7697711.353 9
  21205128.943   -11212681.238 6  -8543028.226 6
  21790250.373    -9220386.782 6  -7034129.359 6
 95  2 14 16 49 29.9980000  0  5 25 15 14 22 29
  21601486.514     2510190.035 7   1947319.025 7
  21969490.428     3037235.763 6   2357603.593 6
  20051686.881   -10079244.677 7  -7765828.317 9
  21186143.865   -11312452.794 6  -8620772.269 6
  21772716.412    -9312535.277 6  -7105933.387 6
 95  2 14 16 49 59.9980000  0  5 25 15 14 22 29
  21608843.779     2548852.498 7   1977445.553 7
  21978564.318     3084923.690 6   2394762.927 6
  20035127.881   -10166256.618 7  -7833629.834 9
  21167237.264   -11411792.068 6  -8698179.464 7
  21755195.365    -9404632.754 6  -7177697.646 6
 95  2 14 16 50 29.9980000  0  5 25 15 14 22 29
  21616236.482     2587700.715 7   2007716.825 7
  21987685.670     3132849.686 6   2432107.759 6
  20018645.217   -10252869.687 7  -7901120.544 9
  21148417.326   -11510704.857 6  -8775254.347 7
  21737674.529    -9496682.864 6  -7249424.992 6
 95  2 14 16 50 59.9980000  0  5 25 15 14 22 29
  21623661.834     2626726.810 7   2038126.697 7
  21996853.490     3181011.448 6   2469636.308 6
  20002240.428   -10339072.114 7  -7968291.270 9
  21129676.412   -11609185.963 7  -8851992.858 7
  21720170.451    -9588683.868 6  -7321114.079 6
 95  2 14 16 51 29.9980000  0  5 25 15 14 22 29
  21631120.053     2665920.426 7   2068667.115 7
  22006060.732     3229399.522 6   2507341.194 6
  19985916.092   -10424863.151 7  -8035141.438 9
  21111016.264   -11707241.604 7  -8928399.825 7
  21702672.068    -9680639.661 6  -7392767.931 6
 95  2 14 16 51 59.9970000  0  5 25 15 14 22 29
  21638608.196     2705268.612 7   2099327.986 7
  22015310.087     3278013.928 6   2545222.463 6
  19969668.649   -10510248.370 7  -8101675.375 9
  21092441.571   -11804859.801 7  -9004465.936 7
  21685182.696    -9772532.282 6  -7464372.559 6
 95  2 14 16 52 29.9970000  0  5 25 15 14 22 29
  21646128.946     2744792.222 7   2130125.551 7
  22024603.079     3326851.654 6   2583277.739 5
  19953494.493   -10595248.452 7  -8167909.211 9
  21073944.681   -11902042.482 7  -9080192.686 7
  21667708.923    -9864366.736 6  -7535931.856 6
 95  2 14 16 52 59.9970000  0  5 25 15 14 22 29
  21653688.642     2784511.337 7   2161075.444 7
  22033939.235     3375910.929 6   2621505.638 5
  19937394.806   -10679859.936 7  -8233840.240 9
  21055532.774   -11998791.925 7  -9155581.842 7
  21650245.501    -9956130.516 6  -7607436.092 6
 95  2 14 16 53 29.9970000  0  5 25 15 14 22 29
  21661286.181     2824428.255 7   2192179.473 7
  22043315.712     3425188.359 6   2659903.560 5
  19921366.290   -10764087.121 7  -8299471.817 9
  21037204.142   -12095109.873 7  -9230634.768 7
  21632799.438   -10047826.156 6  -7678887.224 6
 95  2 14 16 53 59.9970000  0  5 25 15 14 22 29
  21668919.251     2864550.778 7   2223443.718 7
  22052734.915     3474688.806 6   2698475.241 5
  19905416.040   -10847907.693 7  -8364786.555 9
  21018957.712   -12190984.280 7  -9305342.086 7
  21615368.306   -10139421.039 6  -7750259.846 6
 95  2 14 16 54 29.9970000  0  5 25 15 14 22 29
  21676590.001     2904863.099 7   2254855.867 7
  22062194.438     3524402.236 6   2737212.862 6
  19889544.563   -10931310.910 7  -8429776.080 9
  21000802.954   -12286410.668 7  -9379700.297 7
  21597952.259   -10230920.068 6  -7821557.778 6
 95  2 14 16 54 59.9970000  0  5 25 15 14 22 29
  21684292.493     2945339.587 7   2286395.946 7
  22071694.774     3574323.712 5   2776112.620 5
  19873752.017   -11014282.141 7  -8494428.992 9
  20982730.243   -12381386.507 7  -9453707.433 7
  21580561.267   -10322336.964 6  -7892791.712 6
 95  2 14 16 55 29.9970000  0  6 25 15 18 14 22 29
  21692024.735     2985979.615 7   2318063.462 7
  22081236.868     3624447.882 6   2815170.317 5
  23965987.626          -0.42913
  19858051.876   -11096807.183 7  -8558734.221 9
  20964744.626   -12475900.312 7  -9527354.545 7
  21563181.313   -10413669.724 6  -7963960.094 6
 95  2 14 16 55 59.9970000  0  6 25 15 18 14 22 29
  21699786.571     3026762.714 7   2349842.457 7
  22090809.688     3674755.076 6   2854370.617 5
  23943625.853     -117517.688 3
  19842431.837   -11178898.167 7  -8622701.220 9
  20946843.493   -12569960.002 7  -9600647.790 7
  21545809.993   -10504943.411 6  -8035082.446 6
 95  2 14 16 56 29.9970000  0  6 25 15 18 14 22 29
  21707579.587     3067709.529 7   2381749.020 6
  22100419.212     3725262.645 5   2893727.066 5
  23921268.282     -235012.200 2        -0.19311
  19826893.251   -11260542.617 7  -8686320.276 9
  20929035.431   -12663540.201 7  -9673567.405 7
  21528453.978   -10596175.232 6  -8106172.167 6
 95  2 14 16 56 59.9970000  0  6 25 15 18 14 22 29
  21715405.829     3108837.341 7   2413796.637 6
  22110065.665     3775966.624 5   2933236.553 5
  23898907.509     -352501.690 2    -91550.373 1
  19811438.696   -11341746.232 7  -8749595.827 9
  20911322.743   -12756643.975 7  -9746115.782 7
  21511093.689   -10687362.556 6  -8177227.220 6
 95  2 14 16 57 29.9970000  0  6 25 15 18 14 22 29
  21723266.329     3150144.526 7   2445984.022 6
  22119751.837     3826861.801 5   2972895.037 5
  23876552.689     -470006.816 3   -183112.732 1
  19796069.040   -11422517.025 7  -8812534.115 9
  20893694.431   -12849270.106 7  -9818291.967 7
  21493754.540   -10778495.154 6  -8248239.633 6
 95  2 14 16 57 59.9970000  0  5 25 15 14 22 29
  21731155.204     3191599.634 7   2478286.661 6
  22129472.142     3877930.804 5   3012688.939 5
  19780780.087   -11502873.849 7  -8875149.826 8
  20876153.314   -12941427.602 7  -9890102.972 7
  21476420.524   -10869607.438 6  -8319236.224 6
 95  2 14 16 58 29.9970000  0  5 25 15 14 22 29
  21739072.751     3233203.092 7   2510704.919 6
  22139223.118     3929180.580 6   3052623.732 5
  19765567.821   -11582803.260 7  -8937432.485 8
  20858711.243   -13033112.706 7  -9961545.882 7
  21459084.423   -10960674.978 6  -8390197.942 6
 95  2 14 16 58 59.9970000  0  6 25 15 18 14 22 29
  21747013.188     3274941.362 7   2543228.217 6
  22149006.103     3980603.915 5   3092693.774 5
  23809446.251          -0.25412
  19750441.689   -11662302.211 7  -8999379.724 8
  20841348.688   -13124337.361 7
  21441771.782   -11051673.314 6
 95  2 14 16 59 29.9970000  0  6 25 15 18 14 22 29
  21754977.704     3316800.517 7   2575845.708 6
  22158824.688     4032188.080 5   3132889.107 5
  23787064.993     -117588.346 2        -0.07111
  19735395.728   -11741375.342 7  -9060995.154 8
  20824075.696   -13215115.505 7 -10103366.209 7
  21424459.282   -11142633.184 6  -8531983.558 6
 95  2 14 16 59 59.9970000  0  6 25 15 18 14 22 29
  21762970.431     3358797.126 7   2608570.296 6
  22168676.110     4083941.917 6   3173216.658 5
  23764693.884     -235173.970 3    -91625.161 1
  19720430.298   -11820008.281 7  -9122267.581 8
  20806885.681   -13305447.653 7 -10173754.877 7
  21407159.259   -11233546.478 6  -8602825.085 6
 95  2 14 17  0 29.9970000  0  6 25 15 18 14 22 29
  21770992.024     3400945.037 7   2641412.789 6
  22178554.290     4135866.730 5   3213677.444 5
  23742317.868     -352767.018 3   -183256.058 2
  19705554.095   -11898204.762 7  -9183199.908 8
  20789779.204   -13395335.250 7 -10243797.152 7
  21389875.071   -11324382.575 6  -8673606.458 6
 95  2 14 17  0 59.9970000  0  6 25 15 18 14 22 29
  21779040.407     3443243.485 7   2674372.583 6
  22188465.243     4187947.156 5   3254259.482 5
  23719931.485     -470388.007 3   -274908.736 2
  19690748.782   -11975980.814 7  -9243804.634 8
  20772763.431   -13484774.826 7 -10313490.314 7
  21372600.017   -11415166.053 6  -8744346.832 6
 95  2 14 17  1 29.9970000  0  6 25 15 18 14 22 29
  21787119.892     3485693.643 6   2707450.594 6
  22198405.407     4240175.220 5   3294956.570 5
  23697546.860     -588023.654 3   -366572.800 2
  19676030.235   -12053336.507 7  -9304081.803 8
  20755827.853   -13573754.665 7 -10382825.229 7
  21355333.985   -11505910.994 7  -8815057.174 6
 95  2 14 17  1 59.9970000  0  6 25 15 18 14 22 29
  21795222.751     3528282.793 6   2740636.919 6
  22208373.407     4292557.408 5   3335773.740 5
  23675162.259     -705673.671 3   -458248.075 2
  19661389.493   -12130260.899 7  -9364022.894 8
  20738990.353   -13662242.534 7 -10451776.809 7
  21338082.923   -11596570.906 7  -8885701.243 6
 95  2 14 17  2 29.9970000  0  6 25 15 18 14 22 29
  21803351.759     3570999.333 6   2773922.480 6
  22218370.032     4345088.682 5   3376707.082 5
  23652764.446     -823346.667 4   -549941.265 2
  19646836.181   -12206749.617 7  -9423624.505 8
  20722247.446   -13750213.758 7 -10520325.799 7
  21320846.399   -11687143.786 7  -8956277.507 6
 95  2 14 17  2 59.9970000  0  6 25 15 18 14 22 29
  21811502.524     3613822.715 6   2807291.307 6
  22228390.478     4397757.209 5   3417747.392 5
  23630368.829     -941049.109 3   -641657.422 2
  19632365.759   -12282789.206 7  -9482876.144 8
  20705611.071   -13837665.968 7 -10588470.367 7
  21303619.103   -11777658.276 7  -9026808.263 6
 95  2 14 17  3 29.9970000  0  6 25 15 18 14 22 29
  21819667.642     3656747.140 6   2840738.857 6
  22238438.165     4450560.913 5   3458893.023 5
  23607968.524    -1058781.139 4   -733396.628 1
  19617984.524   -12358362.446 7  -9541764.394 8
  20689059.603   -13924609.930 7 -10656218.899 7
  21286414.595   -11868102.178 7  -9097284.021 6
 95  2 14 17  3 59.9970000  0  6 25 15 18 14 22 29
  21827859.696     3699787.413 6   2874276.687 6
  22248516.462     4503512.950 5   3500154.216 5
  23585556.001    -1176540.697 4   -825157.283 1
  19603692.618   -12433468.682 7  -9600288.739 8
  20672615.595   -14011042.130 7 -10723568.656 7
  21269214.392   -11958466.232 7  -9167697.558 6
 95  2 14 17  4 29.9970000  0  6 25 15 18 14 22 29
  21836076.079     3742964.944 6   2907921.471 6
  22258616.556     4556602.614 5   3541522.660 5
  23563143.462    -1294330.467 5   -916941.533 1
  19589486.235   -12508112.322 7  -9658452.618 8
  20656260.954   -14096993.482 7 -10790543.725 7
  21252026.118   -12048799.928 7  -9238087.435 6
 95  2 14 17  4 59.9970000  0  6 25 15 18 14 22 29
  21844317.228     3786279.620 6   2941673.112 6
  22268746.259     4609813.696 5   3582985.751 5
  23540720.360    -1412155.423 5  -1008753.153 1
  19575372.306   -12582307.774 7  -9716267.275 8
  20639988.063   -14182495.182 7 -10857168.411 7
  21234832.196   -12139124.055 7  -9308469.860 6
 95  2 14 17  5 29.9970000  0  6 25 15 18 14 22 29
  21852587.899     3829733.625 6   2975533.324 6
  22278893.454     4663144.535 5   3624542.116 5
  23518294.493    -1530000.032 4  -1100580.086 2
  19561334.399   -12656067.522 7  -9773742.403 8
  20623799.548   -14267565.013 7 -10923456.570 7
  21217652.915   -12229423.464 7  -9378833.024 7
 95  2 14 17  5 59.9970000  0  6 25 15 18 14 22 29
  21860882.345     3873332.404 6   3009506.332 6
  22289067.134     4716601.589 5   3666196.847 5
  23495868.532    -1647853.495 5  -1192413.923 2
  19547379.407   -12729392.369 7  -9830878.652 8
  20607701.353   -14352178.475 7 -10989389.111 7
  21200472.829   -12319691.826 7  -9449171.993 7
 95  2 14 17  6 29.9970000  0  6 25 15 18 14 22 29
  21869210.845     3917084.204 6   3043598.587 6
  22299265.204     4770197.135 5   3707959.508 5
  23473441.813    -1765692.837 5  -1284236.759 1
  19533521.001   -12802238.330 7  -9887641.751 8
  20591689.751   -14436311.583 7 -11054947.353 7
  21183304.454   -12409906.844 7  -9519469.399 7
 95  2 14 17  6 59.9970000  0  6 25 15 18 14 22 29
  21877555.095     3960941.106 6   3077772.732 6
  22309485.829     4823909.247 5   3749812.985 5
  23451020.149    -1883537.653 4  -1376063.816 2
  19519742.860   -12874623.996 7  -9944046.172 8
  20575767.759   -14519974.868 7 -11120139.499 7
  21166153.642   -12500053.599 7  -9589713.615 7
 95  2 14 17  7 29.9970000  0  6 25 15 18 14 22 29
  21885916.915     4004887.437 6   3112016.562 6
  22319728.462     4877732.935 5   3791753.397 5
  23428588.149    -2001391.705 4  -1467898.160 1
  19506053.868   -12946548.814 7 -10000091.489 8
  20559942.993   -14603145.580 7 -11184947.820 7
  21149016.470   -12590130.301 7  -9659903.258 7
 95  2 14 17  7 59.9970000  0  6 25 15 18 14 22 29
  21894303.329     4048942.519 6   3146345.142 6
  22329993.899     4931676.750 5   3833787.424 5
  23406160.173    -2119253.968 3  -1559738.818 1
  19492460.071   -13017994.967 7 -10055763.818 8
  20544214.087   -14685782.297 7 -11249340.052 7
  21131890.196   -12680130.726 7  -9730033.455 6
 95  2 14 17  8 29.9970000  0  6 25 15 18 14 22 29
  21902705.868     4093107.022 6   3180758.976 6
  22340282.618     4985736.456 5   3875911.770 5
  23383729.431    -2237122.801 3  -1651584.633 1
  19478959.907   -13088957.041 7 -10111058.940 8
  20528588.720   -14767887.298 7 -11313317.945 7
  21114775.048   -12770060.614 7  -9800108.689 6
 95  2 14 17  8 59.9970000  0  6 25 15 18 14 22 29
  21911127.954     4137376.285 6   3215254.450 6
  22350589.142     5039901.351 5   3918118.072 4
  23361300.009    -2355004.777 3  -1743440.641 1
  19465541.282   -13159465.286 7 -10166000.430 8
  20513071.306   -14849448.072 7 -11376871.780 7
  21097673.306   -12859923.645 7  -9870131.834 7
 95  2 14 17  9 29.9970000  0  6 25 15 18 14 22 29
  21919574.446     4181754.589 6   3249834.896 6
  22360916.181     5094165.560 6   3960401.768 5
  23338864.813    -2472911.414 3  -1835315.874 1
  19452209.032   -13229524.238 7 -10220591.828 8
  20497654.931   -14930457.336 7 -11439995.866 7
  21080584.001   -12949731.714 7  -9940112.141 7
 95  2 14 17  9 59.9970000  0  6 25 15 18 14 22 29
  21928039.837     4226234.722 6   3284494.691 6
  22371260.306     5148520.246 5   4002755.960 5
  23316418.931    -2590848.368 2
  19438960.579   -13299144.469 7 -10274841.365 8
  20482341.071   -15010938.143 7 -11502708.170 7
  21063504.774   -13039485.919 7 -10010050.482 7
 95  2 14 17 10 29.9970000  0  6 25 15 18 14 22 29
  21936521.610     4270809.188 6   3319227.989 6
  22381615.423     5202969.903 5   4045184.146 4
  23293982.892    -2708803.678 3
  19425793.767   -13368324.778 7 -10328748.104 8
  20467126.954   -15090900.571 7 -11565016.544 8
  21046434.681   -13129176.454 7 -10079939.214 7
 95  2 14 17 10 59.9970000  0  6 25 15 18 14 22 29
  21945020.735     4315474.993 6   3354032.452 6
  22391999.095     5257519.259 5   4087690.039 5
  23271523.814    -2826777.277 3        -0.39811
  19412718.321   -13437057.204 7 -10382305.848 8
  20452006.681   -15170342.242 7 -11626919.134 7
  21029382.853   -13218793.441 7 -10149770.631 7
 95  2 14 17 11 29.9960000  0  6 25 15 18 14 22 29
  21953537.715     4360227.079 6   3388904.153 6
  22402398.348     5312158.283 5   4130265.801 5
  23249075.699    -2944767.403 3    -91940.709 2
  19399726.059   -13505329.118 7 -10435504.745 8
  20436984.410   -15249281.934 7 -11688430.588 7
  21012341.402   -13308348.886 7 -10219554.092 7
 95  2 14 17 11 59.9960000  0  6 25 15 18 14 22 29
  21962071.121     4405070.194 6   3423846.795 6
  22412814.652     5366876.016 5   4172902.876 5
  23226611.777    -3062784.642 3   -183902.141 1
  19386822.504   -13573143.752 7 -10488347.326 8
  20422052.895   -15327736.570 7 -11749564.053 8
  20995304.324   -13397869.715 7 -10289310.581 7
 95  2 14 17 12 29.9960000  0  6 25 15 18 14 22 29
  21970625.168     4450017.597 6   3458870.687 6
  22423238.191     5421677.456 5   4215605.155 5
  23204148.199    -3180831.879 3   -275886.965 2
  19374008.574   -13640472.429 7 -10540811.241 8
  20407221.918   -15405687.814 7 -11810305.271 8
  20978277.051   -13487352.069 7 -10359037.087 7
 95  2 14 17 12 59.9960000  0  6 25 15 18 14 22 29
  21979201.465     4495087.952 6   3493990.390 6
  22433684.270     5476567.011 5   4258376.122 5
  23181679.160    -3298898.429 3   -367886.816 4
  19361296.434   -13707287.681 7 -10592875.076 8
  20392486.184   -15483116.108 7 -11870638.993 7
  20961255.863   -13576786.829 7 -10428726.504 7
 95  2 14 17 13 29.9960000  0  6 25 15 18 14 22 29
  21987801.676     4540284.966 6   3529208.780 6
  22444146.238     5531543.984 5   4301215.220 5
  23159215.559    -3416973.053 3   -459892.940 2
  19348679.387   -13773585.417 7 -10644535.659 8
  20377855.434   -15560011.918 7 -11930557.800 8
  20944249.105   -13666154.632 7 -10498363.748 7
 95  2 14 17 13 59.9960000  0  6 25 15 18 14 22 29
  21996423.184     4585592.475 6   3564513.270 6
  22454620.691     5586600.110 5   4344115.967 5
  23136735.582    -3535072.612 3   -551918.504 3
  19336157.488   -13839372.584 7 -10695798.396 8
  20363321.238   -15636381.317 7 -11990066.403 8
  20927262.582   -13755449.568 7 -10567944.216 7
 95  2 14 17 14 29.9960000  0  6 25 15 18 14 22 29
  22005060.277     4630977.415 6   3599878.098 6
  22465112.527     5641726.412 5   4387071.391 5
  23114259.434    -3653194.267 4   -643961.296 4
  19323733.840   -13904660.660 7 -10746672.223 8
  20348893.356   -15712230.926 7 -12049169.986 7
  20910281.684   -13844663.327 7 -10637461.424 7
 95  2 14 17 14 59.9960000  0  6 25 15 18 14 22 29
  22013708.535     4676426.902 6   3635293.212 6
  22475614.449     5696918.831 5   4430078.339 5
  23091781.723    -3771312.778 3   -736001.627 4
  19311404.113   -13969449.977 7 -10797157.423 8
  20334560.652   -15787548.678 7 -12107859.126 8
  20893322.582   -13933783.345 7 -10706905.602 7
 95  2 14 17 15 29.9960000  0  6 25 15 18 14 22 29
  22022373.832     4721952.932 6   3670767.985 6
  22486136.176     5752196.404 5   4473151.670 5
  23069309.981    -3889415.393 3   -828029.590 2
  19299174.879   -14033726.041 7 -10847242.682 8
  20320328.660   -15862314.410 7 -12166118.115 7
  20876387.074   -14022795.169 7 -10776265.464 7
 95  2 14 17 15 59.9960000  0  6 25 15 18 14 22 29
  22031051.996     4767555.796 6   3706302.629 6
  22496667.730     5807546.490 5   4516281.475 5
  23046842.105    -4007509.552 5   -920051.006 4
  19287041.707   -14097499.924 7 -10896936.634 8
  20306203.699   -15936532.823 7 -12223950.627 7
  20859458.746   -14111731.137 7 -10845566.223 7
 95  2 14 17 16 29.9960000  0  6 25 15 18 14 22 29
  22039741.434     4813236.731 6   3741898.092 6
  22507217.645     5862966.904 5   4559466.083 4
  23024375.004    -4125590.380 5  -1012061.982 2
  19274998.809   -14160766.290 7 -10946235.112 8
  20292187.590   -16010189.912 7 -12281345.741 8
  20842550.793   -14200596.058 7 -10914811.617 7
 95  2 14 17 16 59.9960000  0  6 25 15 18 14 22 29
  22048453.418     4859002.920 6   3777559.984 6
  22517770.137     5918445.288 5   4602695.868 5
  23001898.277    -4243681.864 5  -1104081.319 2
  19263051.856   -14223533.774 7 -10995144.856 8
  20278282.738   -16083294.321 7 -12338310.206 8
  20825651.684   -14289401.432 7 -10984010.610 7
 95  2 14 17 17 29.9960000  0  6 25 15 18 14 22 29
  22057183.309     4904879.245 6   3813307.706 6
  22528338.598     5973989.831 5   4645977.210 5
  22979424.980    -4361778.404 5  -1196104.594 3
  19251206.590   -14285808.680 7 -11043670.772 8
  20264468.926   -16155844.356 7 -12394842.695 8
  20808767.356   -14378137.803 7 -11053155.837 7
 95  2 14 17 17 59.9960000  0  6 25 15 18 14 22 29
  22065929.449     4950847.195 6   3849126.812 6
  22538921.871     6029586.576 5   4689299.209 5
  22956951.457    -4479892.788 5  -1288141.744 1
  19239446.043   -14347602.101 7 -11091821.503 8
  20250771.840   -16227844.401 7 -12450946.627 7
  20791895.004   -14466803.419 7 -11122245.937 7
 95  2 14 17 18 29.9960000  0  6 25 15 18 14 22 29
  22074694.965     4996909.692 6   3885019.605 6
  22549514.731     6085250.538 5   4732673.592 5
  22934471.559    -4598003.449 4  -1380176.003 2
  19227784.621   -14408883.393 7 -11139573.178 8
  20237178.981   -16299279.534 7 -12506610.359 7
  20775038.863   -14555373.239 7 -11191261.388 7
 95  2 14 17 18 59.9960000  0  6 25 15 18 14 22 29
  22083478.980     5043065.931 6   3920985.454 6
  22560120.441     6140975.392 5   4776095.416 5
  22911997.965    -4716105.132 4  -1472203.272 2
  19216220.863   -14469661.820 7 -11186933.008 8
  20223688.074   -16370159.159 7 -12561841.239 7
  20758199.527   -14643850.818 7 -11260204.979 7
 95  2 14 17 19 29.9960000  0  6 25 15 18 14 22 29
  22092275.520     5089294.476 6   3957007.645 6
  22570733.551     6196755.155 5   4819560.045 5
  22889526.723    -4834193.835 4  -1564220.370 1
  19204748.910   -14529934.679 7 -11233898.879 8
  20210308.629   -16440482.431 7 -12616638.603 8
  20741381.965   -14732254.014 7 -11329090.595 7
 95  2 14 17 19 59.9960000  0  6 25 15 18 14 22 29
  22101086.449     5135598.298 6   3993088.471 6
  22581359.340     6252604.884 5   4863079.186 4
  22867057.137    -4952264.018 4  -1656223.065 1
  19193385.871   -14589655.885 7 -11280434.913 8
  20197028.574   -16510238.913 7 -12670994.307 8
  20724572.770   -14820578.229 7 -11397914.666 7
 95  2 14 17 20 29.9960000  0  6 25 15 18 14 22 29
  22109916.012     5181992.286 6   4029239.574 6
  22591997.832     6308517.489 5   4906647.316 4
  22844592.730    -5070308.351 5  -1748205.639 1
  19182122.512   -14648823.115 7 -11326539.261 8
  20183869.668   -16579437.592 7 -12724915.367 8
  20707774.465   -14908845.201 7 -11466694.135 7
 95  2 14 17 20 59.9960000  0  6 25 15 18 14 22 29
  22118762.723     5228486.857 6   4065469.050 6
  22602655.496     6364495.565 5   4950266.463 3
  22822140.199    -5188332.113 5  -1840172.171 2
  19170973.543   -14707439.877 7 -11372214.675 8
  20170801.590   -16648073.714 7 -12778398.080 8
  20690991.996   -14997041.992 7 -11535418.916 7
 95  2 14 17 21 29.9960000  0  6 25 15 18 14 22 29
  22127630.309     5275083.931 6   4101778.404 6
  22613315.051     6420529.428 5   4993929.083 2
  22799678.613    -5306344.695 5  -1932129.962 1
  19159920.496   -14765498.907 7 -11417455.495 8
  20157853.051   -16716146.399 7 -12831441.752 8
  20674227.129   -15085161.893 7 -11604083.782 7
 95  2 14 17 21 59.9960000  0  6 25 15 18 14 22 29
  22136519.824     5321797.542 6   4138178.579 6
  22623989.793     6476613.096 5   5037630.510 2
  22777226.809    -5424345.411 5  -2024078.566 1
  19148982.832   -14822999.245 7 -11462260.971 8
  20145003.277   -16783650.899 7 -12884042.671 8
  20657472.402   -15173181.875 7 -11672670.789 7
 95  2 14 17 22 29.9960000  0  6 25 15 18 14 22 29
  22145431.340     5368629.738 6   4174671.138 6
  22634667.777     6532746.664 5   5081370.815 3
  22754773.176    -5542316.722 4  -2116004.241 1
  19138141.027   -14879951.936 7 -11506639.712 8
  20132275.129   -16850556.597 7 -12936176.990 8
  20640751.426   -15261075.601 7 -11741159.416 7
 95  2 14 17 22 59.9960000  0  6 25 15 18 14 22 29
  22154363.934     5415570.386 6   4211248.208 6
  22645364.582     6588935.462 5   5125154.148 3
  22732330.090    -5660260.243 5  -2207908.273 1
  19127412.340   -14936346.202 7 -11550583.317 8
  20119655.316   -16916842.119 7 -12987828.062 8
  20624055.691   -15348808.643 7 -11809522.833 7
 95  2 14 17 23 29.9960000  0  6 25 15 18 14 22 29
  22163314.410     5462605.890 6   4247899.179 5
  22656066.652     6645176.730 4   5168978.381 2
  22709893.309    -5778174.167 4  -2299789.258 2
  19116787.598   -14992175.039 7 -11594086.331 8
  20107165.816   -16982495.876 7 -13038986.829 8
  20607389.316   -15436382.794 7 -11877762.442 7
 95  2 14 17 23 59.9960000  0  6 25 15 18 14 22 29
  22172279.895     5509717.008 6   4284609.068 6
  22666776.262     6701471.044 4   5212843.943 2
  22687460.027    -5896064.770 4  -2391652.026 2
  19106267.629   -15047450.288 7 -11637157.969 7
  20094794.191   -17047516.862 7 -13089652.532 8
  20590752.762   -15523810.113 7 -11945887.624 7
 95  2 14 17 24 29.9960000  0  6 25 15 18 14 22 29
  22181257.238     5556887.691 6   4321365.350 5
  22677496.574     6757810.759 4   5256744.873 3
  22665028.832    -6013944.087 4  -2483506.035 1
  19095852.168   -15102194.293 7 -11679815.663 7
  20082537.629   -17111916.582 7 -13139834.124 8
  20574137.887   -15611119.628 7 -12013921.012 7
 95  2 14 17 24 59.9960000  0  6 25 15 18 14 22 29
  22190243.043     5604111.579 6   4358163.087 6
  22688229.988     6814185.388 5   5300672.989 3
  22642591.777    -6131822.500 4  -2575359.317 2
  19085534.793   -15156418.808 7 -11722068.553 7
  20070392.613   -17175725.114 7 -13189555.052 8
  20557542.762   -15698335.905 7 -12081881.751 7
 95  2 14 17 25 29.9960000  0  6 25 15 18 14 22 29
  22199240.949     5651403.832 6   4395014.100 6
  22698963.629     6870600.303 5   5344632.503 4
  22620172.449    -6249669.947 5  -2667188.478 2
  19075313.598   -15210123.386 7 -11763916.290 7
  20058366.449   -17238945.910 7 -13238817.995 8
  20540960.809   -15785472.278 7 -12149780.225 7
 95  2 14 17 25 59.9960000  0  6 25 15 18 14 22 29
  22208258.535     5698781.186 6   4431931.438 5
  22709704.590     6927049.246 5   5388618.549 4
  22597750.645    -6367482.328 5  -2758990.332 3
  19065189.426   -15263312.806 7 -11805362.621 8
  20046446.840   -17301584.474 7 -13287627.241 8
  20524392.121   -15872539.729 7 -12217624.989 7
 95  2 14 17 26 29.9960000  0  7 25 15 18 14 22 29 19
  22217291.973     5746253.973 6   4468923.130 5
  22720450.121     6983531.327 5   5432630.410 4
  22575339.980    -6485242.772 5  -2850751.712 3
  19055171.098   -15315959.993 7 -11846386.427 7
  20034641.449   -17363636.685 7 -13335979.599 8
  20507833.496   -15959537.303 7 -12285415.315 7
  23506175.387          -0.51214
 95  2 14 17 26 59.9960000  0  7 25 15 18 14 22 29 19
  22226343.660     5793821.113 6   4505988.329 5
  22731200.324     7040037.574 5   5476661.077 4
  22552945.074    -6602955.700 5  -2942476.068 1
  19045258.574   -15368049.566 7 -11886975.729 7
  20022939.785   -17425113.164 7 -13383883.329 8
  20491298.238   -16046457.555 7 -12353145.384 7
  23481101.332     -131764.987 3
 95  2 14 17 27 29.9960000  0  7 25 15 18 14 22 29 19
  22235411.668     5841481.937 6   4543126.541 5
  22741965.293     7096564.234 5   5520707.670 2
  22530548.379    -6720633.610 5  -3034173.138 4
  19035456.168   -15419566.214 7 -11927118.596 7
  20011353.090   -17485998.798 7 -13431326.663 8
  20474773.777   -16133289.663 7 -12420806.768 7
  23456052.910     -263392.456 4
 95  2 14 17 27 59.9960000  0  7 25 15 18 14 22 29 19
  22244500.121     5889230.052 6   4580332.763 5
  22752724.887     7153108.558 5   5564768.036 4
  22508158.590    -6838294.869 5  -3125857.211 2
  19025762.496   -15470503.811 7 -11966810.254 7
  19999879.145   -17546287.766 7 -13478305.068 8
  20458272.449   -16220010.909 7 -12488381.774 7
  23431028.676     -394897.420 4
 95  2 14 17 28 29.9960000  0  7 25 15 18 14 22 29 19
  22253602.887     5937074.647 6   4617614.156 6
  22763486.387     7209683.865 5   5608852.539 4
  22485770.566    -6955921.608 5  -3217514.400 2
  19016185.324   -15520848.318 7 -12006039.767 7
  19988522.871   -17605966.184 7 -13524807.721 8
  20441792.027   -16306580.035 7 -12555838.249 7
  23406028.910     -526273.724 3        -0.31111
 95  2 14 17 28 59.9960000  0  7 25 15 18 14 22 29 19
  22262722.707     5984994.599 6   4654954.278 6
  22774259.199     7266277.815 5   5652951.587 2
  22463395.512    -7073528.464 5  -3309156.103 2
  19006712.816   -15570628.162 7 -12044829.281 7
  19977281.473   -17665034.881 7 -13570835.275 8
  20425350.957   -16392987.691 7 -12623168.907 7
  23381056.777     -657503.359 3   -102257.102 1
 95  2 14 17 29 29.9960000  0  7 25 15 18 14 22 29 19
  22271851.152     6032962.359 6   4692331.674 6
  22785027.590     7322881.734 5   5697058.368 5
  22441021.434    -7191113.021 5  -3400780.429 3
  18997345.262   -15619853.505 7 -12083186.718 7
  19966160.973   -17723482.366 7 -13616378.760 8
  20408936.730   -16479242.152 7 -12690380.190 8
  23356119.051     -788568.497 3   -204385.689 1
 95  2 14 17 29 59.9960000  0  7 25 15 18 14 22 29 19
  22280991.855     6080978.855 6   4729747.008 5
  22795801.637     7379496.606 4   5741173.694 3
  22418648.543    -7308662.678 5  -3492377.554 2
  18988082.410   -15668526.393 7 -12121113.660 7
  19955155.129   -17781314.031 7 -13661442.396 8
  20392554.129   -16565346.411 7 -12757474.433 7
  23331208.301     -919444.657 3   -306367.128 1
 95  2 14 17 30 29.9960000  0  7 25 15 18 14 22 29 19
  22290133.840     6129032.951 6   4767191.662 6
  22806578.934     7436111.837 4   5785289.303 3
  22396284.871    -7426189.606 5  -3583956.941 3
  18978924.395   -15716643.662 7 -12158607.656 7
  19944268.184   -17838537.239 7 -13706031.910 8
  20376191.434   -16651332.269 7 -12824476.409 8
  23306343.770    -1050118.863 3   -408191.163 1
 95  2 14 17 30 59.9950000  0  7 25 15 18 14 22 29 19
  22299284.804     6177121.891 6   4804663.490 6
  22817349.507     7492726.570 4   5829404.520 4
  22373926.913    -7543686.345 5  -3675512.811 4
  18969874.476   -15764195.013 7 -12195660.676 7
  19933498.538   -17895142.187 7 -13750139.673 8
  20359847.202   -16737218.878 7 -12891401.048 8
  23281519.796    -1180572.875 3   -509843.602 2
 95  2 14 17 31 29.9950000  0  7 25 15 18 14 22 29 19
  22308448.187     6225283.512 6   4842191.929 5
  22828125.476     7549353.804 3   5873529.494 3
  22351576.343    -7661149.902 5  -3767042.848 2
  18960938.616   -15811165.361 7 -12232260.967 7
  19922842.179   -17951135.951 7 -13793771.186 8
  20343524.851   -16823001.074 7 -12958244.333 7
  23256735.085    -1310822.197 3   -611336.518 1
 95  2 14 17 31 59.9950000  0  7 25 15 18 14 22 29 19
  22317625.655     6273519.423 6   4879778.262 5
  22838897.093     7605968.434 3   5917644.628 2
  22329223.897    -7778602.170 5  -3858564.079 2
  18952106.194   -15857579.868 7 -12268428.137 7
  19912296.554   -18006543.949 7 -13836946.250 8
  20327216.179   -16908698.115 7 -13025021.264 8
  23231976.358    -1440899.285 2   -712695.267 2
 95  2 14 17 32 29.9950000  0  7 25 15 18 14 22 29 19
  22326819.890     6321831.843 5   4917424.231 5
  22849672.905     7662569.945 3   5961749.548 4
  22306878.124    -7896026.538 5  -3950063.547 2
  18943383.624   -15903435.430 7 -12304159.766 7
  19901864.507   -18061352.852 7 -13879654.494 8
  20310926.296   -16994303.240 7 -13091726.566 7
  23207257.413    -1570813.818 3   -813927.284 2
 95  2 14 17 32 59.9950000  0  7 25 15 18 14 22 29 19
  22336032.796     6370231.087 6   4955137.836 5
  22860435.679     7719164.398 3   6005848.957 2
  22284542.163    -8013403.294 5  -4041525.963 3
  18934761.624   -15948732.481 7 -12339456.198 7
  19891552.030   -18115548.524 7 -13921884.889 8
  20294656.241   -17079804.727 7 -13158351.114 8
  23182564.304    -1700562.723 3   -915030.232 3
 95  2 14 17 33 29.9950000  0  7 25 15 18 14 22 29 19
  22345257.741     6418708.126 5   4992912.074 5
  22871210.780     7775743.322 3   6049936.289 1
  22262212.788    -8130746.987 5  -4132962.581 3
  18926244.624   -15993470.188 7 -12374316.764 7
  19881357.499   -18169136.145 7 -13963641.477 8
  20278403.562   -17165209.150 7 -13224900.026 8
  23157907.468    -1830157.104 2  -1016012.749 2
 95  2 14 17 33 59.9950000  0  7 25 15 18 14 22 29 19
  22354493.288     6467241.068 5   5030729.862 5
  22881975.632     7832309.938 3   6094014.019 1
  22239890.663    -8248048.621 5  -4224366.446 4
  18917842.382   -16037634.129 7 -12408730.249 7
  19871280.335   -18222092.054 7 -14004905.814 8
  20262168.812   -17250524.558 7 -13291379.572 8
  23133276.944    -1959583.121 3  -1116864.081 4
 95  2 14 17 34 29.9950000  0  7 25 15 18 14 22 29 19
  22363735.718     6515811.205 5   5068576.639 5
  22892730.726     7888858.397 3   6138077.612 1
  22217574.890    -8365313.041 5  -4315741.295 2
  18909550.546   -16081221.439 7 -12442694.403 7
  19861317.757   -18274421.163 7 -14045681.744 8
  20245953.132   -17335748.341 7 -13357787.729 8
  23108676.015    -2088844.540 3  -1217587.169 4
 95  2 14 17 34 59.9950000  0  7 25 15 18 14 22 29 19
  22372982.062     6564414.795 5   5106449.472 5
  22903487.491     7945381.092 3   6182121.111 1
  22195265.069    -8482563.466 5  -4407105.254 4
  18901362.335   -16124234.968 7 -12476211.458 7
  19851481.788   -18326138.466 7 -14085980.930 8
  20229750.148   -17420879.433 7 -13424123.660 8
  23084110.249    -2217946.545 3  -1318186.060 4
 95  2 14 17 35 29.9950000  0  7 25 15 18 14 22 29 19
  22382237.437     6613055.331 5   5144351.087 5
  22914242.858     8001885.329 4   6226150.225 1
  22172955.210    -8599791.293 5  -4498451.594 4
  18893289.788   -16166664.585 7 -12509273.521 7
  19841756.491   -18377237.130 7 -14125798.067 8
  20213576.358   -17505875.850 7 -13490354.642 8
  23059578.921    -2346876.460 3  -1418650.796 4
 95  2 14 17 35 59.9950000  0  7 25 15 18 14 22 29 19
  22391494.226     6661711.140 5   5182264.612 5
  22924985.851     8058350.651 3   6270149.026 1
  22150649.296    -8717003.657 5  -4589785.892 4
  18885324.257   -16208531.024 7 -12541896.739 7
  19832143.999   -18427735.587 7 -14165147.507 8
  20197432.429   -17590728.918 7 -13556473.927 8
  23035075.765    -2475646.626 4  -1518991.076 5
 95  2 14 17 36 29.9950000  0  7 25 15 18 14 22 29 19
  22400766.179     6710411.996 5   5220213.227 5
  22935724.890     8114777.619 5   6314117.934 1
  22128348.640    -8834197.905 5  -4681106.084 4
  18877461.296   -16249827.466 7 -12574075.809 7
  19822650.499   -18477642.656 7 -14204036.138 8
  20181313.523   -17675422.122 7 -13622468.643 8
  23010601.233    -2604256.570 4  -1619206.531 4
 95  2 14 17 36 59.9950000  0  7 25 15 18 14 22 29 19
  22410042.093     6759150.214 5   5258190.957 5
  22946453.319     8171164.034 5   6358055.255 1
  22106053.147    -8951370.376 5  -4772409.281 3
  18869719.726   -16290544.723 7 -12605803.568 8
  19813262.358   -18526954.353 7 -14242460.834 8
  20165227.171   -17759953.778 7 -13688337.472 8
  22986159.272    -2732690.822 4  -1719285.047 3
 95  2 14 17 37 29.9950000  0  7 25 15 18 14 22 29 19
  22419321.335     6807925.916 5   5296197.904 5
  22957176.608     8227521.164 5   6401969.746 2
  22083762.968    -9068502.411 5  -4863680.989 4
  18862079.983   -16330664.715 7 -12637065.925 7
  19804003.397   -18575640.418 7 -14280398.030 8
  20149171.101   -17844327.095 7 -13754082.926 8
  22961757.866    -2860928.464 5  -1819210.373 3
 95  2 14 17 37 59.9950000  0  7 25 15 18 14 22 29 19
  22428613.249     6856740.694 5   5334235.298 5
  22967897.007     8283832.170 5   6445848.299 2
  22061478.155    -9185601.387 5  -4954926.926 4
  18854560.812   -16370194.370 7 -12667868.282 7
  19794850.944   -18623713.552 7 -14317857.622 8
  20133138.733   -17928587.576 7 -13819740.450 8
  22937389.827    -2988982.070 4  -1918992.310 2
 95  2 14 17 38 29.9950000  0  7 25 15 18 14 22 29 19
  22437910.265     6905610.110 5   5372315.268 5
  22978600.358     8340106.859 5   6489698.573 1
  22039203.663    -9302655.066 5  -5046137.584 4
  18847149.546   -16409128.359 7 -12698206.482 7
  19785824.851   -18671159.753 7 -14354828.690 8
  20117122.608   -18012749.899 7 -13885321.493 8
  22913055.476    -3116837.342 4  -2018619.663 2
 95  2 14 17 38 59.9950000  0  7 25 15 18 14 22 29 19
  22447214.140     6954511.398 5   5410420.064 5
  22989303.866     8396341.559 5   6533517.655 2
  22016939.913    -9419667.581 5  -5137316.157 4
  18839855.108   -16447479.244 7 -12728090.319 7
  19776913.616   -18717970.668 7 -14391304.731 8
  20101124.413   -18096825.060 7 -13950834.616 8
  22888767.007    -3244491.627 4  -2118090.467 2
 95  2 14 17 39 29.9950000  0  7 25 15 18 14 22 29 19
  22456531.046     7003463.238 5   5448564.249 5
  22999997.312     8452533.097 4   6577303.134 2
  21994679.319    -9536640.300 5  -5228463.741 3
  18832662.077   -16485257.644 7 -12757528.065 7
  19768129.257   -18764149.194 7 -14427288.012 8
  20085139.460   -18180815.913 7 -14016282.045 8
  22864507.655    -3371959.049 3  -2217415.607 2
 95  2 14 17 39 59.9950000  0  7 25 15 18 14 22 29 19
  22465853.007     7052454.065 5   5486738.814 5
  23010678.843     8508665.124 4   6621042.228 2
  21972425.835    -9653580.675 5  -5319586.096 2
  18825581.733   -16522485.721 7 -12786536.988 7
  19759454.062   -18809722.956 7 -14462800.039 8
  20069175.077   -18264710.381 7 -14081654.371 8
  22840286.780    -3499261.032 3  -2316611.837 2
 95  2 14 17 40 29.9950000  0  7 25 15 18 14 22 29 19
  22475187.882     7101477.812 5   5524939.035 5
  23021349.194     8564748.730 3   6664743.577 4
  21950183.491    -9770483.672 5  -5410679.313 3
  18818601.608   -16559151.062 7 -12815107.415 7
  19750904.382   -18854676.333 7 -14497828.667 8
  20053236.265   -18348475.352 7 -14146925.791 8
  22816095.249    -3626387.979 3  -2415671.693 2
 95  2 14 17 40 59.9950000  0  7 25 15 18 14 22 29 19
  22484518.351     7150528.991 5   5563160.642 5
  23032012.132     8620775.097 3   6708400.332 2
  21927944.937    -9887353.524 5  -5501746.726 3
  18811731.999   -16595251.221 7 -12843237.444 7
  19742463.366   -18899016.925 7 -14532379.791 8
  20037324.702   -18432096.815 7 -14212085.387 8
  22791936.687    -3753343.369 3  -2514597.914 2
 95  2 14 17 41 29.9950000  0  7 25 15 18 14 22 29 19
  22493858.022     7199613.166 5   5601407.955 5
  23042664.007     8676745.307 3   6752013.311 4
  21905712.452   -10004166.830 5  -5592770.039 4
  18804973.858   -16630780.361 7 -12870922.525 8
  19734141.429   -18942740.675 7 -14566450.256 8
  20021442.733   -18515561.717 7 -14277122.991 8
  22767812.202    -3880111.959 3  -2613378.529 1
 95  2 14 17 41 59.9950000  0  7 25 15 18 14 22 29 19
  22503204.335     7248723.004 5   5639675.265 5
  23053302.710     8732656.577 3   6795580.403 4
  21883495.679   -10120920.388 5  -5683746.823 5
  18798318.804   -16665736.548 7 -12898161.147 7
  19725942.265   -18985848.656 7 -14600040.901 8
  20005589.554   -18598872.131 7 -14342040.210 8
  22743727.905    -4006669.688 3  -2711994.897 1
 95  2 14 17 42 29.9950000  0  7 25 15 18 14 22 29 19
  22512558.905     7297871.154 5   5677972.428 5
  23063933.022     8788505.339 3   6839098.736 3
  21861288.772   -10237620.741 5  -5774682.122 5
  18791773.772   -16700122.536 7 -12924955.463 8
  19717857.773   -19028336.282 7 -14633148.151 8
  19989759.765   -18682046.621 7 -14406851.511 8
  22719684.843    -4133001.363 3  -2810435.034 1
 95  2 14 17 42 59.9950000  0  7 25 15 18 14 22 29 19
  22521920.765     7347063.606 5   5716304.122 4
  23074545.319     8844286.662 3   6882564.514 2
  21839093.577   -10354263.506 5  -5865572.562 5
  18785341.663   -16733943.203 7 -12951309.267 7
  19709885.148   -19070203.816 7 -14665772.209 8
  19973958.398   -18765090.433 7 -14471560.998 8
  22695696.726    -4259102.402 3  -2908695.534 2
 95  2 14 17 43 29.9950000  0  7 25 15 18 14 22 29 19
  22531287.312     7396305.948 5   5754674.681 4
  23085150.991     8900002.852 2   6925979.599 1
  21816902.905   -10470862.588 5  -5956428.950 5
  18779017.046   -16767189.557 7 -12977215.551 7
  19702039.397   -19111434.599 7 -14697900.099 8
  19958178.358   -18848004.723 7 -14536169.554 8
  22671740.851    -4384970.322 3  -3006774.366 2
 95  2 14 17 43 59.9950000  0  7 25 15 18 14 22 29 19
  22540665.983     7445605.254 5   5793089.636 5
  23095742.523     8955653.274 2   6969343.416 2
  21794721.655   -10587431.293 5  -6047261.673 5
  18772800.601   -16799848.107 7 -13002663.806 7
  19694317.358   -19152029.440 7 -14729532.450 8
  19942426.179   -18930783.718 7 -14600672.685 8
  22647833.312    -4510623.293 3  -3104685.656 2
 95  2 14 17 44 29.9950000  0  7 25 15 18 14 22 29 19
  22550059.491     7494948.505 5   5831538.811 5
  23106313.132     9011231.768 2   7012651.182 2
  21772544.413   -10703963.614 5  -6138066.035 5
  18766698.108   -16831910.143 7 -13027647.246 7
  19686717.241   -19191979.759 7 -14760662.566 8
  19926700.960   -19013424.087 7 -14665067.796 8
  22623954.546    -4636091.177 3  -3202452.760 2
 95  2 14 17 44 59.9950000  0  7 25 15 18 14 22 29 19
  22559451.585     7544316.192 5   5870007.027 5
  23116872.077     9066731.434 2   7055897.531 1
  21750377.499   -10820462.058 5  -6228844.029 4
  18760710.765   -16863366.760 7 -13052158.928 7
  19679237.726   -19231290.155 7 -14791294.052 8
  19911000.358   -19095925.728 7 -14729354.801 8
  22600110.874    -4761397.202 3  -3300093.741 3
 95  2 14 17 45 29.9950000  0  7 25 15 18 14 22 29 19
  22568853.093     7593709.216 5   5908494.993 5
  23127432.210     9122154.994 3   7099084.588 1
  21728216.991   -10936916.052 5  -6319587.387 5
  18754840.522   -16894214.802 7 -13076196.400 7
  19671879.437   -19269957.648 7 -14821424.559 8
  19895327.819   -19178295.101 7 -14793538.747 8
  22576297.413    -4886531.650 3  -3397601.006 2
 95  2 14 17 45 59.9950000  0  7 25 15 18 14 22 29 19
  22578253.351     7643116.007 5   5946993.666 5
  23137959.148     9177499.417 3   7142209.946 2
  21706068.491   -11053302.001 5  -6410277.698 5
  18749083.898   -16924460.849 7 -13099764.781 7
  19664639.968   -19308003.456 7 -14851070.649 8
  19879678.015   -19260531.129 7 -14857618.785 8
  22552516.483    -5011488.915 3  -3494970.230 2
 95  2 14 17 46 29.9950000  0  7 25 15 18 14 22 29 19
  22587659.022     7692534.464 5   5985501.449 5
  23148468.062     9232760.791 3   7185270.667 2
  21683934.257   -11169623.174 5  -6500917.550 4
  18743441.897   -16954114.165 7 -13122871.298 7
  19657515.608   -19345435.337 7 -14880238.347 8
  19864052.944   -19342639.727 7 -14921599.527 8
  22528779.304    -5136251.821 4  -3592188.004 3
 95  2 14 17 46 59.9950000  0  7 25 15 18 14 22 29 19
  22597063.937     7741970.072 5   6024022.589 5
  23158972.976     9287933.930 3   7228262.556 2
  21661806.124   -11285891.325 5  -6591516.110 4
  18737910.351   -16983182.490 7 -13145521.977 7
  19650506.765   -19382259.028 7 -14908932.137 8
  19848452.960   -19424623.123 7 -14985482.708 8
  22505075.257    -5260803.885 5  -3689241.517 2
 95  2 14 17 47 29.9950000  0  7 25 15 18 14 22 29 19
  22606473.108     7791417.905 5   6062553.249 5
  23169454.687     9343013.342 3   7271181.410 1
  21639691.991   -11402099.748 5  -6682068.135 4
  18732490.679   -17011664.543 7 -13167715.816 7
  19643615.976   -19418472.686 7 -14937150.582 8
  19832875.890   -19506472.310 7 -15049261.306 8
  22481412.054    -5385131.388 5  -3786120.048 3
 95  2 14 17 47 59.9950000  0  7 25 15 18 14 22 29 19
  22615893.694     7840886.657 5   6101100.217 2
  23179916.358     9398004.938 3
  21617591.343   -11518249.321 5  -6772574.309 4
  18727187.429   -17039543.029 7 -13189439.346 7
  19636841.788   -19454068.398 7 -14964887.502 8
  19817331.585   -19588162.912 7 -15112916.333 8
  22457800.663    -5509236.670 5  -3882825.412 4
 95  2 14 17 48 29.9950000  0  7 25 15 18 14 22 29 19
  22625306.319     7890367.228 5   6139656.397 4
  23190358.944     9452891.283 3        -0.14711
  21595494.499   -11634370.050 5  -6863057.998 4
  18721991.437   -17066838.026 7 -13210708.207 7
  19630188.374   -19489037.400 7 -14992136.079 8
  19801815.335   -19669705.222 7 -15176455.807 8
  22434219.335    -5633148.312 5  -3979379.890 3
 95  2 14 17 48 59.9950000  0  7 25 15 18 14 22 29 19
  22634725.921     7939861.449 5   6178223.229 5
  23200788.054     9507679.996 3     42692.223 1
  21573405.929   -11750450.872 5  -6953510.570 5
  18716909.163   -17093546.398 7 -13231519.958 7
  19623657.257   -19523358.251 7 -15018879.610 8
  19786328.562   -19751087.839 7 -15239870.852 8
  22410678.437    -5756865.841 5  -4075783.127 3
 95  2 14 17 49 29.9950000  0  7 25 15 18 14 22 29 19
  22644150.593     7989370.358 5   6216801.474 5
  23211190.733     9562373.953 3     85310.721 1
  21551322.983   -11866499.782 5  -7043938.277 5
  18711938.444   -17119667.798 7 -13251874.325 8
  19617247.937   -19557044.532 7 -15045128.679 8
  19770874.546   -19832301.407 7 -15303154.169 8
  22387166.366    -5880397.618 5  -4172041.647 5
 95  2 14 17 49 59.9950000  0  7 25 15 18 14 22 29 19
  22653567.288     8038885.450 5   6255384.564 5
  23221584.226     9616958.733 3
  21529237.749   -11982553.137 5  -7134369.468 4
  18707073.538   -17145231.479 7 -13271794.109 7
  19610952.296   -19590125.110 7 -15070905.761 8
  19755448.022   -19913369.660 7 -15366324.250 8
  22363691.554    -6003763.093 5  -4268170.539 2
 95  2 14 17 50 29.9940000  0  7 25 15 18 14 22 29 19
  22662993.494     8088401.643 5   6293968.506 4
  23231951.393     9671423.455 3
  21507153.869   -12098601.905 5  -7224797.070 4
  18702316.252   -17170241.048 7 -13291282.114 8
  19604768.963   -19622603.213 7 -15096213.387 8
  19740046.611   -19994298.090 7 -15429385.381 8
  22340247.682    -6126958.162 4  -4364166.663 3
 95  2 14 17 50 59.9940000  0  7 25 15 18 14 22 29 19
  22672414.166     8137927.834 5   6332560.230 3
  23242291.994     9725784.035 3
  21485079.494   -12214625.112 5  -7315204.738 3
  18697670.744   -17194662.698 7 -13310312.000 7
  19598702.854   -19654477.587 7 -15121050.574 8
  19724674.580   -20075076.136 7 -15492329.320 8
  22316848.158    -6249956.364 4  -4460009.369 4
 95  2 14 17 51 29.9940000  0  6 25 18 14 22 29 19
  22681843.072     8187454.237 5   6371152.128 4
  21463004.963   -12330605.686 5  -7405579.210 4
  18693137.299   -17218486.609 7 -13328876.112 8
  19592752.275   -19685748.761 7 -15145417.729 8
  19709335.291   -20155694.235 7 -15555148.638 8
  22293479.900    -6372744.397 3  -4555688.317 3
 95  2 14 17 51 59.9940000  0  6 25 18 14 22 29 19
  22691262.236     8236972.934 5   6409738.028 4
  21440951.471   -12446512.318 5  -7495896.043 4
  18688716.127   -17241711.423 7 -13346973.401 8
  19586921.682   -19716390.392 7 -15169294.334 8
  19694022.369   -20236166.388 7 -15617854.234 8
  22270151.572    -6495303.158 3  -4651188.615 1
 95  2 14 17 52 29.9940000  0  6 25 18 14 22 29 19
  22700683.713     8286465.780 5   6448303.776 5
  21418911.900   -12562336.712 5  -7586148.807 5
  18684406.158   -17264345.450 7 -13364610.329 8
  19581216.580   -19746392.020 7 -15192672.242 8
  19678733.822   -20316504.822 7 -15680455.634 8
  22246875.783    -6617639.461 3  -4746515.562 4
 95  2 14 17 52 59.9940000  0  6 25 18 14 22 29 19
  22710095.994     8335939.341 5   6486854.490 5
  21396883.697   -12678077.452 5  -7676336.405 4
  18680212.596   -17286394.772 7 -13381791.645 8
  19575628.635   -19775746.028 7 -15215545.504 8
  19663472.557   -20396699.102 7 -15742944.705 8
  22223640.900    -6739742.227 4  -4841660.514 3
 95  2 14 17 53 29.9940000  0  6 25 18 14 22 29 19
  22719518.471     8385427.028 5   6525416.217 4
  21374877.424   -12793723.385 5  -7766450.105 4
  18676130.690   -17307861.292 7 -13398518.828 8
  19570165.158   -19804439.644 7 -15237904.187 8
  19648241.627   -20476741.692 7 -15805315.565 8
  22200453.814    -6861603.172 4  -4936617.084 2
 95  2 14 17 53 59.9940000  0  6 25 18 14 22 29 19
  22728933.752     8434940.744 5   6563998.240 5
  21352883.674   -12909303.132 5  -7856512.247 5
  18672150.541   -17328752.112 7 -13414797.415 7
  19564831.260   -19832491.431 7 -15259762.737 8
  19633033.502   -20556662.037 7 -15867591.173 8
  22177308.635    -6983236.455 5  -5031396.202 3
 95  2 14 17 54 29.9940000  0  6 25 18 14 22 29 19
  22738363.182     8484480.413 5   6602600.485 4
  21330898.877   -13024836.529 5  -7946538.280 4
  18668288.994   -17349060.584 7 -13430622.217 7
  19559613.143   -19859912.216 7 -15281129.599 8
  19617849.822   -20636453.217 7 -15929766.140 8
  22154200.408    -7104661.070 4  -5126012.760 1
 95  2 14 17 54 59.9940000  0  6 25 18 14 22 29 19
  22747795.330     8534039.509 5   6641217.863 4
  21308923.994   -13140317.559 5  -8036523.504 5
  18664537.643   -17368776.577 7 -13445985.357 7
  19554509.166   -19886723.680 7 -15302021.666 8
  19602689.190   -20716118.601 7 -15991843.076 8
  22131133.893    -7225884.841 5  -5220472.781 2
 95  2 14 17 55 29.9940000  0  6 25 18 14 22 29 19
  22757226.619     8583617.927 5   6679850.314 5
  21286959.635   -13255735.892 5  -8126459.872 5
  18660900.072   -17387876.639 7 -13460868.545 8
  19549527.111   -19912919.609 7 -15322434.101 8
  19587553.299   -20795659.396 7 -16053822.936 9
  22108100.604    -7346899.536 5  -5314769.894 2
 95  2 14 17 55 59.9940000  0  6 25 18 14 22 29 19
  22766661.627     8633186.765 5   6718475.289 4
  21265005.471   -13371094.805 5  -8216349.938 5
  18657385.752   -17406363.646 7 -13475274.028 8
  19544655.221   -19938501.918 7 -15342368.391 8
  19572441.189   -20875075.519 7 -16115705.638 9
  22085111.627    -7467718.539 5  -5408914.488 2
 95  2 14 17 56 29.9940000  0  6 25 18 14 22 29 19
  22776088.361     8682702.371 5   6757058.788 4
  21243067.697   -13486396.160 5  -8306195.143 4
  18653974.236   -17424277.478 7 -13489232.887 8
  19539901.424   -19963495.365 7 -15361843.829 8
  19557353.041   -20954358.382 7 -16177484.507 9
  22062153.291    -7588371.181 5  -5502929.427 1
 95  2 14 17 56 59.9940000  0  6 25 18 14 22 29 19
  22785497.596     8732184.978 5   6795616.582 3
  21221140.564   -13601620.085 6  -8395980.023 5
  18650675.268   -17441618.089 7 -13502745.077 8
  19535257.057   -19987898.325 7 -15380859.156 8
  19542297.018   -21033483.392 7 -16239140.375 9
  22039227.674    -7708835.809 5  -5596797.899 3
 95  2 14 17 57 29.9940000  0  6 25 18 14 22 29 19
  22794911.611     8781652.084 5   6834162.275 4
  21199226.916   -13716776.934 6  -8485712.639 5
  18647485.510   -17458386.672 7 -13515811.538 8
  19530726.197   -20011696.588 7 -15399403.291 8
  19527274.455   -21112429.369 7 -16300656.745 9
  22016343.775    -7829110.936 5  -5690518.668 3
 95  2 14 17 57 59.9940000  0  6 25 18 14 22 29 19
  22804320.533     8831102.870 5   6872695.275 3
  21177321.916   -13831876.149 6  -8575400.340 5
  18644397.096   -17474604.526 7 -13528448.853 7
  19526314.541   -20034899.230 7 -15417483.298 8
  19512287.439   -21191189.899 7 -16362028.586 9
  21993490.322    -7949210.909 5  -5784103.005 3
 95  2 14 17 58 29.9940000  0  6 25 18 14 22 29 19
  22813730.486     8880550.582 5   6911225.880 4
  21155429.791   -13946923.416 5  -8665047.566 5
  18641420.697   -17490264.558 7 -13540651.506 7
  19522008.088   -20057505.295 7 -15435098.433 8
  19497335.510   -21269759.145 7 -16423251.390 9
  21970667.588    -8069129.937 5  -5877546.288 2
 95  2 14 17 58 59.9940000  0  6 25 18 14 22 29 19
  22823152.049     8930026.797 5   6949778.694 4
  21133548.775   -14061924.213 6  -8754658.565 5
  18638549.713   -17505332.806 7 -13552393.032 7
  19517828.197   -20079489.217 7 -15452228.792 8
  19482421.049   -21348128.782 7 -16484318.651 9
  21947885.049    -8188835.540 5  -5970823.332 5
 95  2 14 17 59 29.9940000  0  6 25 18 14 22 29 19
  22832567.166     8979517.708 5   6988342.944 4
  21111669.611   -14176890.209 6  -8844242.458 5
  18635795.393   -17519812.916 7 -13563676.273 7
  19513761.963   -20100846.896 7 -15468871.162 8
  19467544.689   -21426310.445 7 -16545239.439 9
  21925149.729    -8308330.389 5  -6063936.114 4
 95  2 14 17 59 59.9940000  0  6 25 18 14 22 29 19
  22841984.729     9028999.883 5   7026900.384 3
  21089800.768   -14291821.325 6  -8933799.158 5
  18633148.729   -17533720.712 7 -13574513.552 7
  19509816.791   -20121582.503 7 -15485028.788 8
  19452698.939   -21504326.157 7 -16606030.919 9
  21902446.119    -8427612.302 5  -6156883.006 5
 95  2 14 18  0 29.9940000  0  6 25 18 14 22 29 19
  22851397.197     9078475.838 4   7065452.994 4
  21067939.939   -14406702.870 5  -9023317.256 5
  18630613.697   -17547032.814 7 -13584886.653 7
  19505993.736   -20141686.206 7 -15500694.019 8
  19437886.377   -21582168.292 7 -16666687.137 9
  21879792.752    -8546661.258 5  -6249648.365 5
 95  2 14 18  0 59.9940000  0  6 25 18 14 22 29 19
  22860815.330     9127934.196 5   7103991.891 2
  21046087.580   -14521536.253 5  -9112797.799 5
  18628195.900   -17559762.456 7 -13594805.888 7
  19502282.830   -20161167.456 7 -15515874.222 8
  19423103.041   -21659854.388 7 -16727221.770 9
  21857180.815    -8665485.199 5  -6342238.430 5
 95  2 14 18  1 29.9940000  0  6 25 18 14 22 29 19
  22870217.479     9177361.754 5   7142506.805 3
  21024247.861   -14636295.201 6  -9202220.370 5
  18625879.830   -17571906.657 7 -13604268.934 7
  19498699.338   -20180020.443 7 -15530564.872 8
  19408346.565   -21737398.228 7 -16787645.554 9
  21834608.674    -8784099.560 5  -6434665.189 5
 95  2 14 18  1 59.9940000  0  6 25 18 14 22 29 19
  22879621.736     9226760.356 5   7180999.174 4
  21002424.330   -14750969.308 6  -9291576.819 5
  18623683.330   -17583460.490 7 -13613271.961 7
  19495228.354   -20198252.709 7 -15544771.838 8
  19393615.244   -21814804.925 7 -16847962.472 9
  21812079.736    -8902501.674 5  -6526926.594 5
 95  2 14 18  2 29.9940000  0  5 18 14 22 29 19
  20980618.752   -14865561.251 6  -9380869.252 5
  18621599.080   -17594429.497 7 -13621819.280 7
  19491870.963   -20215885.046 7 -15558511.325 8
  19378913.033   -21892074.532 7 -16908172.565 9
  21789587.072    -9020695.084 5  -6619025.347 5
 95  2 14 18  2 59.9940000  0  5 18 14 22 29 19
  20958829.658   -14980066.350 6  -9470094.016 5
  18619617.885   -17604822.892 7 -13629918.062 7
  19488633.690   -20232912.575 7 -15571779.536 8
  19364233.096   -21969216.778 7 -16968283.417 9
  21767134.424    -9138688.143 5  -6710968.004 4
 95  2 14 18  3 29.9940000  0  5 18 14 22 29 19
  20937057.666   -15094479.448 6  -9559247.064 5
  18617751.486   -17614633.823 7 -13637562.979 7
  19485510.963   -20249328.711 7 -15584571.337 8
  19349579.518   -22046219.304 7 -17028285.398 9
  21744723.807    -9256464.207 5  -6802741.568 5
 95  2 14 18  3 59.9940000  0  5 18 14 22 29 19
  20915297.775   -15208833.311 6  -9648353.981 5
  18615993.627   -17623891.434 7 -13644776.743 7
  19482494.314   -20265155.748 7 -15596904.102 8
  19334954.666   -22123076.749 7 -17088174.336 9
  21722354.760    -9374027.687 5  -6894349.485 4
 95  2 14 18  4 29.9940000  0  5 18 14 22 29 19
  20893546.869   -15323136.120 6  -9737421.110 5
  18614337.111   -17632593.249 7 -13651557.413 7
  19479598.432   -20280382.831 7 -15608769.365 8
  19320356.721   -22199784.559 7 -17147946.673 9
  21700019.713    -9491396.974 5  -6985806.081 5
 95  2 14 18  4 59.9940000  0  5 18 14 22 29 19
  20871803.143   -15437393.178 6  -9826452.591 5
  18612783.557   -17640733.960 7 -13657900.864 7
  19476821.221   -20294992.534 7 -15620153.553 8
  19305792.049   -22276331.585 7 -17207593.720 9
  21677718.916    -9608571.272 5  -7077110.726 4
 95  2 14 18  5 29.9940000  0  5 18 14 22 29 19
  20850068.361   -15551630.628 6  -9915468.778 5
  18611339.057   -17648326.590 7 -13663817.241 7
  19474155.018   -20309004.652 7 -15631072.105 8
  19291256.924   -22352705.158 7 -17267105.613 9
  21655457.705    -9725549.166 5  -7168262.293 4
 95  2 14 18  5 59.9940000  0  5 18 14 22 29 19
  20828336.455   -15665822.077 6 -10004449.131 5
  18610002.619   -17655352.423 7 -13669291.951 7
  19471600.689   -20322413.853 7 -15641520.851 8
  19276760.846   -22428882.221 7 -17326464.384 9
  21633238.408    -9842317.355 5  -7259250.482 4
 95  2 14 18  6 29.9940000  0  5 18 14 22 29 19
  20806616.877   -15779950.664 6 -10093380.498 5
  18608777.291   -17661795.454 7 -13674312.533 7
  19469161.455   -20335230.452 7 -15651507.845 8
  19262303.057   -22504864.278 7 -17385671.204 9
  21611061.705    -9958867.262 5  -7350068.552 5
 95  2 14 18  6 59.9940000  0  6  4 18 14 22 29 19
  23028974.986          -0.24612
  20784915.111   -15894009.992 6 -10182257.903 5
  18607664.947   -17667653.804 7 -13678877.520 8
  19466832.768   -20347459.385 7 -15661036.916 8
  19247883.533   -22580640.916 7 -17444717.949 9
  21588928.502   -10075170.485 5  -7440694.421 3
 95  2 14 18  7 29.9940000  0  6  4 18 14 22 29 19
  23020740.752      -43272.594 3
  20763225.416   -16007979.841 6 -10271065.581 5
  18606663.221   -17672917.894 7 -13682979.446 8
  19464615.869   -20359113.683 7 -15670118.210 8
  19233501.752   -22656213.043 7 -17503605.339 9
  21566847.346   -10191222.923 5  -7531124.828 3
 95  2 14 18  7 59.9940000  0  6  4 18 14 22 29 19
  23012596.924      -86063.895 3        -0.27712
  20741554.041   -16121848.709 6 -10359794.566 5
  18605771.143   -17677595.592 7 -13686624.445 8
  19462508.447   -20370192.338 7 -15678750.955 8
  19219155.932   -22731602.689 7 -17562350.540 9
  21544805.096   -10307043.914 5  -7621374.919 5
 95  2 14 18  8 29.9940000  0  6  4 18 14 22 29 19
  23004546.846     -128353.547 3    -32953.321 2
  20719907.064   -16235615.254 6 -10448443.820 6
  18604992.893   -17681678.347 7 -13689805.860 8
  19460517.791   -20380666.854 7 -15686912.954 8
  19204845.900   -22806800.935 7 -17620946.597 9
  21522809.244   -10422632.143 5  -7711443.587 4
 95  2 14 18  8 59.9940000  0  6  4 18 14 22 29 19
  22996597.494     -170143.172 3    -65516.724 2
  20698277.143   -16349289.384 6 -10537021.074 5
  18604326.299   -17685186.751 7 -13692539.727 8
  19458640.815   -20390532.093 7 -15694600.187 8
  19190572.408   -22881806.903 7 -17679392.825 9
  21500854.580   -10538006.478 5  -7801345.638 4
 95  2 14 18  9 29.9940000  0  6  4 18 14 22 29 19
  22988729.408     -211426.285 2    -97685.432 2
  20676664.088   -16462862.666 6 -10625519.749 5
  18603761.643   -17688135.939 7 -13694837.842 8
  19456877.471   -20399792.349 7 -15701816.015 8
  19176338.096   -22956623.807 7 -17737691.723 9
  21478939.244   -10653180.937 5  -7891091.925 4
 95  2 14 18  9 59.9930000  0  6  4 18 14 22 29 19
  22980976.481     -252205.500 3   -129461.495 1
  20655069.606   -16576341.595 6 -10713944.900 5
  18603311.130   -17690518.692 7 -13696694.574 8
  19455232.771   -20408433.450 7 -15708549.376 8
  19162134.435   -23031253.039 7 -17795844.386 9
  21457060.099   -10768146.788 5  -7980675.659 4
 95  2 14 18 10 29.9930000  0  6  4 18 14 22 29 19
  22973312.981     -292509.627 3   -160867.400 1
  20633489.583   -16689749.126 6 -10802314.405 6
  18602966.903   -17692327.636 7 -13698104.197 8
  19453702.427   -20416469.194 7 -15714811.041 8
  19147968.896   -23105697.373 7 -17853852.973 9
  21435224.638   -10882906.130 5  -8070098.495 4
 95  2 14 18 10 59.9930000  0  6  4 18 14 22 29 19
  22965727.458     -332352.334 3   -191913.672 1
  20611922.521   -16803073.648 6 -10890619.235 6
  18602732.661   -17693558.428 7 -13699063.298 8
  19452285.685   -20423917.038 7 -15720614.596 8
  19133836.810   -23179955.303 7 -17911716.313 9
  21413425.278   -10997434.394 5  -8159341.261 3
 95  2 14 18 11 29.9930000  0  6  4 18 14 22 29 19
  22958234.630     -371734.779 2   -222601.355 2
  20590376.341   -16916316.708 6 -10978860.570 6
  18602614.396   -17694189.262 7 -13699554.901 8
  19450979.177   -20430778.122 7 -15725960.931 8
  19119742.192   -23254028.872 7 -17969435.996 9
  21391680.614   -11111715.345 5  -8248391.351 5
 95  2 14 18 11 59.9930000  0  6  4 18 14 22 29 19
  22950831.919     -410638.030 3   -252915.646 1
  20568842.161   -17029469.339 6 -11067031.457 6
  18602612.263   -17694202.606 7
  19449786.974   -20437035.138 7 -15730836.571 8
  19105683.528   -23327910.189 7 -18027005.859 9
  21369984.263   -11225736.223 5  -8337238.728 4
 95  2 14 18 12 29.9930000  0  6  4 18 14 22 29 19
  22943518.544     -449076.499 1   -282867.756 1
  20547327.052   -17142537.303 6 -11155136.377 6
  18602720.419   -17693643.513 7
  19448706.341   -20442716.405 7 -15735263.587 8
  19091659.138   -23401601.104 7 -18084427.363 9
  21348334.060   -11339519.437 5  -8425900.958 5
 95  2 14 18 12 59.9930000  0  6  4 18 14 22 29 19
  22936297.528     -487026.611 3   -312439.300 2
  20525830.185   -17255497.154 6 -11243157.051 6
  18602933.622   -17692525.010 7 -13698258.228 8
  19447738.911   -20447798.274 7 -15739223.522 8
  19077674.216   -23475094.277 7 -18141694.785 9
  21326724.489   -11453064.600 5  -8514377.690 4
 95  2 14 18 13 29.9930000  0  6  4 18 14 22 29 19
  22929166.810     -524474.098 2   -341619.273 1
  20504354.888   -17368350.234 6 -11331094.508 6
  18603246.935   -17690858.509 7 -13696959.708 8
  19446888.333   -20452265.939 7 -15742704.867 8
  19063725.560   -23548392.404 7 -18198810.222 9
  21305157.591   -11566393.601 5  -8602685.990 5
 95  2 14 18 13 59.9930000  0  6  4 18 14 22 29 19
  22922138.481     -561408.895 2   -370399.682 1
  20482904.169   -17481077.949 6 -11418934.299 6
  18603671.716   -17688646.821 7 -13695236.363 8
  19446157.341   -20456104.985 7 -15745696.369 8
  19049817.466   -23621481.327 7 -18255762.642 9
  21283634.325   -11679506.228 5  -8690825.710 5
 95  2 14 18 14 29.9930000  0  5 18 14 22 29 19
  20461477.466   -17593671.196 6 -11506669.307 6
  18604194.888   -17685874.057 7 -13693075.816 8
  19445553.122   -20459309.799 7 -15748193.661 8
  19035950.927   -23694350.184 7 -18312543.578 9
  21262152.575   -11792397.640 5  -8778793.009 4
 95  2 14 18 14 59.9930000  0  5 18 14 22 29 19
  20440074.075   -17706157.645 6
  18604830.036   -17682533.107 7 -13690472.524 8
  19445056.442   -20461905.018 7 -15750215.949 8
  19022123.325   -23767022.179 7 -18369171.125 9
  21240710.638   -11905079.796 5
 95  2 14 18 15 29.9930000  0  5 18 14 22 29 19
  20418683.981   -17818552.945 6
  18605575.974   -17678618.956 7 -13687422.580 8
  19444677.114   -20463928.053 7 -15751792.374 8
  19008328.739   -23839506.111 7 -18425652.129 9
  21219301.169   -12017554.763 5
 95  2 14 18 15 59.9930000  0  5 18 14 22 29 19
  20397317.778   -17930841.103 6
  18606431.192   -17674117.420 7 -13683914.945 8
  19444396.521   -20465375.687 7 -15752920.434 8
  18994574.060   -23911785.557 7 -18481973.796 9
  21197945.185   -12129790.457 5
 95  2 14 18 16 29.9930000  0  5 18 14 22 29 19
  20375966.028   -18043035.461 6 -11856823.298 6
  18607404.505   -17669029.640 7 -13679950.475 8
  19444227.966   -20466256.983 7 -15753607.193 8
  18980859.958   -23983859.530 7 -18538135.343 9
  21176639.622   -12241776.770 5  -9128958.553 5
 95  2 14 18 16 59.9930000  0  5 18 14 22 29 19
  20354631.099   -18155152.633 6 -11944187.336 6
  18608482.067   -17663362.962 7 -13675534.930 8
  19444165.606   -20466586.207 7
  18967183.411   -24055724.809 7 -18594134.286 9
  21155374.825   -12353513.411 5  -9216026.059 5
 95  2 14 18 17 29.9930000  0  5 18 14 22 29 19
  20333313.028   -18267187.128 6 -12031486.942 6
  18609666.896   -17657128.210 7 -13670676.730 8
  19444208.981   -20466341.005 7
  18953546.653   -24127385.632 7 -18649973.909 9
  21134158.466   -12465006.775 5  -9302903.992 5
 95  2 14 18 17 59.9930000  0  5 18 14 22 29 19
  20312005.841   -18379143.529 6 -12118725.690 6
  18610958.880   -17650337.269 7 -13665385.134 8
  19444367.731   -20465507.416 7 -15753023.219 8
  18939951.896   -24198831.971 7 -18705646.397 9
  21112987.630   -12576267.473 5  -9389600.639 5
 95  2 14 18 18 29.9930000  0  5 18 14 22 29 19
  20290722.161   -18491003.924 6 -12205889.639 6
  18612357.231   -17642976.004 7 -13659649.138 8
  19444645.685   -20464075.772 7 -15751907.683 8
  18926402.114   -24270038.421 7 -18761131.955 9
  21091857.450   -12687297.992 5  -9476117.906 5
 95  2 14 18 18 59.9930000  0  5 18 14 22 29 19
  20269458.286   -18602751.863 6 -12292965.956 6
  18613864.356   -17635060.032 7 -13653480.886 8
  19445031.208   -20462050.317 7 -15750329.440 8
  18912895.856   -24341010.150 7 -18816434.625 9
  21070775.356   -12798104.687 5  -9562460.775 5
 95  2 14 18 19 29.9930000  0  5 18 14 22 29 19
  20248217.411   -18714365.170 6 -12379937.362 6
  18615473.122   -17626609.741 7 -13646896.291 8
  19445528.997   -20459425.544 7 -15748284.201 8
  18899435.005   -24411748.513 7 -18871555.452 9
  21049728.849   -12908690.383 5  -9648631.429 5
 95  2 14 18 19 59.9930000  0  5 18 14 22 29 19
  20227004.864   -18825846.404 6 -12466805.869 6
  18617184.997   -17617627.669 7 -13639897.321 8
  19446136.841   -20456222.278 7 -15745788.194 8
  18886017.224   -24482260.413 7 -18926499.811 9
  21028726.716   -13019052.371 5  -9734627.758 5
 95  2 14 18 20 29.9930000  0  5 18 14 22 29 19
  20205810.896   -18937213.438 6 -12553585.367 6
  18618992.122   -17608120.997 7 -13632489.571 8
  19446852.200   -20452462.012 7 -15742858.160 8
  18872636.442   -24552577.060 7 -18981292.030 9
  21007766.755   -13129193.456 5  -9820451.961 5
 95  2 14 18 20 59.9930000  0  5 18 14 22 29 19
  20184642.872   -19048454.075 6 -12640266.392 6
  18620904.896   -17598062.615 7 -13624651.918 8
  19447685.075   -20448113.957 7 -15739470.107 8
  18859295.138   -24622685.029 7 -19035921.645 9
  20986856.114   -13239076.204 5  -9906074.842 5
 95  2 14 18 21 29.9930000  0  5 18 14 22 29 19
  20163494.442   -19159583.311 6 -12726860.591 6
  18622927.700   -17587445.948 7 -13616379.240 8
  19448619.536   -20443183.163 7 -15735627.972 8
  18845991.833   -24692594.496 7 -19090396.574 9
  20965996.794   -13348706.820 5  -9991501.267 5
 95  2 14 18 21 59.9930000  0  5 18 14 22 29 19
  20142367.880   -19270605.398 6 -12813371.327 6
  18625057.544   -17576252.997 7 -13607657.509 8
  19449666.114   -20437672.524 7 -15731334.004 8
  18832728.864   -24762299.623 7 -19144712.267 9
  20945181.802   -13458075.432 5 -10076723.525 5
 95  2 14 18 22 29.9930000  0  5 18 14 22 29 19
  20121262.786   -19381518.514 6 -12899797.131 6
  18627291.833   -17564491.916 7 -13598493.081 7
  19450829.060   -20431583.830 7 -15726589.604 8
  18819508.013   -24831777.330 7 -19198850.772 9
  20924418.005   -13567183.939 5 -10161743.127 5
 95  2 14 18 22 59.9930000  0  5 18 14 22 29 19
  20100179.638   -19492311.712 6 -12986129.496 6
  18629638.739   -17552172.693 7 -13588893.732 8
  19452093.505   -20424930.502 7 -15721405.242 8
  18806327.731   -24901029.331 7 -19252813.396 9
  20903704.606   -13676043.672 5 -10246568.866 5
 95  2 14 18 23 29.9930000  0  5 18 14 22 29 19
  20079120.935   -19602970.026 6 -13072356.775 6
  18632088.958   -17539309.403 7 -13578870.440 8
  19453460.708   -20417731.146 7 -15715795.402 7
  18793193.685   -24970054.268 7 -19306599.088 9
  20883036.255   -13784671.358 5 -10331213.791 5
 95  2 14 18 23 59.9930000  0  5 18 14 22 29 19
  20058090.974   -19713491.389 6 -13158477.327 6
  18634637.614   -17525900.440 7 -13568421.950 8
  19454940.169   -20409981.263 7 -15709756.581 8
  18780103.466   -25038839.723 7 -19360198.163 9
  20862405.021   -13893071.729 5 -10415681.613 5
 95  2 14 18 24 29.9930000  0  5 18 14 22 29 19
  20037084.802   -19823870.809 6 -13244487.270 6
  18637293.599   -17511943.038 7 -13557546.110 8
  19456517.927   -20401684.506 7 -15703291.624 8
  18767061.185   -25107382.078 7 -19413607.813 9
  20841820.630   -14001242.717 5 -10499970.681 5
 95  2 14 18 24 59.9930000  0  5 18 14 22 29 19
  20016107.278   -19934107.252 6 -13330385.795 6
  18640057.200   -17497439.284 7 -13546244.542 8
  19458197.708   -20392843.965 7 -15696402.930 7
  18754062.294   -25175689.197 7 -19466834.153 9
  20821284.567   -14109184.191 5 -10584080.903 5
 95  2 14 18 25 29.9930000  0  5 18 14 22 29 19
  19995155.911   -20044220.557 6 -13416188.379 6
  18642914.567   -17482406.156 7 -13534530.476 8
  19459982.591   -20383468.582 7 -15689097.476 8
  18741109.763   -25243756.782 7 -19519873.842 9
  20800782.544   -14216914.993 5 -10668026.954 5
 95  2 14 18 25 59.9930000  0  5 18 14 22 29 19
  19974221.216   -20154211.349 6 -13501895.493 6
  18645881.630   -17466818.991 7 -13522384.682 8
  19461874.067   -20373539.820 7 -15681360.817 7
  18728204.763   -25311571.383 7 -19572716.402 9
  20780323.146   -14324414.117 5 -10751792.494 5
 95  2 14 18 26 29.9930000  0  5 18 14 22 29 19
  19953318.739   -20264067.465 6 -13587497.675 6
  18648955.817   -17450674.979 7 -13509804.997 8
  19463863.942   -20363059.848 7 -15673194.642 7
  18715349.294   -25379129.358 7 -19625358.996 9
  20759915.903   -14431674.882 5 -10835372.288 5
 95  2 14 18 26 59.9930000  0  5 18 14 22 29 19
  19932436.403   -20373798.219 6 -13673002.167 6
  18652127.958   -17433987.259 7 -13496801.636 8
  19465965.974   -20352031.351 7 -15664601.040 7
  18702539.692   -25446448.546 7 -19677815.514 9
  20739546.989   -14538719.745 5 -10918783.869 5
 95  2 14 18 27 29.9930000  0  5 18 14 22 29 19
  19911584.005   -20483399.111 6 -13758405.449 6
  18655409.450   -17416746.042 7 -13483366.991 8
  19468171.224   -20340449.536 7 -15655576.283 8
  18689771.114   -25513541.065 7 -19730095.411 9
  20719216.349   -14645550.719 6 -11002028.768 5
 95  2 14 18 27 59.9930000  0  5 18 14 22 29 19
  19890746.489   -20592883.098 6 -13843717.643 6
  18658794.341   -17398973.673 7 -13469518.441 8
  19470476.606   -20328322.770 7 -15646126.886 8
  18677041.247   -25580433.245 7 -19782219.187 9
  20698924.356   -14752171.975 5 -11085110.239 5
 95  2 14 18 28 29.9930000  0  5 18 14 22 29 19
  19869934.060   -20702259.993 6 -13928946.388 6
  18662267.200   -17380705.359 7 -13455283.461 8
  19472885.708   -20315672.273 7 -15636269.383 8
  18664347.466   -25647145.297 7 -19834202.609 9
  20678672.817   -14858604.015 5 -11168044.294 5
 95  2 14 18 28 59.9930000  0  5 18 14 22 29 19
  19849142.622   -20811518.668 6 -14014083.008 6
  18665838.271   -17361947.378 7 -13440666.909 8
  19475394.294   -20302490.305 7 -15625997.746 7
  18651688.536   -25713668.212 7 -19886038.645 9
  20658454.458   -14964829.744 5 -11250817.580 5
 95  2 14 18 29 29.9920000  0  5 18 14 22 29 19
  19828377.211   -20920643.944 6 -14099115.685 6
  18669504.180   -17342691.599 7 -13425662.467 8
  19478004.844   -20288766.703 7 -15615304.049 7
  18639067.719   -25779982.357 7 -19937712.004 9
  20638288.523   -15070823.375 6 -11333409.990 5
 95  2 14 18 29 59.9920000  0  5 18 14 22 29 19
  19807636.578   -21029633.671 6 -14184042.735 6
  18673262.406   -17322921.237 7 -13410257.047 8
  19480725.203   -20274488.021 7 -15604177.831 8
  18626495.266   -25846054.273 7 -19989196.614 9
  20618163.399   -15176575.583 6 -11415814.292 5
 95  2 14 18 30 29.9920000  0  5 18 14 22 29 19
  19786925.102   -21138471.215 6 -14268851.212 6
  18677131.695   -17302609.920 7 -13394430.111 8
  19483542.141   -20259653.768 7 -15592618.695 8
  18613974.070   -25911860.088 7 -20040473.874 9
  20598088.727   -15282063.192 6 -11498012.425 5
 95  2 14 18 30 59.9920000  0  5 18 14 22 29 19
  19766238.031   -21247182.306 6 -14353561.144 6
  18681095.852   -17281759.484 7 -13378183.077 8
  19486472.953   -20244280.131 7 -15580639.260 8
  18601498.758   -25977406.240 7 -20091548.809 9
  20578066.438   -15387288.739 6 -11580006.321 5
 95  2 14 18 31 29.9920000  0  5 18 14 22 29 19
  19745574.273   -21355784.471 6 -14438186.201 6
  18685170.367   -17260368.419 7 -13361514.782 8
  19489497.898   -20228365.185 7 -15568238.028 8
  18589077.836   -26042690.611 7 -20142419.752 9
  20558089.680   -15492261.152 6 -11661803.012 5
 95  2 14 18 31 59.9920000  0  5 18 14 22 29 19
  19724927.875   -21464269.927 6 -14522720.318 6
  18689340.133   -17238434.488 7 -13344423.466 8
  19492634.375   -20211900.504 7 -15555408.450 8
  18576706.578   -26107699.650 7 -20193076.147 9
  20538169.352   -15596958.973 6 -11743385.711 5
 95  2 14 18 32 29.9920000  0  5 18 14 22 29 19
  19704307.000   -21572641.303 6 -14607165.543 6
  18693615.477   -17215985.438 7 -13326930.759 8
  19495866.977   -20194898.582 7 -15542160.227 8
  18564382.336   -26172465.705 7 -20243543.209 9
  20518295.898   -15701385.064 6 -11824756.676 5
 95  2 14 18 32 59.9920000  0  5 18 14 22 29 19
  19683706.008   -21680893.085 7 -14691517.576 6
  18697980.203   -17193037.471 7 -13309049.289 8
  19499206.844   -20177360.482 7 -15528494.208 8
  18552104.445   -26236982.072 7 -20293815.709 9
  20498472.016   -15805564.105 6 -11905935.143 5
 95  2 14 18 33 29.9920000  0  5 18 14 22 29 19
  19663129.422   -21789023.345 7 -14775774.924 6
  18702439.211   -17169618.523 7 -13290800.817 8
  19502636.828   -20159323.572 7 -15514439.509 8
  18539871.711   -26301271.400 7 -20343911.297 9
  20478688.406   -15909528.269 6 -11986946.175 5
 95  2 14 18 33 59.9920000  0  5 18 14 22 29 19
  19642583.867   -21896999.601 7 -14859912.269 6
  18706987.508   -17145707.247 7 -13272168.718 8
  19506162.828   -20140796.771 7 -15500003.077 8
  18527681.695   -26365330.274 7 -20393827.321 9
  20458944.883   -16013267.853 6 -12067782.202 5
 95  2 14 18 34 29.9920000  0  5 18 14 22 29 19
  19622065.289   -22004814.798 6 -14943924.099 6
  18711632.984   -17121298.225 7 -13253148.762 8
  19509778.164   -20121797.412 7 -15485198.426 8
  18515537.180   -26429146.397 7 -20443554.185 9
  20439245.102   -16116803.641 6 -12148459.422 5
 95  2 14 18 34 59.9920000  0  5 18 14 22 29 19
  19601579.250   -22112470.341 7 -15027811.546 6
  18716375.570   -17096374.562 7 -13233727.786 8
  19513485.336   -20102317.107 7 -15470019.017 8
  18503443.820   -26492696.215 7 -20493073.543 9
  20419580.375   -16220140.695 6 -12228981.787 6
 95  2 14 18 35 29.9920000  0  5 18 14 22 29 19
  19581120.125   -22219977.922 6 -15111583.684 6
  18721213.625   -17070941.981 7 -13213910.255 8
  19517284.242   -20082356.963 7 -15454465.703 8
  18491396.391   -26556004.543 7 -20542404.722 9
  20399953.648   -16323275.810 6 -12309346.802 5
 95  2 14 18 35 59.9920000  0  5 18 14 22 29 19
  19560688.281   -22327347.786 6 -15195248.511 6
  18726150.023   -17045005.657 7 -13193700.189 8
  19521178.109   -20061890.174 7 -15438517.607 8
  18479397.219   -26619063.868 7 -20591541.874 9
  20380364.711   -16426209.005 5 -12389554.463 5
 95  2 14 18 36 29.9920000  0  5 18 14 22 29 19
  19540281.570   -22434588.521 6 -15278812.721 6
  18731176.977   -17018590.628 7 -13173117.115 8
  19525173.320   -20040903.121 7 -15422164.113 8
  18467446.289   -26681869.907 7 -20640481.663 9
  20360817.219   -16528942.477 6 -12469606.501 5
 95  2 14 18 36 59.9920000  0  5 18 14 22 29 19
  19519900.508   -22541703.562 7 -15362278.986 6
  18736292.445   -16991718.948 7 -13152178.209 7
  19529262.828   -20019403.788 7 -15405411.444 8
  18455534.344   -26744456.987 7 -20689250.834 9
  20341303.563   -16631483.989 6 -12549508.953 5
 95  2 14 18 37 29.9920000  0  6 28 18 14 22 29 19
  22541400.695          -0.67114
  19499542.391   -22648676.719 6 -15445634.686 6
  18741489.313   -16964393.589 7 -13130885.783 8
  19533452.977   -19997392.848 7 -15388260.136 8
  18443668.406   -26806819.206 7 -20737844.783 9
  20321829.977   -16733818.909 6 -12629250.429 5
 95  2 14 18 37 59.9920000  0  6 28 18 14 22 29 19
  22520818.164     -108156.388 4        -0.29213
  19479215.125   -22755500.625 6 -15528874.093 6
  18746777.352   -16936615.212 7 -13109240.363 8
  19537736.344   -19974880.365 7 -15370718.002 7
  18431846.469   -26868935.812 7 -20786247.351 9
  20302397.774   -16835932.924 6 -12708819.779 5
 95  2 14 18 38 29.9920000  0  6 28 18 14 22 29 19
  22500256.719     -216228.967 4    -84212.566 3
  19458915.719   -22862171.511 7 -15611994.257 7
  18752152.484   -16908375.037 7 -13087235.091 8
  19542111.227   -19951881.378 7 -15352796.775 7
  18420075.516   -26930799.403 7 -20834452.769 9
  20283010.774   -16937813.475 6 -12788207.214 5
 95  2 14 18 38 59.9920000  0  6 28 18 14 22 29 19
  22479708.523     -324234.791 3   -168372.855 3
  19438640.258   -22968715.621 7 -15695015.637 7
  18757610.305   -16879680.776 7 -13064876.003 8
  19546576.039   -19928433.723 7 -15334525.925 7
  18408349.664   -26992422.521 7 -20882470.812 9
  20263668.258   -17039472.820 6 -12867422.263 5
 95  2 14 18 39 29.9920000  0  6 28 18 14 22 29 19
  22459165.602     -432167.032 3   -252475.798 2
  19418389.055   -23075145.376 7 -15777947.914 7
  18763160.203   -16850532.920 7 -13042163.458 7
  19551119.211   -19904543.706 7 -15315910.373 7
  18396672.398   -27053784.485 7 -20930285.340 9
  20244364.945   -17140901.375 6 -12946457.479 5
 95  2 14 18 39 59.9920000  0  6 28 18 14 22 29 19
  22438647.914     -540011.314 3   -336510.293 2
  19398160.563   -23181446.868 7 -15860780.241 7
  18768793.195   -16820916.423 7 -13019085.733 7
  19555753.898   -19880202.691 7 -15296943.395 7
  18385046.461   -27114878.978 7 -20977891.453 9
  20225108.930   -17242088.242 6 -13025304.350 5
 95  2 14 18 40 29.9920000  0  6 28 18 14 22 29 19
  22418140.633     -647768.610 3   -420476.957 2
  19377955.320   -23287614.279 7 -15943508.086 7
  18774520.836   -16790823.241 7 -12995636.568 8
  19560469.500   -19855406.759 7 -15277621.940 7
  18373471.227   -27175714.105 7 -21025295.460 9
  20205898.508   -17343042.806 6 -13103970.224 5
 95  2 14 18 40 59.9920000  0  6 28 18 14 22 29 19
  22397641.469     -755426.432 3   -504366.185 1
  19357785.039   -23393623.908 7 -16026112.972 7
  18780340.023   -16760242.692 7 -12971807.635 8
  19565280.117   -19830140.046 7 -15257933.635 7
  18361944.578   -27236280.495 7 -21072490.071 9
  20186733.039   -17443754.734 6 -13182447.034 6
 95  2 14 18 41 29.9920000  0  6 28 18 14 22 29 19
  22377179.399     -862998.544 3   -588188.604 1
  19337638.961   -23499479.396 7 -16108597.760 7
  18786247.258   -16729190.774 7 -12947611.405 8
  19570175.867   -19804403.131 7 -15237878.941 7
  18350466.367   -27296603.665 7 -21119495.151 9
  20167610.516   -17544253.389 6 -13260757.647 6
 95  2 14 18 41 59.9920000  0  6 28 18 14 22 29 19
  22356723.609     -970486.557 3   -671945.485 1
  19317529.617   -23605163.710 7 -16190949.164 7
  18792251.453   -16697657.886 7 -12923040.393 8
  19575165.180   -19778188.158 7 -15217451.729 7
  18339030.906   -27356693.922 7 -21166318.745 9
  20148522.609   -17644548.660 6 -13338909.779 5
 95  2 14 18 42 29.9920000  0  6 28 18 14 22 29 19
  22336285.367    -1077883.208 4   -755631.161 2
  19297451.719   -23710672.301 7 -16273163.636 7
  18798339.992   -16665643.292 7 -12898094.022 8
  19580245.367   -19751495.775 7 -15196652.501 7
  18327642.234   -27416543.407 7 -21212954.721 9
  20129477.555   -17744641.317 6 -13416904.021 6
 95  2 14 18 42 59.9920000  0  6 28 18 14 22 29 19
  22315870.281    -1185193.546 4   -839249.577 1
  19277405.469   -23816015.529 7 -16355249.256 7
  18804523.070   -16633169.813 7 -12872790.090 8
  19585412.875   -19724338.253 7 -15175490.824 7
  18316296.734   -27476162.965 7 -21259411.535 9
  20110466.641   -17844541.941 6 -13494748.636 6
 95  2 14 18 43 29.9920000  0  6 28 18 14 22 29 19
  22295467.500    -1292406.932 4   -922792.365 2
  19257389.859   -23921188.209 7 -16437201.980 7
  18810786.578   -16600235.179 7 -12847126.807 8
  19590671.023   -19696712.269 7 -15153964.108 7
  18304995.617   -27535550.873 7 -21305687.840 9
  20091494.875   -17944252.119 6 -13572444.868 6
 95  2 14 18 43 59.9920000  0  6 28 18 14 22 29 19
  22275078.484    -1399522.630 4  -1006259.031 2
  19237412.734   -24026194.118 7 -16519024.755 7
  18817139.508   -16566859.725 7 -12821120.033 8
  19596011.383   -19668638.140 7 -15132088.185 7
  18293740.734   -27594692.032 7 -21351771.865 9
  20072555.109   -18043765.413 6 -13649987.642 6
 95  2 14 18 44 29.9920000  0  6 28 18 14 22 29 19
  22254718.578    -1506545.418 4  -1089653.337 1
  19217454.906   -24131060.899 7 -16600739.122 7
  18823569.203   -16533066.027 7 -12794787.351 8
  19601436.524   -19640140.518 7 -15109882.273 7
  18282536.648   -27653574.800 7 -21397654.544 8
  20053655.531   -18143085.741 6 -13727380.090 6
 95  2 14 18 44 59.9920000  0  6 28 18 14 22 29 19
  22234369.328    -1613464.835 4  -1172967.058 1
  19197523.828   -24235788.969 7 -16682345.405 7
  18830080.258   -16498860.146 7 -12768133.478 8
  19606937.609   -19611216.049 7 -15087343.753 7
  18271383.039   -27712188.333 7 -21443327.437 8
  20034795.234   -18242204.497 6 -13804615.472 6
 95  2 14 18 45 29.9920000  0  6 28 18 14 22 29 19
  22214042.328    -1720282.919 4  -1256201.816 1
  19177621.914   -24340388.152 7 -16763851.253 7
  18836666.125   -16464244.609 7 -12741160.412 8
  19612522.672   -19581871.815 7 -15064478.142 7
  18260281.774   -27770528.738 7 -21488787.503 8
  20015970.156   -18341123.147 6 -13881694.909 6
 95  2 14 18 45 59.9920000  0  6 28 18 14 22 29 19
  22193730.711    -1827001.801 3  -1339359.256 2
  19157739.383   -24444867.850 7 -16845263.987 7
  18843330.953   -16429221.052 7 -12713869.396 8
  19618186.469   -19552117.960 7 -15041293.354 7
  18249230.102   -27828601.407 7 -21534038.933 8
  19997185.938   -18439840.293 6 -13958617.349 6
 95  2 14 18 46 29.9920000  0  6 28 18 14 22 29 19
  22173441.953    -1933612.384 3  -1422432.313 1
  19137880.586   -24549222.428 7 -16926579.233 7
  18850079.125   -16393774.868 7 -12686249.057 8
  19623928.578   -19521930.757 7 -15017770.885 7
  18238227.844   -27886416.244 7 -21579089.453 8
  19978442.531   -18538352.325 6 -14035379.939 6
 95  2 14 18 46 59.9920000  0  6 28 18 14 22 29 19
  22153178.359    -2040106.295 3  -1505414.450 2
  19118048.750   -24653431.272 7 -17007780.916 7
  18856902.578   -16357896.732 7 -12658292.141 8
  19629764.008   -19491285.794 7 -14993891.722 7
  18227270.766   -27943992.165 7 -21623953.810 8
  19959731.008   -18636661.891 6 -14111984.772 6
 95  2 14 18 47 29.9920000  0  6 28 18 14 22 29 19
  22132941.172    -2146487.864 3  -1588309.030 2
  19098248.266   -24757488.649 7 -17088864.581 7
  18863816.555   -16321575.563 7 -12629990.010 7
  19635676.156   -19460189.731 6 -14969661.053 7
  18216361.047   -28001329.548 7 -21668632.295 8
  19941060.727   -18734782.457 6 -14188442.340 6
 95  2 14 18 47 59.9920000  0  6 28 18 14 22 29 19
  22112710.758    -2252761.512 3  -1671119.546 3
  19078474.008   -24861409.587 7 -17169841.923 7
  18870808.961   -16284824.000 6 -12601352.500 8
  19641678.274   -19428662.487 6 -14945094.403 7
  18205495.008   -28058431.967 7 -21713127.691 9
  19922420.656   -18832723.636 6 -14264760.113 6
 95  2 14 18 48 29.9920000  0  6 28 18 14 22 29 19
  22092517.047    -2358920.773 3  -1753840.931 2
  19058724.016   -24965194.833 7 -17250713.532 7
  18877882.445   -16247650.293 7 -12572386.048 7
  19647758.719   -19396713.210 6 -14920198.900 7
  18194675.539   -28115283.931 7 -21757427.931 8
  19903816.508   -18930488.071 6 -14340940.153 6
 95  2 14 18 48 59.9920000  0  6 28 18 14 22 29 19
  22072329.133    -2464962.695 2  -1836470.905 3
  19039000.086   -25068847.354 7 -17331481.723 7
  18885039.352   -16210059.142 6 -12543094.319 7
  19653911.203   -19364374.136 6 -14894999.667 7
  18183907.320   -28171873.583 7 -21801523.760 8
  19885246.047   -19028073.690 6 -14416980.864 6
 95  2 14 18 49 29.9910000  0  6 28 18 14 22 29 19
  22052171.136    -2570875.715 2  -1919000.429 3
  19019302.042   -25172358.375 7 -17412139.650 7
  18892267.706   -16172054.907 7 -12513480.704 7
  19660137.003   -19331665.861 6 -14869512.752 7
  18173191.784   -28228181.995 7 -21845400.438 8
  19866711.480   -19125458.029 6 -14492864.745 6
 95  2 14 18 49 59.9910000  0  6 28 18 14 22 29 19
  22032048.558    -2676671.757 3  -2001438.849 3
  18999628.550   -25275750.117 7 -17492704.633 7
  18899574.542   -16133667.578 7 -12483568.568 7
  19666427.628   -19298600.728 6 -14843747.757 7
  18162527.737   -28284225.636 7 -21889070.815 8
  19848217.597   -19222652.882 6 -14568600.966 6
 95  2 14 18 50 29.9910000  0  6 28 18 14 22 29 19
  22011945.167    -2782333.529 3  -2083772.616 4
  18979982.620   -25378981.959 7 -17573145.026 7
  18906951.855   -16094893.494 7 -12453355.069 7
  19672795.081   -19265155.315 6 -14817686.441 7
  18151913.339   -28339998.353 7 -21932530.084 8
  19829762.097   -19319644.563 6 -14644178.876 6
 95  2 14 18 50 59.9910000  0  6 28 18 14 22 29 19
  21991855.831    -2887860.326 3  -2166001.197 4
  18960371.722   -25482036.402 7 -17653447.178 7
  18914407.276   -16055730.690 7 -12422838.664 7
  19679231.800   -19231312.074 6 -14791315.126 7
  18141352.511   -28395503.660 7 -21975780.983 8
  19811344.378   -19416424.390 6 -14719591.698 6
 95  2 14 18 51 29.9910000  0  6 28 18 14 22 29 19
  21971803.776    -2993247.879 4  -2248121.299 3
  18940796.628   -25584903.579 7 -17733603.404 7
  18921929.495   -16016183.808 6 -12392022.986 7
  19685754.761   -19197051.772 6 -14764618.829 7
  18130842.019   -28450734.375 7 -22018817.908 8
  19792967.503   -19513000.584 6 -14794845.839 6
 95  2 14 18 51 59.9910000  0  6 28 18 14 22 29 19
  21951776.917    -3098493.360 4  -2330130.709 2
  18921258.558   -25687578.448 7 -17813609.787 7
  18929527.784   -15976261.853 7 -12360915.041 7
  19692353.761   -19162363.220 6 -14737588.826 7
  18120385.667   -28505685.969 7 -22061637.342 8
  19774626.698   -19609384.114 6 -14869949.869 6
 95  2 14 18 52 29.9910000  0  6 28 18 14 22 29 19
  21931774.769    -3203594.426 4  -2412027.605 3
  18901758.347   -25790049.009 7 -17893456.962 7
  18937199.339   -15935950.722 7 -12329503.841 7
  19699034.269   -19127248.455 6 -14710226.707 7
  18109981.769   -28560355.986 7 -22104237.364 8
  19756326.284   -19705567.980 6 -14944898.318 6
 95  2 14 18 52 59.9910000  0  6 28 18 14 22 29 19
  21911804.159    -3308547.109 5  -2493808.832 2
  18882297.253   -25892321.005 7 -17973149.419 7
  18944943.105   -15895243.926 6 -12297784.337 7
  19705795.276   -19091726.874 6 -14682547.601 7
  18099632.776   -28614745.232 7 -22146618.596 8
  19738059.894   -19801553.588 6 -15019692.282 6
 95  2 14 18 53 29.9910000  0  6 28 18 14 22 29 19
  21891859.183    -3413354.980 5  -2575477.230 2
  18862871.089   -25994409.521 7 -18052698.908 7
  18952763.175   -15854151.533 7 -12265764.364 7
  19712628.308   -19055820.347 6 -14654568.529 7
  18089333.698   -28668870.484 7 -22188794.127 8
  19719828.191   -19897356.519 6 -15094343.888 6
 95  2 14 18 53 59.9910000  0  6 28 18 14 22 29 19
  21871943.894    -3518016.915 5  -2657031.891 1
  18843476.526   -26096319.686 7 -18132109.414 7
  18960659.112   -15812662.742 6 -12233435.509 7
  19719533.636   -19019534.282 6 -14626293.718 7
  18079079.878   -28722752.959 7 -22230780.479 8
  19701637.690   -19992963.440 6 -15168842.771 6
 95  2 14 18 54 29.9910000  0  6 28 18 14 22 29 19
  21852054.776    -3622527.391 5  -2738468.574 2
  18824117.972   -26198052.493 7 -18211381.716 7
  18968631.745   -15770766.801 7 -12200789.401 7
  19726512.894   -18982867.931 6 -14597722.577 7
  18068869.823   -28776398.987 7 -22272582.590 8
  19683479.940   -20088370.389 6 -15243185.830 6
 95  2 14 18 54 59.9910000  0  6 28 18 14 22 29 19
  21832197.722    -3726873.121 5  -2819776.878 2
  18804792.511   -26299612.672 7 -18290519.499 7
  18976682.214   -15728467.196 6 -12167828.744 7
  19733561.253   -18945807.963 6 -14568844.718 7
  18058708.878   -28829799.785 7 -22314193.612 8
  19665364.441   -20183565.035 6 -15317363.473 6
 95  2 14 18 55 29.9910000  0  6 28 18 14 22 29 19
  21812374.394    -3831060.987 4  -2900962.159 3
  18785495.901   -26401019.460 7 -18369537.768 7
  18984804.136   -15685781.365 6 -12134567.138 7
  19740691.636   -18908351.175 6 -14539657.651 7
  18048593.034   -28882953.208 7 -22355611.867 8
  19647287.956   -20278550.593 6 -15391378.194 6
 95  2 14 18 55 59.9910000  0  6 28 18 14 22 29 19
  21792567.730    -3935093.526 3  -2982026.419 4
  18766227.245   -26502270.018 7 -18448434.301 7
  18992997.792   -15642722.726 6 -12101015.041 7
  19747891.784   -18870502.267 6 -14510165.047 7
  18038528.175   -28935843.756 7 -22396825.295 8
  19629253.331   -20373325.616 6 -15465228.836 6
 95  2 14 18 56 29.9910000  0  6 28 18 14 22 29 19
  21772815.331    -4038960.214 4  -3062961.468 2
  18746991.487   -26603351.891 7 -18527199.391 7
  19001260.159   -15599303.246 6 -12067181.759 7
  19755167.909   -18832274.009 6 -14480376.847 7
  18028520.300   -28988438.016 7 -22437807.849 9
  19611259.964   -20467891.242 6 -15538916.334 6
 95  2 14 18 56 59.9910000  0  6 28 18 14 22 29 19
  21753080.722    -4142658.933 4  -3143765.627 4
  18727790.480   -26704265.564 7 -18605833.415 8
  19009590.394   -15555531.166 6 -12033073.742 7
  19762514.651   -18793677.006 6 -14450301.302 7
  18018568.901   -29040729.267 7 -22478554.292 9
  19593304.440   -20562247.434 6 -15612440.620 6
 95  2 14 18 57 29.9910000  0  6 28 18 14 22 29 19
  21733379.362    -4246175.904 3  -3224428.197 2
  18708625.722   -26804980.092 7 -18684312.256 8
  19017989.886   -15511391.414 6 -11998679.209 7
  19769926.628   -18754706.324 6 -14419934.593 7
  18008680.136   -29092699.514 7 -22519050.603 9
  19575385.800   -20656400.398 6 -15685806.555 6
 95  2 14 18 57 59.9910000  0  6 28 18 14 22 29 19
  21713711.620    -4349506.491 3  -3304945.481 5
  18689498.261   -26905489.593 7 -18762631.341 8
  19026461.362   -15466881.753 6 -11963996.441 7
  19777412.987   -18715378.689 6 -14389289.741 7
  17998853.339   -29144350.031 7 -22559297.772 9
  19557507.995   -20750352.107 6 -15759015.654 6
 95  2 14 18 58 29.9910000  0  6 28 18 14 22 29 19
  21694086.128    -4452663.379 4  -3385327.446 5
  18670405.300   -27005817.372 7 -18840808.820 8
  19034996.683   -15422015.411 6 -11929035.738 7
  19784961.956   -18675708.220 6 -14358377.728 7
  17989077.034   -29195718.308 7 -22599325.016 9
  19539665.847   -20844126.102 6 -15832086.279 6
 95  2 14 18 58 59.9910000  0  6 28 18 14 22 29 19
  21674489.448    -4555638.357 4  -3465567.648 4
  18651350.550   -27105955.109 7 -18918838.222 8
  19043607.808   -15376780.193 6 -11893787.611 7
  19792579.612   -18635672.169 6 -14327180.844 7
  17979353.636   -29246809.041 7 -22639135.989 9
  19521854.448   -20937721.064 6 -15905017.400 6
 95  2 14 18 59 29.9910000  0  6 28 18 14 22 29 19
  21654932.722    -4658427.012 4  -3545662.643 3
  18632331.792   -27205902.364 7 -18996719.200 7
  19052282.628   -15331180.477 6 -11858255.442 7
  19800269.894   -18595270.398 6 -14295699.009 6
  17969684.636   -29297613.958 7 -22678724.241 8
  19504074.831   -21031135.684 6 -15977807.991 6
 95  2 14 18 59 59.9910000  0  6 28 18 14 22 29 19
  21635405.511    -4761028.819 4  -3625612.057 4
  18613345.870   -27305675.824 7 -19074464.748 8
  19061027.675   -15285229.234 6 -11822449.365 7
  19808024.730   -18554509.482 6 -14263937.324 6
  17960069.948   -29348139.828 7 -22718095.065 9
  19486336.425   -21124361.509 6 -16050451.477 6
 95  2 14 19  0 29.9910000  0  6 28 18 14 22 29 19
  21615917.948    -4863432.163 4  -3705406.834 2
  18594394.894   -27405253.125 7 -19152057.458 7
  19069843.355   -15238918.969 6 -11786363.524 7
  19815851.472   -18513378.787 6 -14231887.486 6
  17950510.956   -29398372.393 7 -22757237.333 9
  19468635.417   -21217397.462 6 -16122946.992 6
 95  2 14 19  0 59.9910000  0  6 28 18 14 22 29 19
  21596463.222    -4965641.034 5  -3785050.052 3
  18575483.089   -27504638.911 7 -19229500.916 8
  19078717.003   -15192264.066 6 -11750009.134 7
  19823745.878   -18471899.097 6 -14199565.724 6
  17941012.284   -29448291.595 7 -22796135.422 9
  19450966.589   -21310240.985 6 -16195292.569 6
 95  2 14 19  1 29.9910000  0  6 28 18 14 22 29 19
  21577058.925    -5067647.798 5  -3864535.771 4
  18556609.120   -27603829.805 7 -19306792.520 8
  19087662.589   -15145261.116 6 -11713383.545 7
  19831703.464   -18430071.585 6 -14166972.922 6
  17931574.917   -29497892.673 7 -22834785.621 9
  19433335.448   -21402875.002 6 -16267474.891 6
 95  2 14 19  1 59.9910000  0  7 28 31 18 14 22 29 19
  21557682.831    -5169443.994 4  -3943857.423 4
  22030988.292          -0.77613
  18537773.112   -27702806.996 7 -19383917.606 8
  19096676.628   -15097891.398 6 -11676472.153 6
  19839730.636   -18387888.666 6 -14134103.175 6
  17922196.503   -29547177.981 7 -22873189.767 9
  19415751.862   -21495291.176 6 -16339487.457 6
 95  2 14 19  2 29.9910000  0  7 28 31 18 14 22 29 19
  21538360.112    -5271024.122 5  -4023010.702 4
  22007213.542     -124917.539 3
  18518980.362   -27801559.636 7 -19460867.715 8
  19105759.315   -15050160.510 6 -11639279.345 7
  19847830.855   -18345339.497 6 -14100948.044 6
  17912877.566   -29596144.344 7 -22911345.383 9
  19398208.503   -21587489.261 6 -16411330.081 6
 95  2 14 19  2 59.9910000  0  7 28 31 18 14 22 29 19
  21519068.011    -5372382.449 5  -4101991.147 3
  21983432.089     -249880.463 3        -0.33211
  18500230.581   -27900096.332 7 -19537649.557 8
  19114911.355   -15002071.664 6 -11601807.602 6
  19855997.394   -18302414.473 6 -14067500.035 6
  17903620.019   -29644799.150 7 -22949258.232 9
  19380706.300   -21679461.609 6 -16482996.809 6
 95  2 14 19  3 29.9910000  0  7 28 31 18 14 22 29 19
  21499826.222    -5473514.805 5  -4180795.478 4
  21959644.284     -374892.889 3    -97412.387 2
  18481523.214   -27998412.139 7 -19614259.279 8
  19124129.776   -14953624.380 6 -11564056.546 6
  19864238.612   -18259111.087 6 -14033757.210 6
  17894416.300   -29693156.483 7 -22986939.289 9
  19363241.503   -21771222.489 6 -16554498.753 6
 95  2 14 19  3 59.9910000  0  7 28 31 18 14 22 29 19
  21480618.862    -5574429.041 5  -4259429.850 4
  21935847.901     -499967.340 3   -194872.784 1
  18462853.026   -28096517.510 7 -19690705.025 8
  19133411.901   -14904843.818 6 -11526045.810 6
  19872548.472   -18215443.281 6 -13999730.424 6
  17885270.636   -29741223.745 7 -23024394.309 9
  19345817.120   -21862798.823 6 -16625856.905 6
 95  2 14 19  4 29.9910000  0  7 28 31 18 14 22 29 19
  21461460.042    -5675116.693 5  -4337887.637 3
  21912033.065     -625100.519 3   -292378.941 2
  18444223.315   -28194413.463 7 -19766987.593 8
  19142756.316   -14855742.540 6 -11487785.158 6
  19880924.073   -18171421.671 6 -13965427.914 6
  17876180.565   -29788989.847 7 -23061614.662 8
  19328426.370   -21954191.144 6 -16697071.666 6
 95  2 14 19  4 59.9910000  0  7 28 31 18 14 22 29 19
  21442345.339    -5775574.888 5  -4416166.643 4
  21888203.691     -750303.938 3   -389939.814 2
  18425635.972   -28292089.046 7 -19843098.443 8
  19152165.847   -14806299.791 6 -11449258.412 6
  19889363.355   -18127069.021 6 -13930867.441 6
  17867148.917   -29836448.027 7 -23098595.072 8
  19311072.612   -22045396.154 6 -16768140.467 6
 95  2 14 19  5 29.9910000  0  7 28 31 18 14 22 29 19
  21423272.347    -5875809.083 5  -4494271.078 4
  21864361.980     -875595.981 3   -487569.773 2
  18407093.862   -28389533.405 7 -19919029.116 8
  19161636.941   -14756523.370 6 -11410471.688 6
  19897864.784   -18082404.283 6 -13896063.802 6
  17858176.901   -29883599.072 7 -23135336.162 9
  19293746.776   -22136421.417 6 -16839069.219 6
 95  2 14 19  5 59.9910000  0  7 28 31 18 14 22 29 19
  21404236.394    -5975818.121 5  -4572200.069 4
  21840509.370    -1000967.523 4   -585261.664 2
  18388596.683   -28486739.534 7 -19994774.152 8
  19171172.901   -14706411.154 6 -11371423.309 6
  19906421.855   -18037429.025 6 -13861018.214 6
  17849263.605   -29930438.450 7 -23171834.393 9
  19276462.605   -22227257.806 6 -16909850.802 6
 95  2 14 19  6 29.9910000  0  7 28 31 18 14 22 29 19
  21385253.487    -6075583.227 5  -4649938.972 2
  21816641.237    -1126387.963 3   -682991.621 2
  18370147.933   -28583686.669 7 -20070317.371 8
  19180781.440   -14655933.752 6 -11332090.340 6
  19915038.823   -17992142.303 6 -13825729.930 6
  17840412.597   -29976952.037 7 -23208078.767 9
  19259215.980   -22317884.332 6 -16980468.851 6
 95  2 14 19  6 59.9910000  0  7 28 31 18 14 22 29 19
  21366310.550    -6175108.933 5  -4727491.350 2
  21792764.480    -1251853.211 3   -780756.563 2
  18351746.980   -28680380.419 7 -20145663.131 8
  19190455.511   -14605096.535 6 -11292477.021 6
  19923720.464   -17946536.687 6 -13790193.160 6
  17831622.347   -30023144.098 7 -23244072.603 9
  19242010.675   -22408296.563 6 -17050919.919 6
 95  2 14 19  7 29.9910000  0  7 28 31 18 14 22 29 19
  21347419.065    -6274392.558 5  -4804855.061 2
  21768880.269    -1377350.042 3   -878546.131 2
  18333392.050   -28776841.978 7 -20220827.963 8
  19200193.065   -14553922.340 6 -11252601.104 6
  19932457.925   -17900603.754 6 -13754401.313 6
  17822892.870   -30069020.117 7 -23279820.174 9
  19224846.573   -22498499.050 6 -17121207.543 6
 95  2 14 19  7 59.9910000  0  7 28 31 18 14 22 29 19
  21328571.690    -6373448.162 5  -4882041.129 2
  21744997.019    -1502877.118 3   -976359.272 2
  18315072.745   -28873100.316 7 -20295834.448 8
  19209986.933   -14502438.274 6 -11212483.733 6
  19941258.058   -17854369.949 6 -13718375.031 6
  17814219.347   -30114598.927 7 -23315336.148 9
  19207720.269   -22588505.174 6 -17191342.182 6
 95  2 14 19  8 29.9910000  0  7 28 31 18 14 22 29 19
  21309769.573    -6472262.416 5  -4959039.116 2
  21721101.308    -1628431.128 3  -1074193.422 1
  18296795.792   -28969148.585 7 -20370677.245 8
  19219842.769   -14450644.415 6 -11172124.974 6
  19950116.105   -17807825.597 6 -13682106.763 6
  17805603.542   -30159869.382 7 -23350611.847 8
  19190634.737   -22678300.081 6 -17261312.230 6
 95  2 14 19  8 59.9910000  0  7 28 31 18 14 22 29 19
  21291009.839    -6570835.600 5  -5035849.276 3
  21697202.003    -1754026.841 4  -1172060.067 2
  18278559.417   -29064986.094 7 -20445355.804 8
  19229756.347   -14398559.795 6 -11131539.652 6
  19959032.417   -17760964.703 6 -13645591.859 6
  17797047.464   -30204831.998 7 -23385647.669 8
  19173586.128   -22767881.652 6 -17331116.042 6
 95  2 14 19  9 29.9900000  0  7 28 31 18 14 22 29 19
  21272300.193    -6669155.276 5  -5112461.880 3
  21673294.107    -1879667.792 4  -1269961.967 1
  18260364.615   -29160596.677 7 -20519857.538 8
  19239719.881   -14346187.870 6 -11090730.459 6
  19968009.170   -17713791.912 6 -13608833.900 6
  17788552.873   -30249473.135 7 -23420432.988 9
  19156582.568   -22857256.497 6 -17400758.778 6
 95  2 14 19  9 59.9900000  0  7 28 31 18 14 22 29 19
  21253635.654    -6767225.478 5  -5188880.115 3
  21649372.115    -2005368.710 3
  18242214.842   -29255965.023 7 -20594170.518 8
  19249747.029   -14293519.886 6 -11049690.565 6
  19977042.123   -17666306.266 6 -13571832.156 6
  17780121.529   -30293782.399 7 -23454959.699 8
  19139610.865   -22946430.321 6 -17470244.874 6
 95  2 14 19 10 29.9900000  0  7 28 31 18 14 22 29 19
  21235024.326    -6865049.690 4  -5265106.692 2
  21625436.459    -2131145.500 3        -0.39111
  18224113.178   -29351094.949 7 -20668297.711 8
  19259821.600   -14240565.775 6 -11008427.726 6
  19986140.975   -17618508.023 6 -13534586.835 6
  17771754.803   -30337757.825 7 -23489226.269 9
  19122675.631   -23035415.597 6 -17539584.041 6
 95  2 14 19 10 59.9900000  0  8 28 31 18 14 22 29 19 27
  21216455.123    -6962623.757 5  -5341138.380 2
  21601492.318    -2256985.398 3    -98057.403 1
  18206057.889   -29445980.391 7 -20742234.425 8
  19269954.506   -14187324.150 6 -10966940.829 6
  19995295.787   -17570402.922 6 -13497102.410 7
  17763449.201   -30381394.279 7 -23523228.720 9
  19105776.842   -23124230.298 6 -17608790.294 6
  22251233.733          -0.38513
 95  2 14 19 11 29.9900000  0  8 28 31 18 14 22 29 19 27
  21197929.037    -7059943.757 5  -5416972.071 4
  21577538.865    -2382864.877 3   -196145.171 1
  18188050.342   -29540615.496 7 -20815976.059 8
  19280141.834   -14133787.036 6 -10925223.691 6
  20004506.365   -17521992.475 6 -13459380.053 6
  17755210.686   -30424685.775 7 -23556962.368 9
  19088903.162   -23212883.345 6 -17677870.573 6
  22228847.584     -117645.682 4
 95  2 14 19 11 59.9900000  0  8 28 31 18 14 22 29 19 27
  21179464.873    -7157005.529 4  -5492604.559 4
  21553578.553    -2508758.939 3   -294244.284 1
  18170089.717   -29635001.291 7 -20889523.428 8
  19290385.725   -14079952.272 6 -10883274.637 6
  20013776.303   -17473281.008 6 -13421423.131 6
  17747038.186   -30467638.198 7 -23590431.802 9
  19072065.779   -23301366.199 6 -17746818.242 6
  22206471.037     -235232.067 3
 95  2 14 19 12 29.9900000  0  8 28 31 18 14 22 29 19 27
  21161049.029    -7253801.557 4  -5568029.984 3
  21529622.842    -2634660.280 3   -392349.090 2
  18152177.045   -29729133.569 7 -20962873.253 8
  19300686.381   -14025819.885 6 -10841093.651 6
  20023104.795   -17424269.552 6 -13383232.445 6
  17738925.350   -30510269.421 7 -23623650.956 9
  19055257.998   -23389676.760 6 -17815631.638 6
  22184111.811     -352746.661 3
 95  2 14 19 12 59.9900000  0  8 28 31 18 14 22 29 19 27
  21142675.787    -7350328.455 4  -5643245.735 2
  21505668.568    -2760555.213 3   -490448.872 1
  18134312.600   -29823011.844 7 -21036025.167 8
  19311046.662   -13971387.189 6 -10798678.667 6
  20032485.662   -17374963.294 6 -13344812.044 6
  17730874.178   -30552583.494 7 -23656622.975 9
  19038491.084   -23477814.021 6 -17884310.000 6
  22161764.482     -470183.431 3        -0.25611
 95  2 14 19 13 29.9900000  0  8 28 31 18 14 22 29 19 27
  21124358.084    -7446574.139 4  -5718242.356 4
  21481714.498    -2886434.066 3   -588536.125 1
  18116495.256   -29916638.431 7 -21108980.957 8
  19321461.139   -13916650.400 6 -10756026.729 6
  20041928.233   -17325351.275 6 -13306153.389 6
  17722884.014   -30594566.567 7 -23689337.079 8
  19021757.873   -23565750.040 6 -17952831.535 6
  22139425.873     -587546.016 3    -91451.530 1
 95  2 14 19 13 59.9900000  0  8 28 31 18 14 22 29 19 27
  21106104.037    -7542537.001 5  -5793018.606 4
  21457759.334    -3012315.350 3   -686625.262 1
  18098725.490   -30010024.746 7 -21181749.526 9
  19331934.084   -13861613.652 6 -10713141.056 6
  20051428.209   -17275444.456 6 -13267265.025 6
  17714957.873   -30636215.659 7 -23721790.934 8
  19005059.670   -23653478.286 6 -18021191.197 6
  22117112.959     -704831.126 2
 95  2 14 19 14 29.9900000  0  8 28 31 18 14 22 29 19 27
  21087888.412    -7638218.091 5  -5867575.292 4
  21433801.584    -3138213.370 3   -784727.477 2
  18080998.107   -30103175.795 7 -21254334.770 8
  19342463.717   -13806280.346 6 -10670024.291 6
  20060975.693   -17225241.882 6 -13228146.199 6
  17707098.022   -30677522.159 7 -23753977.832 8
  18988407.404   -23741006.043 7 -18089394.629 6
  22094808.459     -822040.460 3
 95  2 14 19 14 59.9900000  0  8 28 31 18 14 22 29 19 27
  21069740.100    -7733620.203 5  -5941914.607 4
  21409837.365    -3264122.908 3   -882838.691 2
  18063313.498   -30196106.630 7 -21326748.416 9
  19353048.568   -13750656.988 6 -10626681.523 6
  20070585.670   -17174752.220 6 -13188803.680 6
  17699307.732   -30718464.748 7 -23785881.156 8
  18971786.834   -23828339.513 6 -18157446.656 6
  22072514.639     -939182.770 2        -0.45111
 95  2 14 19 15 29.9900000  0  8 28 31 18 14 22 29 19 27
  21051638.850    -7828728.768 5  -6016025.191 4
  21385878.451    -3390040.854 3   -980956.446 3
  18045676.865   -30288800.920 7 -21398977.741 9
  19363688.256   -13694738.978 6 -10583109.159 6
  20080247.717   -17123974.786 6 -13149236.918 6
  17691587.186   -30759032.193 7 -23817492.168 8
  18955205.678   -23915460.098 6 -18225332.809 6
  22050241.561    -1056238.138 3    -91212.296 1
 95  2 14 19 15 59.9900000  0  8 28 31 18 14 22 29 19 27
  21033590.443    -7923543.385 4  -6089906.725 5
  21361914.279    -3515975.614 3  -1079087.270 4
  18028081.576   -30381246.981 7 -21471013.658 9
  19374385.693   -13638535.626 6 -10539314.449 6
  20089961.420   -17072918.967 6 -13109453.247 6
  17683935.279   -30799243.872 7 -23848825.965 8
  18938671.107   -24002375.477 6 -18293059.057 6
  22027985.225    -1173201.299 3   -182352.357 1
 95  2 14 19 16 29.9900000  0  8 28 31 18 14 22 29 19 27
  21015610.936    -8018066.230 5  -6163560.883 4
  21337950.514    -3641917.463 3  -1177223.644 4
  18010540.115   -30473438.540 7 -21542851.251 9
  19385130.131   -13582066.180 6 -10495312.380 6
  20099732.607   -17021585.760 6 -13069453.444 6
  17676347.193   -30839117.512 7 -23879896.356 8
  18922164.959   -24089084.987 6 -18360624.870 6
  22005740.748    -1290086.379 3   -273431.494 2
 95  2 14 19 16 59.9900000  0  8 28 31 18 14 22 29 19 27
  20997677.607    -8112290.159 5  -6236982.102 5
  21313985.264    -3767854.575 3  -1275356.333 1
  17993046.670   -30565364.425 7 -21614481.827 9
  19395926.654   -13525335.511 6 -10451106.773 6
  20109553.639   -16969981.990 6 -13029242.809 6
  17668822.334   -30878664.693 7 -23910712.365 8
  18905711.631   -24175580.542 6 -18428023.988 6
  21983507.592    -1406902.272 3   -364456.817 2
 95  2 14 19 17 29.9900000  0  8 28 31 18 14 22 29 19 27
  20979808.545    -8206202.731 5  -6310160.745 3
  21290021.295    -3893781.595 3  -1373481.159 3
  17975609.967   -30657003.038 7 -21685888.551 9
  19406771.490   -13468347.775 6 -10406700.867 6
  20119426.904   -16918096.428 6 -12988812.595 6
  17661356.873   -30917894.924 7 -23941281.402 8
  18889288.233   -24261855.744 6 -18495251.406 6
  21961291.365    -1523652.403 2   -455430.870 1
 95  2 14 19 17 59.9900000  0  8 28 31 18 14 22 29 19 27
  20961994.857    -8299811.429 5  -6383102.565 5
  21266062.037    -4019689.443 3  -1471591.035 2
  17958222.779   -30748361.381 7 -21757076.872 9
  19417660.076   -13411118.590 6 -10362106.804 6
  20129350.998   -16865935.084 6 -12948167.467 6
  17653951.076   -30956817.250 7 -23971610.512 8
  18872913.475   -24347932.122 6 -18562323.882 6
  21939077.053    -1640363.394 2   -546374.373 2
 95  2 14 19 18 29.9900000  0  8 28 31 18 14 22 29 19 27
  20944238.225    -8393113.182 5  -6455805.201 5
  21242107.490    -4145562.124 3  -1569673.513 3
  17940893.561   -30839441.536 7 -21828048.431 9
  19428601.615   -13353637.948 6 -10317316.812 6
  20139329.693   -16813498.815 6 -12907308.141 6
  17646604.068   -30995420.449 7 -24001690.949 8
  18856567.772   -24433809.798 6 -18629241.546 6
  21916883.912    -1757041.239 2   -637292.132 2
 95  2 14 19 18 59.9900000  0  8 28 31 18 14 22 29 19 27
  20926547.693    -8486107.105 5  -6528267.964 5
  21218163.233    -4271397.336 4  -1667726.802 3
  17923611.857   -30930243.358 7 -21898803.118 9
  19439585.912   -13295899.338 6 -10272325.799 6
  20149359.428   -16760794.981 6 -12866240.311 6
  17639320.600   -31033695.376 7 -24031515.586 8
  18840261.045   -24519502.430 6 -18696015.016 6
  21894680.897    -1873682.368 2   -728181.239 2
 95  2 14 19 19 29.9900000  0  8 28 31 18 14 22 29 19 27
  20908904.912    -8578793.101 5  -6600490.798 4
  21194223.795    -4397188.814 4  -1765746.009 2
  17906385.053   -31020771.628 7 -21969344.619 9
  19450623.678   -13237902.327 6 -10227133.432 6
  20159436.787   -16707836.234 6 -12824973.855 6
  17632101.873   -31071634.697 7 -24061078.715 8
  18823990.303   -24605015.707 6 -18762648.724 6
  21872497.732    -1990267.950 2   -819027.142 2
 95  2 14 19 19 59.9900000  0  8 28 31 18 14 22 29 19 27
  20891333.600    -8671152.102 5  -6672458.822 5
  21170298.631    -4522913.897 5  -1863713.471 3
  17889213.615   -31111006.792 7 -22039657.739 9
  19461716.131   -13179617.922 6 -10181717.133 6
  20169565.873   -16654620.459 6 -12783507.111 6
  17624951.264   -31109208.815 7 -24090357.273 8
  18807757.881   -24690323.134 6 -18829122.042 7
  21850331.873    -2106761.401 2   -909801.232 1
 95  2 14 19 20 29.9900000  0  8 28 31 18 14 22 29 19 27
  20873816.975    -8763191.818 5  -6744178.066 4
  21146379.506    -4648594.770 4  -1961646.458 2
  17872099.451   -31200952.491 7 -22109745.303 8
  19472858.779   -13121053.840 6 -10136082.893 6
  20179735.865   -16601175.819 6 -12741862.032 6
  17617870.029   -31146420.962 7 -24119353.773 8
  18791559.787   -24775440.018 6 -18895446.872 6
  21828180.076    -2223160.355 3  -1000501.699 2
 95  2 14 19 20 59.9900000  0  8 28 31 18 14 22 29 19 27
  20856361.529    -8854911.179 5  -6815647.632 5
  21122473.436    -4774234.075 4  -2059547.085 2
  17855038.678   -31290604.674 7 -22179604.145 9
  19484057.467   -13062212.307 6 -10090232.469 6
  20189944.615   -16547514.565 6 -12700048.167 6
  17610858.147   -31183265.705 7 -24148063.991 8
  18775395.053   -24860377.032 7 -18961631.547 7
  21806052.928    -2339461.465 3  -1091125.957 2
 95  2 14 19 21 29.9900000  0  8 28 31 18 14 22 29 19 27
  20838973.522    -8946309.283 5  -6886866.880 4
  21098569.420    -4899837.860 4  -2157420.035 1
  17838034.936   -31379959.554 7 -22249231.322 9
  19495304.623   -13003102.393 6 -10044172.925 6
  20200198.420   -16493636.637 6 -12658065.453 6
  17603919.115   -31219738.072 7 -24176484.040 8
  18759266.764   -24945129.542 6 -19027672.468 7
  21783936.803    -2455661.683 3  -1181671.549 2
 95  2 14 19 21 59.9900000  0  8 28 31 18 14 22 29 19 27
  20821639.248    -9037384.903 5  -6957834.844 5
  21074676.522    -5025416.797 5  -2255273.589 1
  17821087.537   -31469011.405 7 -22318622.376 8
  19506603.717   -12943727.589 6  -9997906.963 6
  20210496.436   -16439523.609 6 -12615899.556 6
  17597051.467   -31255829.725 7 -24204607.433 8
  18743174.193   -25029698.327 6 -19093570.216 7
  21761842.725    -2571772.370 3  -1272147.413 2
 95  2 14 19 22 29.9900000  0  8 28 31 18 14 22 29 19 27
  20804370.811    -9128128.037 5  -7028543.706 5
  21050784.490    -5150960.251 5  -2353099.497 2
  17804198.834   -31557760.191 7 -22387777.270 9
  19517950.858   -12884098.751 6  -9951443.051 6
  20220845.037   -16385151.566 6 -12573531.794 6
  17590254.389   -31291536.153 7 -24232430.644 8
  18727119.334   -25114079.063 6 -19159321.434 6
  21739765.170    -2687800.748 4  -1362559.103 2
 95  2 14 19 22 59.9900000  0  8 28 31 18 14 22 29 19 27
  20787170.920    -9218545.821 5  -7098999.053 5
  21026902.240    -5276476.236 5  -2450904.006 2
  17787366.295   -31646217.990 7 -22456705.430 8
  19529341.600   -12824243.661 6  -9904802.833 6
  20231245.272   -16330499.424 6 -12530945.812 6
  17583535.084   -31326861.080 7 -24259956.580 8
  18711097.631   -25198271.318 6 -19224925.779 6
  21717694.232    -2803759.014 3  -1452916.176 3
 95  2 14 19 23 29.9900000  0  8 28 31 18 14 22 29 19 27
  20770026.365    -9308636.175 5  -7169199.262 4
  21003023.334    -5401966.518 5  -2548688.523 2
  17770589.342   -31734390.901 7 -22525411.594 9
  19540770.740   -12764188.780 6  -9858006.945 5
  20241695.873   -16275561.096 6 -12488136.798 6
  17576882.608   -31361813.762 7 -24287192.447 8
  18695111.522   -25282262.517 6 -19290373.459 6
  21695646.295    -2919644.306 3  -1543216.344 2
 95  2 14 19 23 59.9900000  0  8 28 31 18 14 22 29 19 27
  20752942.186    -9398389.236 5  -7239136.658 5
  20979144.334    -5527416.381 3  -2646441.554 2
  17753866.553   -31822270.396 7 -22593889.126 8
  19552236.740   -12703933.363 6  -9811054.786 5
  20252204.100   -16220343.160 6 -12445109.915 6
  17570301.709   -31396402.594 7 -24314144.804 8
  18679171.061   -25366047.481 6 -19355660.438 7
  21673604.326    -3035460.270 4  -1633462.475 2
 95  2 14 19 24 29.9900000  0  8 28 31 18 14 22 29 19 27
  20735926.412    -9487799.275 5  -7308806.747 5
  20955290.881    -5652817.961 3  -2744156.984 4
  17737199.264   -31909847.581 7 -22662131.097 8
  19563735.912   -12643486.774 6  -9763953.664 5
  20262762.131   -16164869.264 5 -12401883.586 6
  17563787.279   -31430633.513 7 -24340818.271 8
  18663267.647   -25449620.041 7 -19420781.908 7
  21651581.084    -3151210.038 4  -1723656.988 2
 95  2 14 19 24 59.9900000  0  8 28 31 18 14 22 29 19 27
  20718978.443    -9576866.699 5  -7378209.858 5
  20931431.639    -5778161.992 4  -2841827.540 3
  17720594.381   -31997120.289 7 -22730135.803 8
  19575277.779   -12582833.441 6  -9716691.444 5
  20273356.818   -16109167.759 5 -12358479.915 6
  17557340.600   -31464510.363 7 -24367215.836 8
  18647402.225   -25532985.458 7 -19485741.963 6
  21629565.225    -3266891.102 3  -1813797.981 1
 95  2 14 19 25 29.9900000  0  8 28 31 18 14 22 29 19 27
  20702098.772    -9665579.507 5  -7447336.665 5
  20907597.936    -5903418.789 5  -2939430.104 2
  17704042.545   -32084083.487 7 -22797899.338 8
  19586868.467   -12521938.777 6  -9669241.184 5
  20283997.764   -16053262.988 6 -12314917.821 6
  17550960.561   -31498037.444 7 -24393340.844 8
  18631580.943   -25616130.474 7 -19550530.283 7
  21607569.014    -3382499.443 3  -1903882.277 3
 95  2 14 19 25 59.9900000  0  8 28 31 18 14 22 29 19 27
  20685287.029    -9753929.975 5  -7516181.124 5
  20883783.787    -6028568.140 5  -3036948.921 2
  17687556.904   -32170727.889 7 -22865414.455 8
  19598507.053   -12460778.172 6  -9621583.693 5
  20294678.608   -15997150.055 6 -12271193.512 6
  17544649.795   -31531198.790 7 -24419180.868 8
  18615800.295   -25699061.971 7 -19615152.216 7
  21585577.920    -3498040.862 3  -1993914.411 2
 95  2 14 19 26 29.9900000  0  8 28 31 18 14 22 29 19 27
  20668549.334    -9841909.115 5  -7584736.217 4
  20859990.514    -6153595.011 4  -3134372.314 1
  17671130.029   -32257052.996 7 -22932680.764 8
  19610198.693   -12399335.857 6  -9573706.689 5
  20305399.553   -15940808.739 6 -12227291.233 5
  17538413.670   -31563970.460 7 -24444717.252 8
  18600056.232   -25781775.526 7 -19679604.318 7
  21563606.975    -3613502.092 3  -2083884.052 1
 95  2 14 19 26 59.9900000  0  8 28 31 18 14 22 29 19 27
  20651878.084    -9929519.125 5  -7653003.704 5
  20836223.678    -6278491.615 3  -3231694.197 1
  17654758.240   -32343077.896 7 -22999713.162 8
  19621942.076   -12337619.504 6  -9525616.148 5
  20316164.959   -15884229.437 5 -12183203.535 6
  17532250.490   -31596352.917 7 -24469950.353 8
  18584360.248   -25864283.766 6 -19743896.431 7
  21541658.045    -3728875.909 4  -2173785.588 1
 95  2 14 19 27 29.9900000  0  8 28 31 18 14 22 29 19 27
  20635269.498   -10016760.440 5  -7720983.899 5
  20812477.732    -6403273.511 3  -3328926.711 2
  17638445.240   -32428800.713 7 -23066510.167 8
  19633736.404   -12275657.560 6  -9477334.245 5
  20326978.084   -15827400.163 5 -12138921.054 6
  17526163.248   -31628341.167 7 -24494876.289 8
  18568697.951   -25946600.054 7 -19808038.956 6
  21519711.264    -3844171.879 3  -2263626.496 1
 95  2 14 19 27 59.9900000  0  8 28 31 18 14 22 29 19 27
  20618742.334   -10103622.908 5  -7788668.882 5
  20788757.248    -6527947.672 4  -3426075.322 3
  17622194.459   -32514204.148 7 -23133058.297 8
  19645568.397   -12213468.589 5  -9428875.428 5
  20337845.373   -15770300.649 5 -12094428.000 5
  17520157.725   -31659907.080 7 -24519473.127 8
  18553067.857   -26028718.298 7 -19872027.170 7
  21497783.967    -3959381.022 3  -2353399.744 1
 95  2 14 19 28 29.9900000  0  8 28 31 18 14 22 29 19 27
  20602286.115   -10190102.042 5  -7856055.146 5
  20765042.842    -6652529.394 4  -3523151.874 3
  17606004.233   -32599290.965 7 -23199359.710 8
  19657442.506   -12151065.930 5  -9380250.093 5
  20348760.826   -15712933.882 6 -12049726.677 5
  17514229.201   -31691051.099 7 -24543741.217 8
  18537480.631   -26110627.948 7 -19935852.841 6
  21475878.264    -4074495.956 3  -2443099.568 1
 95  2 14 19 28 59.9890000  0  8 28 31 18 14 22 29 19 27
  20585901.728   -10276193.971 5  -7923139.722 4
  20741358.478    -6777020.154 5  -3620157.529 3
  17589872.603   -32684063.043 7 -23265415.869 8
  19669356.243   -12088466.802 6  -9331471.680 5
  20359724.978   -15655319.411 5 -12004832.339 5
  17508382.368   -31721785.265 7 -24567689.945 8
  18521933.579   -26192329.365 7 -19999516.259 6
  21453989.314    -4189523.321 3  -2532731.190 1
 95  2 14 19 29 29.9890000  0  8 28 31 18 14 22 29 19 27
  20569588.478   -10361900.361 5  -7989923.868 4
  20717681.118    -6901435.505 5  -3717104.436 3
  17573802.243   -32768510.607 7 -23331219.172 8
  19681308.743   -12025655.704 5  -9282528.079 5
  20370738.228   -15597459.515 5 -11959746.751 5
  17502611.025   -31752115.967 7 -24591324.272 8
  18506425.353   -26273823.256 7 -20063017.951 7
  21432120.189    -4304475.529 3  -2622304.208 2
 95  2 14 19 29 59.9890000  0  8 28 31 18 14 22 29 19 27
  20553354.759   -10447212.900 5  -8056401.105 4
  20694019.212    -7025770.878 5  -3813989.032 2
  17557793.775   -32852624.819 7 -23396762.697 8
  19693303.032   -11962619.638 5  -9233409.203 5
  20381789.384   -15539366.681 5 -11914479.672 5
  17496913.946   -31782057.964 7 -24614655.720 8
  18490964.790   -26355094.058 7 -20126345.820 7
  21410263.025    -4419334.489 3  -2711804.620 1
 95  2 14 19 30 29.9890000  0  8 28 31 18 14 22 29 19 27
  20537203.853   -10532125.659 5  -8122566.820 5
  20670375.993    -7150008.681 5  -3910797.592 2
  17541852.048   -32936401.817 7 -23462043.458 8
  19705338.946   -11899358.328 5  -9184114.808 6
  20392886.720   -15481054.079 5 -11869041.345 6
  17491285.923   -31811628.476 7 -24637697.708 8
  18475535.954   -26436152.938 7 -20189508.556 7
  21388420.220    -4534089.825 3  -2801224.290 2
 95  2 14 19 30 59.9890000  0  8 28 31 18 14 22 29 19 27
  20521114.782   -10616647.123 5  -8188427.629 5
  20646757.353    -7274142.728 5  -4007525.349 2
  17525979.501   -33019831.988 7 -23527053.961 8
  19717421.728   -11835882.726 5  -9134653.425 5
  20404019.439   -15422543.553 5 -11823448.787 5
  17485725.837   -31840841.760 7 -24660461.342 8
  18460145.032   -26517021.628 7 -20252523.100 6
  21366605.079    -4648737.160 3  -2890559.751 1
 95  2 14 19 31 29.9890000  0  8 28 31 18 14 22 29 19 27
  20505105.860   -10700771.890 5  -8253979.287 5
  20623155.056    -7398164.603 5  -4104165.724 2
  17510170.040   -33102896.341 7 -23591779.401 8
  19729543.775   -11772190.113 5  -9085022.939 5
  20415193.876   -15363832.561 6 -11777700.032 5
  17480237.642   -31869682.447 7 -24682934.628 8
  18444798.618   -26597694.884 7 -20315385.358 7
  21344813.337    -4763262.693 3  -2979800.304 2
 95  2 14 19 31 59.9890000  0  8 28 31 18 14 22 29 19 27
  20489175.657   -10784501.071 5  -8319222.699 5
  20599576.571    -7522058.825 5  -4200706.667 2
  17494436.790   -33185592.868 7 -23656218.218 9
  19741698.751   -11708303.923 5  -9035241.625 5
  20426400.384   -15304939.527 5 -11731809.439 5
  17474823.689   -31898136.941 7 -24705106.980 8
  18429478.470   -26678169.439 7 -20378092.789 7
  21323043.587    -4877665.967 3  -3068945.637 2
 95  2 14 19 32 29.9890000  0  8 28 31 18 14 22 29 19 27
  20473319.415   -10867838.496 5  -8384160.821 5
  20576032.056    -7645805.277 5  -4297132.455 4
  17478765.962   -33267928.071 7 -23720375.482 8
  19753888.321   -11644246.904 5  -8985327.204 5
  20437641.978   -15245864.979 5 -11685777.389 5
  17469485.587   -31926189.165 7 -24726965.878 8
  18414203.751   -26758458.344 7 -20440655.568 7
  21301290.556    -4991953.539 2  -3158000.807 2
 95  2 14 19 32 59.9890000  0  8 28 31 18 14 22 29 19 27
  20457529.985   -10950778.812 5  -8448789.507 5
  20552506.821    -7769403.706 5  -4393442.924 5
  17463165.564   -33349898.447 7 -23784248.459 9
  19766116.259   -11580002.599 5  -8935266.829 5
  20448922.415   -15186589.751 5 -11639588.942 5
  17464228.275   -31953816.954 7 -24748494.040 8
  18398965.212   -26838542.444 7 -20503058.753 7
  21279565.712    -5106128.795 3  -3246968.424 3
 95  2 14 19 33 29.9890000  0  8 28 31 18 14 22 29 19 27
  20441827.118   -11033312.001 5  -8513100.939 5
  20529021.579    -7892843.094 5  -4489629.455 5
  17447636.720   -33431504.736 7 -23847837.728 8
  19778375.595   -11515569.887 5  -8885059.654 5
  20460243.353   -15127100.255 6 -11593233.589 5
  17459055.040   -31981002.363 7 -24769677.490 8
  18383769.782   -26918396.173 7 -20565282.440 7
  21257859.876    -5220207.451 3  -3335860.791 2
 95  2 14 19 33 59.9890000  0  8 28 31 18 14 22 29 19 27
  20426196.196   -11115442.455 5  -8577098.572 5
  20505560.048    -8016134.874 5  -4585700.983 4
  17432177.064   -33512757.806 7 -23911151.761 9
  19790668.540   -11450959.829 5  -8834714.292 5
  20471602.907   -15067395.514 6 -11546710.507 5
  17453962.767   -32007764.463 7 -24790531.083 8
  18368614.517   -26998028.350 7 -20627333.496 7
  21236166.384    -5334204.617 4  -3424689.640 2
 95  2 14 19 34 29.9890000  0  8 28 31 18 14 22 29 19 27
  20410646.243   -11197167.347 5  -8640780.181 5
  20482125.751    -8139286.277 5  -4681663.148 3
  17416778.595   -33593667.781 7 -23974198.437 9
  19802999.196   -11386160.438 5  -8784221.395 5
  20483011.439   -15007459.867 6 -11500007.493 5
  17448947.056   -32034115.775 7 -24811064.580 8
  18353502.657   -27077450.794 7 -20689221.115 7
  21214486.298    -5448136.563 4  -3513467.704 3
 95  2 14 19 34 59.9890000  0  8 28 31 18 14 22 29 19 27
  20395172.071   -11278483.897 5  -8704143.597 5
  20458715.946    -8262306.342 5  -4777522.963 3
  17401446.790   -33674235.674 7 -24036978.571 9
  19815370.915   -11321167.121 5  -8733577.385 5
  20494457.728   -14947301.966 6 -11453131.270 5
  17444007.782   -32060074.654 7 -24831292.287 8
  18338432.212   -27156648.312 7 -20750933.484 7
  21192817.595    -5562017.314 4  -3602205.879 2
 95  2 14 19 35 29.9890000  0  8 28 31 18 14 22 29 19 27
  20379774.118   -11359393.283 5  -8767189.732 5
  20435329.970    -8385190.144 5  -4873276.611 2
  17386178.962   -33754465.237 7 -24099495.062 9
  19827769.962   -11255996.974 5  -8682795.579 5
  20505943.774   -14886946.512 5 -11406101.119 5
  17439139.610   -32085661.197 7 -24851229.855 8
  18323399.993   -27235639.955 7 -20812485.423 7
  21171151.337    -5675846.258 4  -3690903.651 4
 95  2 14 19 35 59.9890000  0  8 28 31 18 14 22 29 19 27
  20364455.931   -11439879.504 5  -8829906.163 5
  20411975.751    -8507919.665 5  -4968910.014 2
  17370983.298   -33834338.773 7 -24161734.138 9
  19840208.251   -11190632.102 5  -8631862.042 5
  20517470.345   -14826383.851 5 -11358909.506 5
  17434343.048   -32110868.293 7 -24870871.744 8
  18308402.696   -27314429.160 7 -20873879.614 7
  21149509.165    -5789590.929 5  -3779535.767 4
 95  2 14 19 36 29.9890000  0  8 28 31 18 14 22 29 19 27
  20349222.860   -11519940.441 5  -8892291.201 5
  20388653.001    -8630477.315 5  -5064409.452 1
  17355849.298   -33913856.104 7 -24223695.661 9
  19852686.025   -11125066.176 5  -8580771.852 5
  20529027.118   -14765632.733 5 -11311571.057 5
  17429621.962   -32135676.486 7 -24890202.798 8
  18293451.978   -27393010.433 7 -20935111.769 7
  21127883.017    -5903244.060 5  -3868096.606 4
 95  2 14 19 36 59.9890000  0  8 28 31 18 14 22 29 19 27
  20334073.376   -11599574.893 5  -8954343.925 5
  20365365.181    -8752855.323 5  -5159768.868 3
  17340786.735   -33993012.497 7 -24285375.936 9
  19865199.103   -11059302.994 5  -8529527.960 5
  20540620.501   -14704712.704 5 -11264100.988 5
  17424978.806   -32160077.516 7 -24909216.575 8
  18278537.470   -27471377.626 7 -20996177.100 7
  21106276.970    -6016786.722 4  -3956571.344 3
 95  2 14 19 37 29.9890000  0  8 28 31 18 14 22 29 19 27
  20318996.157   -11678776.166 5  -9016059.107 5
  20342115.509    -8875048.290 5  -5254984.072 4
  17325792.845   -34071801.533 7 -24346769.963 9
  19877753.571   -10993335.786 5  -8478125.080 5
  20552246.540   -14643625.865 5 -11216500.918 5
  17420416.212   -32184050.237 7 -24927896.611 8
  18263666.868   -27549543.698 7 -21057085.706 7
  21084688.735    -6130206.338 5  -4044950.196 4
 95  2 14 19 37 59.9890000  0  8 28 31 18 14 22 29 19 27
  20304008.735   -11757538.786 5  -9077432.488 6
  20318896.478    -8997059.475 5  -5350057.578 4
  17310874.931   -34150211.399 7 -24407868.547 9
  19890347.048   -10927154.029 5  -8426555.003 5
  20563903.970   -14582369.464 5 -11168768.725 5
  17415940.165   -32207577.672 7 -24946229.669 8
  18248829.493   -27627491.192 7 -21117823.977 7
  21063132.626    -6243516.634 4  -4133243.881 4
 95  2 14 19 38 29.9890000  0  8 28 31 18 14 22 29 19 27
  20289102.900   -11835871.458 5  -9138470.837 5
  20295707.923    -9118903.564 5  -5445000.839 3
  17296021.939   -34228261.384 7 -24468686.708 9
  19902978.595   -10860777.064 5  -8374832.830 4
  20575586.009   -14520958.095 5 -11120915.783 5
  17411543.923   -32230672.724 7 -24964225.803 8
  18234036.728   -27705227.682 7 -21178397.824 7
  21041584.790    -6356744.451 4  -4221473.284 3
 95  2 14 19 38 59.9890000  0  8 28 31 18 14 22 29 19 27
  20274285.876   -11913759.678 5
  20272557.399    -9240575.463 5  -5539809.892 2
  17281238.415   -34305941.823 7
  19915646.314   -10794208.035 5  -8322961.001 5
  20587307.321   -14459367.620 5 -11072923.270 5
  17407232.392   -32253332.038 7 -24981882.406 8
  18219286.017   -27782748.418 7 -21238803.534 7
  21020055.048    -6469882.196 4  -4309632.493 3
 95  2 14 19 39 29.9890000  0  8 28 31 18 14 22 29 19 27
  20259550.892   -11991201.423 5
  20249435.407    -9362081.636 5  -5634489.788 2
  17266526.571   -34383247.234 7
  19928350.829   -10727452.055 5  -8270943.505 5
  20599064.845   -14397587.014 5 -11024782.609 5
  17403003.618   -32275557.494 7 -24999200.938 8
  18204576.782   -27860047.395 7
  20998536.235    -6582944.865 4  -4397733.193 3
 95  2 14 19 39 59.9890000  0  8 28 31 18 14 22 29 19 27
  20244898.251   -12068201.101 5
  20226345.407    -9483421.455 5  -5729040.055 4
  17251886.400   -34460187.522 7
  19941083.907   -10660528.437 5  -8218795.392 5
  20610860.384   -14335611.265 5 -10976489.854 5
  17398855.493   -32297354.920 7 -25016185.944 8
  18189910.134   -27937120.451 7
  20977034.970    -6695944.788 3  -4485785.007 3
 95  2 14 19 40 29.9890000  0  8 28 31 18 14 22 29 19 27
  20230330.493   -12144750.419 5
  20203287.626    -9604576.173 5  -5823446.043 4
  17237317.243   -34536754.691 7 -24709071.117 9
  19953849.017   -10593449.956 5  -8166526.595 5
  20622694.595   -14273427.565 5 -10928035.075 5
  17394788.298   -32318723.412 7 -25032836.712 8
  18175284.728   -28013968.276 7 -21418974.691 7
  20955549.493    -6808859.945 3  -4573770.782 3
 95  2 14 19 40 59.9890000  0  8 28 31 18 14 22 29 19 27
  20215847.134   -12220848.690 5
  20180267.603    -9725545.282 5  -5917707.407 4
  17222817.579   -34612933.289 7
  19966643.642   -10526218.372 5  -8114138.504 5
  20634563.853   -14211045.675 5 -10879425.853 5
  17390804.282   -32339664.126 7 -25049154.157 8
  18160708.415   -28090586.861 7 -21478677.433 7
  20934080.509    -6921688.872 4  -4661689.358 2
 95  2 14 19 41 29.9890000  0  8 28 31 18 14 22 29 19 27
  20201452.220   -12296496.267 5
  20157282.767    -9846329.252 5  -6011824.519 4
  17208398.954   -34688712.968 7
  19979466.853   -10458836.812 5  -8061633.545 5
  20646471.556   -14148479.322 5 -10830672.880 5
  17386897.368   -32360191.979 7 -25065149.891 8
  18146169.173   -28166980.160 7 -21538204.627 7
  20912625.540    -7034427.741 3  -4749537.736 2
 95  2 14 19 41 59.9890000  0  8 28 31 18 14 22 29 19 27
  20187140.743   -12371690.911 5
  20134336.298    -9966914.363 5  -6105786.673 4
  17194056.814   -34764083.349 7
  19992317.985   -10391317.150 5  -8009020.984 5
  20658410.282   -14085733.163 5 -10781779.793 5
  17383067.329   -32380312.720 7 -25080828.402 8
  18131674.267   -28243159.698 7 -21597565.262 7
  20891192.103    -7147063.910 3  -4837306.041 2
 95  2 14 19 42 29.9890000  0  8 28 31 18 14 22 29 19 27
  20172913.665   -12446428.579 5        -0.29215
  20111430.509   -10087288.309 5  -6199584.294 4
  17179797.446   -34839027.626 7 -24944608.505 8
  20005189.767   -10323656.282 5  -7956298.396 5
  20670377.439   -14022822.283 5 -10732758.355 5
  17379315.126   -32400037.966 7 -25096198.731 8
  18117213.657   -28319131.909 7 -21656764.345 7
  20869780.806    -7259579.149 3  -4924980.175 1
 95  2 14 19 42 59.9890000  0  7 28 31 14 22 29 19 27
  20158777.298   -12520695.982 5    -57870.866 6
  20088569.923   -10207428.140 5  -6293199.518 5
  20018095.095   -10255838.066 5  -7903453.191 5
  20682385.103   -13959733.657 5 -10683598.428 5
  17375638.962   -32419357.783 7 -25111253.142 8
  18102798.618   -28394895.201 7 -21715800.643 7
  20848393.978    -7371958.933 4  -5012548.749 1
 95  2 14 19 43 29.9890000  0  8 28 31 18 14 22 29 19 27
  20144736.860   -12594506.439 5   -115385.363 5
  20065752.337   -10327327.115 5  -6386627.053 5
  17151510.837          -0.72017
  20031022.774   -10187884.249 5  -7850502.320 5
  20694420.001   -13896481.250 5 -10634310.879 5
  17372037.681   -32438284.284 7 -25126001.076 8
  18088416.899   -28470475.937 7 -21774694.697 7
  20827034.774    -7484215.741 5  -5100021.514 2
 95  2 14 19 43 59.9890000  0  8 28 31 18 14 22 29 19 27
  20130785.704   -12667856.737 5   -172541.309 5
  20042981.024   -10446973.110 5  -6479857.458 5
  17137483.524      -73722.699 7        -0.11518
  20043985.134   -10119800.524 5  -7797450.225 5
  20706490.212   -13833069.810 5 -10584899.403 5
  17368514.235   -32456802.771 7 -25140431.095 8
  18074066.056   -28545877.388 7 -21833449.057 7
  20805697.743    -7596354.732 5  -5187402.457 3
 95  2 14 19 44 29.9890000  0  8 28 31 18 14 22 29 19 27
  20116910.087   -12740734.304 5   -229328.903 5
  20020266.282   -10566357.339 5  -6572883.891 5
  17123530.837     -147056.556 7    -57143.381 8
  20056969.064   -10051573.824 5  -7744286.739 5
  20718589.642   -13769491.594 5 -10535357.979 5
  17365071.048   -32474893.925 7 -25154528.116 8
  18059752.040   -28621092.792 7 -21892058.451 7
  20784381.321    -7708370.643 4  -5274687.500 2
 95  2 14 19 44 59.9890000  0  8 28 31 18 14 22 29 19 27
  20103132.603   -12813136.131 5   -285745.799 5
  19997596.243   -10685493.610 5  -6665717.142 5
  17109646.095     -220003.138 7   -113984.874 8
  20069974.314    -9983204.780 5  -7691012.307 5
  20730716.103   -13705743.241 5 -10485683.996 4
  17361712.603   -32492539.858 7 -25168278.218 8
  18045479.782   -28696116.156 7 -21950518.211 7
  20763080.243    -7820279.171 4  -5361888.862 2
 95  2 14 19 45 29.9890000  0  8 28 31 18 14 22 29 19 27
  20089449.634   -12885059.417 5   -341789.853 5
  19974968.353   -10804400.561 5  -6758371.712 5
  17095842.681     -292549.467 7   -170514.481 8
  20083014.985    -9914693.213 5  -7637626.832 5
  20742881.095   -13641833.738 5 -10435884.429 5
  17358442.259   -32509729.027 7 -25181672.398 8
  18031239.173   -28770927.808 7 -22008813.007 7
  20741806.556    -7932084.373 4  -5449009.729 2
 95  2 14 19 45 59.9890000  0  8 28 31 18 14 22 29 19 27
  20075853.243   -12956513.597 5   -397468.367 5
  19952377.821   -10923119.590 5  -6850879.856 5
  17082112.235     -364696.128 7   -226732.648 8
  20096075.087    -9846050.577 5  -7584139.229 5
  20755073.017   -13577769.973 5 -10385964.677 5
  17355255.720   -32526469.171 7 -25194716.686 8
  18017046.853   -28845534.501 7 -22066948.098 7
  20720552.782    -8043789.607 4  -5536052.682 2
 95  2 14 19 46 29.9890000  0  8 28 31 18 14 22 29 19 27
  20062343.228   -13027497.091 5   -452780.133 5
  19929819.868   -11041653.455 5  -6943243.739 5
  17068465.368     -436422.364 7   -282623.224 8
  20109165.837    -9777263.526 5  -7530539.096 5
  20767293.571   -13513551.137 5 -10335924.087 4
  17352154.275   -32542765.937 7 -25207415.481 8
  18002889.173   -28919920.450 7 -22124911.175 7
  20699307.657    -8155394.181 4  -5623017.311 2
 95  2 14 19 46 59.9890000  0  8 28 31 18 14 22 29 19 27
  20048925.525   -13097998.577 5   -507716.318 5
  19907299.517   -11159992.684 5  -7035455.952 5
  17054901.048     -507706.096 7   -338168.982 8
  20122287.517    -9708322.900 5  -7476819.305 5
  20779547.126   -13449172.835 5 -10285759.241 5
  17349140.735   -32558609.286 7 -25219760.964 8
  17988777.025   -28994068.684 7 -22182689.019 7
  20678092.478    -8266887.696 4  -5709895.303 3
 95  2 14 19 47 29.9890000  0  8 28 31 18 14 22 29 19 27
  20035604.423   -13168024.353 5   -562281.824 5
  19884817.165   -11278130.344 5  -7127511.133 5
  17041417.876     -578557.554 7   -393377.902 8
  20135434.150    -9639239.993 5  -7422988.633 5
  20791822.532   -13384650.454 5 -10235482.142 5
  17346209.868   -32574009.602 7 -25231761.231 8
  17974710.939   -29067989.594 7 -22240289.738 7
  20656899.923    -8378262.286 5  -5796680.636 3
 95  2 14 19 47 59.9890000  0  8 28 31 18 14 22 29 19 27
  20022368.025   -13237570.488 5   -616473.591 5
  19862381.618   -11396038.996 5  -7219387.865 5
  17028018.509     -648974.933 7   -448248.570 8
  20148601.954    -9570024.492 5  -7369054.653 5
  20804128.587   -13319982.508 5 -10185091.599 5
  17343365.298   -32588955.940 7 -25243407.749 8
  17960685.501   -29141689.917 7 -22297718.558 7
  20635725.610    -8489526.980 4  -5883380.323 4
 95  2 14 19 48 29.9880000  0  7 28 31 14 22 29 19 27
  20009226.270   -13306632.075 5   -670287.785 5
  19839992.629   -11513689.133 5  -7311063.160 4
  20161798.707    -9500682.631 5  -7315022.200 5
  20816458.918   -13255177.016 5 -10134593.887 4
  17340609.785   -32603440.520 7 -25254694.453 8
  17946711.184   -29215160.276 7 -22354968.178 7
  20614572.152    -8600689.438 4  -5970000.380 5
 95  2 14 19 48 59.9880000  0  8 28 31 18 14 22 29 19 27
  19996176.504   -13375214.244 5   -723728.413 5
  19817653.191   -11631082.244 5  -7402538.164 5
  17001458.949          -0.73517
  20175013.793    -9431231.149 5  -7260904.342 5
  20828815.731   -13190235.814 5 -10083990.435 4
  17337942.426   -32617457.525 7 -25265616.811 8
  17932763.699   -29288422.609 7 -22412055.695 7
  20593440.348    -8711767.054 5  -6056554.286 4
 95  2 14 19 49 29.9880000  0  8 28 31 18 14 22 29 19 27
  19983217.856   -13443306.024 5   -776786.907 5
  19795365.293   -11748194.328 5  -7493794.175 4
  16988296.301      -69172.148 7        -0.49018
  20188247.840    -9361674.082 5  -7206704.188 5
  20841202.090   -13125159.892 5 -10033282.002 3
  17335363.598   -32631007.860 7 -25276175.522 8
  17918866.902   -29361468.084 7 -22468974.225 7
  20572319.113    -8822756.882 5  -6143039.804 3
 95  2 14 19 49 59.9880000  0  8 28 31 18 14 22 29 19 27
  19970347.160   -13510931.107 6   -829481.753 5
  19773129.660   -11865047.583 5  -7584848.522 5
  16975207.387     -137962.341 7    -53603.212 8
  20201501.856    -9292036.682 5  -7152441.461 4
  20853605.231   -13059967.768 5  -9982483.018 3
  17332864.902   -32644133.889 7 -25286403.605 8
  17904998.895   -29434331.132 7 -22525750.599 7
  20551202.926    -8933703.543 5  -6229491.653 4
 95  2 14 19 50 29.9880000  0  8 28 31 18 14 22 29 19 27
  19957576.363   -13578070.511 5   -881798.153 6
  19750947.496   -11981630.848 5  -7675692.472 4
  16962189.106     -206359.183 7   -106899.428 8
  20214775.137    -9222293.831 5  -7098096.556 4
  20866036.676   -12994650.743 5  -9931586.698 5
  17330446.371   -32656839.811 7 -25296304.321 8
  17891171.699   -29506998.339 7 -22582374.361 7
  20530101.746    -9044577.445 5  -6315886.832 3
 95  2 14 19 50 59.9880000  0  8 28 31 18 14 22 29 19 27
  19944892.246   -13644727.510 5   -933738.643 5
  19728810.262   -12097947.812 5  -7766328.947 5
  16949245.738     -274368.468 7   -159893.656 8
  20228063.145    -9152459.736 5  -7043680.546 4
  20878490.442   -12929210.722 5  -9880594.535 5
  17328106.223   -32669139.799 7 -25305888.735 8
  17877381.598   -29579480.904 7 -22638854.244 7
  20509021.574    -9155380.527 5  -6402226.820 3
 95  2 14 19 51 29.9880000  0  8 28 31 18 14 22 29 19 27
  19932296.785   -13710909.292 5   -985308.813 6
  19706726.832   -12214012.030 5  -7856768.450 5
  16936377.856     -341990.699 7   -212586.281 8
  20241369.317    -9082539.589 5  -6989197.519 4
  20890963.277   -12863652.121 5  -9829509.959 5
  17325840.395   -32681051.485 7 -25315170.555 8
  17863620.082   -29651785.096 7 -22695195.122 7
  20487947.231    -9266117.640 5  -6488515.393 4
 95  2 14 19 51 59.9880000  0  8 28 31 18 14 22 29 19 27
  19919795.262   -13776613.769 5  -1036507.078 6
  19684682.988   -12329837.269 5  -7947021.740 5
  16923587.824     -409220.640 7   -264973.224 8
  20254692.199    -9012535.798 5  -6934649.272 5
  20903465.473   -12797966.265 5  -9778326.247 4
  17323650.293   -32692560.480 7 -25324138.611 8
  17849893.777   -29723905.073 7 -22751392.443 7
  20466889.652    -9376780.151 5  -6574745.801 5
 95  2 14 19 52 29.9880000  0  8 28 31 18 14 22 29 19 27
  19907379.004   -13841842.845 5  -1087334.892 5
  19662689.356   -12445429.655 5  -8037093.571 5
  16910869.621     -476057.605 7   -317053.951 8
  20268023.926    -8942467.563 5  -6880050.873 4
  20915982.668   -12732165.640 4  -9727053.104 4
  17321538.285   -32703657.917 7 -25332785.965 8
  17836208.488   -29795823.892 7 -22807433.041 7
  20445847.215    -9487350.221 5  -6660904.205 4
 95  2 14 19 52 59.9880000  0  8 28 31 18 14 22 29 19 27
  19895057.941   -13906592.964 5  -1137789.520 5
  19640737.910   -12560787.377 5  -8126982.578 4
  16898224.402     -542488.028 7   -368817.894 8
  20281369.559    -8872328.086 5  -6825396.895 4
  20928523.785   -12666253.339 5  -9675692.922 4
  17319505.645   -32714338.612 7 -25341108.587 8
  17822564.434   -29867540.680 7 -22863316.192 7
  20424822.199    -9597831.662 5  -6746993.529 5
 95  2 14 19 53 29.9880000  0  8 28 31 18 14 22 29 19 27
  19882823.652   -13970873.113 5  -1187877.915 6
  19618828.356   -12675919.760 5  -8216695.990 5
  16885663.910     -608507.180 7   -420261.363 8
  20294732.160    -8802116.901 4  -6770687.098 3
  20941085.293   -12600258.766 5  -9624268.625 4
  17317550.973   -32724608.414 7 -25349111.036 8
  17808951.543   -29939067.175 7 -22919051.072 7
  20403814.215    -9708230.922 5  -6833018.851 4
 95  2 14 19 53 59.9880000  0  8 28 31 18 14 22 29 19 27
  19870679.731   -14034673.768 6  -1237592.689 6
  19596963.559   -12790807.152 5  -8306218.491 5
  16873186.160     -674085.777 7   -471361.541 8
  20308106.973    -8731828.285 5  -6715916.938 3
  20953661.231   -12534190.161 5  -9572786.648 4
  17315676.356   -32734462.153 7 -25356789.280 8
  17795377.668   -30010390.877 7 -22974627.926 7
  20382825.684    -9818527.974 5  -6918964.500 4
 95  2 14 19 54 29.9880000  0  8 28 31 18 14 22 29 19 27
  19858627.824   -14097999.992 5  -1286937.772 5
  19575151.348   -12905429.411 5  -8395534.399 5
  16860790.535     -739220.808 7   -522116.092 8
  20321501.465    -8661465.144 5  -6661088.726 4
  20966240.277   -12468074.255 5  -9521267.803 4
  17313877.316   -32743920.563 7 -25364159.488 8
  17781841.309   -30081537.356 7 -23030066.694 7
  20361850.856    -9928738.349 4  -7004842.606 5
 95  2 14 19 54 59.9880000  0  8 28 31 18 14 22 29 19 27
  19846670.902   -14160854.558 5  -1335915.325 5
  19553391.317   -13019787.232 5  -8484644.251 5
  16848479.301     -803916.354 7   -572528.185 8
  20334901.481    -8591029.729 5  -6606204.173 4
  20978829.207   -12401918.736 5  -9469718.108 4
  17312150.856   -32752983.827 7 -25371221.782 8
  17768328.574   -30152533.182 7 -23085388.073 7
  20340892.176   -10038886.332 5  -7090672.123 3
 95  2 14 19 55 29.9880000  0  8 28 31 18 14 22 29 19 27
  19834802.410   -14223229.223 5  -1384518.922 5
  19531683.168   -13133862.014 5  -8573533.560 5
  16836251.668     -868176.993 7   -622601.389 8
  20348315.184    -8520545.813 5  -6551281.852 3
  20991426.238   -12335715.293 5  -9418131.061 3
  17310504.856   -32761639.476 7 -25377966.456 8
  17754849.566   -30223366.422 7 -23140582.773 7
  20319947.465   -10148958.673 5  -7176442.686 4
 95  2 14 19 55 59.9880000  0  8 28 31 18 14 22 29 19 27
  19823025.785   -14285123.137 5  -1432747.921 5
  19510030.246   -13247651.420 5  -8662200.509 5
  16824096.543     -932029.766 7   -672356.776 8
  20361733.574    -8450027.430 5  -6496332.652 4
  21004041.207   -12269452.291 5  -9366497.610 5
  17308936.465   -32769883.082 7 -25384390.062 8
  17741407.465   -30294033.581 7 -23195648.063 7
  20299014.691   -10258963.297 5  -7262160.498 3
 95  2 14 19 56 29.9880000  0  8 28 31 18 14 22 29 19 27
  19811337.707   -14346532.227 6  -1480599.115 5
  19488430.551   -13361162.836 5  -8750650.823 5
  16812024.606     -995496.672 7   -721811.482 8
  20375159.176    -8379487.173 5  -6441366.428 3
  21016667.793   -12203112.704 5  -9314804.480 4
  17307448.512   -32777698.254 7 -25390479.822 8
  17727985.059   -30364543.275 7 -23250590.650 7
  20278089.895   -10368909.808 5  -7347833.037 5
 95  2 14 19 56 59.9880000  0  8 28 31 18 14 22 29 19 27
  19799747.606   -14407462.453 5  -1528077.167 5
  19466876.051   -13474425.044 5  -8838906.956 5
  16800015.231    -1058594.873 7   -770978.886 8
  20388582.863    -8308934.155 5  -6386390.231 2
  21029301.723   -12136687.654 5  -9263044.781 5
  17306045.238   -32785074.661 7 -25396227.695 8
  17714598.152   -30434886.727 7 -23305403.707 7
  20257178.590   -10478797.987 4  -7433460.101 4
 95  2 14 19 57 29.9880000  0  8 28 31 18 14 22 29 19 27
  19788238.863   -14467911.111 5  -1575179.957 5
  19445370.090   -13587434.936 5  -8926966.489 5
  16788077.668    -1121320.457 7   -819855.943 8
  20402012.051    -8238361.481 5  -6331398.730 4
  21041958.309   -12070172.766 5  -9211215.064 4
  17304723.348   -32792020.053 7 -25401639.718 8
  17701249.668   -30505054.240 7 -23360079.675 7
  20236279.590   -10588618.566 4  -7519034.526 4
 95  2 14 19 57 59.9880000  0  8 28 31 18 14 22 29 19 27
  19776834.840   -14527870.226 5  -1621901.284 6
  19423913.285   -13700196.612 5  -9014832.593 5
  16776215.777    -1183649.361 7   -868423.895 8
  20415450.863    -8167747.393 4  -6276374.957 4
  21054636.051   -12003554.357 5  -9159304.703 3
  17303486.512   -32798526.945 7 -25406710.056 8
  17687931.840   -30575041.614 7 -23414615.272 7
  20215399.207   -10698363.726 5  -7604550.146 5
 95  2 14 19 58 29.9880000  0  8 28 31 18 14 22 29 19 27
  19765509.777   -14587335.411 5  -1668237.732 6
  19402500.277   -13812709.376 5  -9102504.754 5
  16764438.973    -1245553.813 7   -916661.108 8
  20428895.574    -8097088.444 4  -6221316.244 2
  21067330.645   -11936837.344 5  -9107317.491 4
  17302328.754   -32804607.266 7 -25411448.002 8
  17674646.520   -30644846.479 7 -23469008.656 7
  20194526.637   -10808028.876 5  -7690003.460 5
 95  2 14 19 58 59.9880000  0  8 28 31 18 14 22 29 19 27
  19754292.965   -14646316.974 5  -1714197.323 6
  19381139.098   -13924969.520 5  -9189980.073 5
  16752741.348    -1307026.858 7   -964562.157 8
  20442352.496    -8026393.096 4  -6166229.147 5
  21080038.887   -11870053.551 4  -9055278.222 3
  17301247.270   -32810287.727 7 -25415874.362 8
  17661396.402   -30714470.310 7 -23523260.972 7
  20173675.973   -10917630.615 5  -7775407.345 4
 95  2 14 19 59 29.9880000  0  8 28 31 18 14 22 29 19 27
  19743158.012   -14704818.888 5  -1759783.166 5
  19359828.051   -14036952.987 5  -9277239.785 5
  16741123.098    -1368061.152 7  -1012121.322 8
  20455801.715    -7955683.579 4  -6111131.040 4
  21092756.481   -11803220.392 3  -9003200.505 4
  17300239.809   -32815582.026 7 -25419999.821 8
  17648183.512   -30783923.392 7 -23577380.233 7
  20152825.676   -11027183.844 5  -7860773.439 4
 95  2 14 19 59 59.9880000  0  8 28 31 18 14 22 29 19 27
  19732117.770   -14762829.002 5  -1804985.809 6
  19338578.754   -14148641.066 5  -9364269.363 5
  16729598.941    -1428638.313 7  -1059324.274 8
  20469265.817    -7884956.628 4  -6056019.310 2
  21105484.410   -11736335.426 4  -8951082.434 3
  17299310.645   -32820476.800 7 -25423813.956 8
  17634997.262   -30853196.531 7 -23631359.280 7
  20131989.449   -11136686.257 5  -7946099.922 4
 95  2 14 20  0 29.9880000  0  8 28 31 18 14 22 29 19 27
  19721174.692   -14820350.922 5  -1849808.038 6
  19317381.715   -14260018.324 5  -9451056.730 5
  16718158.684    -1488760.820 7  -1106172.962 8
  20482723.606    -7814221.427 5  -6000901.186 4
  21118220.020   -11669418.213 3  -8898939.195 3
  17298451.059   -32824975.566 7 -25427319.515 8
  17621845.402   -30922300.251 7 -23685206.301 7
  20111157.762   -11246151.449 5  -8031397.395 4
 95  2 14 20  0 59.9880000  0  8 28 31 18 14 22 29 19 27
  19710323.801   -14877373.535 5  -1894241.195 6
  19296252.637   -14371057.164 5  -9537580.412 5
  16706805.543    -1548419.152 7  -1152659.956 8
  20496188.332    -7743471.454 5  -5945771.524 4
  21130959.660   -11602464.079 3  -8846767.202 3
  17297675.637   -32829055.558 7 -25430498.745 8
  17608727.770   -30991233.051 7 -23738920.137 7
  20090337.879   -11355564.234 5  -8116654.005 3
 95  2 14 20  1 29.9880000  0  8 28 31 18 14 22 29 19 27
  19699565.363   -14933901.674 5  -1938289.058 6
  19275186.660   -14481763.172 5  -9623844.715 5
  16695536.613    -1607634.597 7  -1198801.840 8
  20509655.652    -7672705.443 5  -5890629.359 3
  21143710.293   -11535467.246 3  -8794561.961 2
  17296978.949   -32832722.387 7 -25433356.032 8
  17595643.731   -31060011.366 7 -23792513.599 8
  20069529.988   -11464912.942 5  -8201860.722 5
 95  2 14 20  1 59.9880000  0  8 28 31 18 14 22 29 19 27
  19688901.457   -14989935.700 6  -1981951.913 6
  19254177.832   -14592158.399 5  -9709866.867 5
  16684348.410    -1666421.651 7  -1244609.909 8
  20523124.402    -7601908.789 5  -5835463.348 3
  21156463.606   -11468432.272 4  -8742326.968 1
  17296358.707   -32835974.956 7 -25435890.519 8
  17582584.910   -31128636.317 7 -23845987.535 8
  20048740.676   -11574184.305 5  -8287007.145 4
 95  2 14 20  2 29.9880000  0  8 28 31 18 14 22 29 19 27
  19678334.481   -15045471.316 5  -2025226.397 5
  19233229.512   -14702241.429 5  -9795645.754 5
  16673239.504    -1724801.014 7  -1290100.298 8
  20536602.129    -7531084.290 5  -5780275.631 2
  21169226.957   -11401355.459 4  -8690059.374 4
  17295819.887   -32838806.800 7 -25438097.170 8
  17569554.309   -31197101.132 7 -23899336.696 8
  20027959.957   -11683358.799 5  -8372078.061 4
 95  2 14 20  2 59.9880000  0  8 28 31 18 14 22 29 19 27
  19667860.707   -15100519.308 5  -2068120.902 6
  19212335.473   -14812036.159 5  -9881199.997 5
  16662200.481    -1782814.222 7  -1335305.372 8
  20550084.731    -7460250.845 4  -5725080.943 2
  21182006.973   -11334248.284 5  -8637768.127 3
  17295359.863   -32841236.116 7 -25439990.161 8
  17556554.988   -31265409.787 7 -23952564.177 7
  20007203.324   -11792448.238 5  -8457082.752 3
 95  2 14 20  3 29.9880000  0  8 28 31 18 14 22 29 19 27
  19657481.254   -15155071.327 5  -2110628.948 6
  19191497.746   -14921544.369 5  -9966530.966 5
  16651230.395    -1840455.629 7  -1380220.731 8
  20563569.207    -7389397.116 4  -5669870.471 2
  21194781.348   -11267106.777 5  -8585450.117 2
  17294973.738   -32843249.197 7 -25441558.802 8
  17543592.442   -31333541.828 7 -24005654.038 8
  19986455.059   -11901453.964 5  -8542022.198 2
 95  2 14 20  3 59.9880000  0  8 28 31 18 14 22 29 19 27
  19647197.059   -15209109.665 5  -2152736.712 6
  19170715.715   -15030756.351 5
  16640339.746    -1897682.843 7  -1424813.351 8
  20577053.340    -7318527.612 3  -5614647.687 3
  21207560.199   -11199927.239 4  -8533102.459 3
  17294675.285   -32844820.255 7 -25442783.014 8
  17530667.020   -31401468.468 7 -24058583.853 8
  19965728.606   -12010382.915 5
 95  2 14 20  4 29.9880000  0  8 28 31 18 14 22 29 19 27
  19637005.473   -15262649.295 6  -2194455.879 6
  19149989.004   -15139670.559 5
  16629532.785    -1954488.280 7  -1469077.311 8
  20590534.090    -7247680.451 4  -5559442.304 1
  21220348.996   -11132721.351 4  -8480734.309 4
  17294455.332   -32845974.606 7 -25443682.522 8
  17517774.942   -31469214.311 7 -24111372.788 8
  19945007.707   -12119269.894 5
 95  2 14 20  4 59.9880000  0  8 28 31 18 14 22 29 19 27
  19626910.340   -15315686.526 6  -2235783.563 6
  19129324.566   -15248266.991 5 -10221119.702 5
  16618811.988    -2010835.696 7  -1512984.375 8
  20604016.965    -7176851.625 4  -5504251.240 1
  21233145.637   -11065486.838 4  -8428343.840 2
  17294315.715   -32846707.303 7 -25444253.467 8
  17504914.926   -31536784.629 7 -24164024.957 8
  19924292.301   -12228129.134 5  -8796574.030 3
 95  2 14 20  5 29.9880000  0  8 28 31 18 14 22 29 19 27
  19616913.668   -15368220.118 6  -2276718.809 6
  19108721.270   -15356542.175 5 -10305489.891 5
  16608178.402    -2066690.202 7  -1556507.350 8
  20617490.106    -7106039.813 3  -5449073.422 2
  21245943.496   -10998220.740 4  -8375928.770 4
  17294259.981   -32847018.368 7
  17492092.816   -31604189.148 7 -24216547.932 8
  19903583.316   -12336960.390 5  -8881377.513 5
 95  2 14 20  5 59.9880000  0  8 28 31 18 14 22 29 19 27
  19607020.395   -15420235.531 6  -2317250.266 6
  19088180.965   -15464473.245 5 -10389591.943 5
  16597645.910    -2122046.497 7  -1599642.118 8
  20630962.098    -7035241.876 3  -5393906.406 1
  21258755.020   -10930899.125 3  -8323470.445 3
  17294276.699   -32846914.804 7
  17479295.934   -31671425.797 7 -24268940.103 8
  19882884.238   -12445740.337 5  -8966141.008 5
 95  2 14 20  6 29.9880000  0  8 28 31 18 14 22 29 19 27
  19597219.715   -15471740.992 6  -2357384.355 6
  19067709.262   -15572050.708 5 -10473418.452 5
  16587201.512    -2176938.665 7  -1642415.210 7
  20644432.738    -6964457.030 3  -5338749.596 1
  21271576.637   -10863535.217 4  -8270979.142 2
  17294374.676   -32846408.308 7 -25444020.516 8
  17466528.426   -31738514.702 7 -24321217.148 8
  19862194.621   -12554455.966 5  -9050854.410 5
 95  2 14 20  6 59.9880000  0  7 28 31 18 14 29 19 27
  19587514.473   -15522728.866 5  -2397115.131 6
  19047303.559   -15679278.411 5 -10556972.422 5
  16576839.621    -2231383.701 7  -1684839.891 7
  20657907.676    -6893658.425 3  -5283582.082 2
  17294550.691   -32845490.460 7 -25443305.317 8
  17453791.684   -31805444.159 7 -24373369.956 8
  19841524.918   -12663082.428 5  -9135498.326 5
 95  2 14 20  7 29.9880000  0  7 28 31 18 14 29 19 27
  19577906.934   -15573204.702 5  -2436446.902 6
  19026961.621   -15786176.068 6 -10640269.223 5
  16566558.129    -2285402.736 7  -1726932.631 7
  20671376.652    -6822859.697 4  -5228414.481 2
  17294800.027   -32844168.227 7 -25442275.017 8
  17441088.840   -31872212.399 7 -24425397.139 8
  19820869.629   -12771615.524 5  -9220069.458 4
 95  2 14 20  7 59.9880000  0  7 28 31 18 14 29 19 27
  19568406.551   -15623170.331 5  -2475381.112 6
  19006686.316   -15892732.248 6 -10723299.971 5
  16556359.598    -2339017.223 7  -1768710.136 7
  20684849.699    -6752068.740 4  -5173252.907 2
  17295130.410   -32842434.861 7 -25440924.356 8
  17428409.395   -31938815.149 7 -24477295.369 8
  19800234.574   -12880049.625 5  -9304563.473 5
 95  2 14 20  8 29.9870000  0  7 28 31 18 14 29 19 27
  19558993.312   -15672615.445 5  -2513909.731 6
  18986473.944   -15998943.795 6 -10806062.166 5
  16546234.101    -2392211.844 7  -1810160.469 7
  20698313.405    -6681285.268 4  -5118097.158 2
  17295542.960   -32840272.612 7 -25439239.503 8
  17415775.499   -32005235.099 7 -24529051.159 8
  19779623.093   -12988375.780 5  -9388973.378 5
 95  2 14 20  8 59.9870000  0  7 28 31 18 14 29 19 27
  19549680.288   -15721550.154 5  -2552040.631 6
  18966325.476   -16104833.855 6 -10888573.839 5
  16536193.226    -2444980.586 7  -1851278.944 7
  20711785.483    -6610523.139 4  -5062958.103 3
  17296032.132   -32837690.372 7 -25437227.382 8
  17403171.148   -32071468.388 7 -24580661.494 8
  19759026.405   -13096625.836 5  -9473323.973 5
 95  2 14 20  9 29.9870000  0  7 28 31 18 14 29 19 27
  19540464.405   -15769971.014 5  -2589771.145 5
  18946237.085   -16210388.840 6 -10970824.439 5
  16526236.663    -2497311.300 7  -1892056.106 7
  20725242.452    -6539806.379 4  -5007854.371 3
  17296605.109   -32834684.761 7 -25434885.359 8
  17390601.671   -32137508.326 7 -24632121.169 8
  19738437.062   -13204810.311 5  -9557623.464 5
 95  2 14 20  9 59.9870000  0  7 28 31 18 14 29 19 27
  19531354.898   -15817861.051 6  -2627088.039 5
  18926218.913   -16315589.752 6 -11052799.134 5
  16516363.726    -2549184.552 7  -1932476.803 7
  20738690.554    -6469125.349 3  -4952778.489 2
  17297258.710   -32831250.183 7 -25432209.086 8
  17378075.523   -32203347.947 7 -24683424.744 8
  19717865.523   -13312914.587 5  -9641860.472 5
 95  2 14 20 10 29.9870000  0  7 28 31 18 14 29 19 27
  19522336.554   -15865230.395 6  -2663999.217 5
  18906263.921   -16420450.323 6 -11134508.624 5
  16506579.796    -2600595.654 7  -1972537.381 7
  20752132.062    -6398494.812 3  -4897741.927 2
  17297990.148   -32827407.395 7 -25429214.719 8
  17365582.710   -32269001.300 7 -24734583.180 8
  19697302.382   -13420960.498 5  -9726051.999 5
 95  2 14 20 10 59.9870000  0  7 28 31 18 14 29 19 27
  19513426.460   -15912068.903 6  -2700496.751 6
  18886379.538   -16524942.805 6 -11215931.296 5
  16496890.702    -2651529.291 7  -2012225.908 7
  20765566.187    -6327898.363 3  -4842731.975 3
  17298802.148   -32823142.521 7 -25425891.453 8
  17353119.304   -32334470.029 7 -24785597.753 8
  19676753.304   -13528949.039 5  -9810198.830 5
 95  2 14 20 11 29.9870000  0  7 28 31 18 14 29 19 27
  19504617.046   -15958375.792 6  -2736580.015 6
  18866566.171   -16629062.783 6 -11297063.702 5
  16487285.202    -2701984.778 7  -2051541.847 7
  20778996.999    -6257336.768 3  -4787749.185 3
  17299691.749   -32818455.342 7 -25422239.122 8
  17340697.788   -32399767.270 7 -24836478.689 8
  19656217.351   -13636878.173 5  -9894299.350 5
 95  2 14 20 11 59.9870000  0  7 28 31 18 14 29 19 27
  19495901.773   -16004147.738 5  -2772246.434 6
  18846827.218   -16732792.585 6 -11377892.077 5
  16477774.726    -2751959.559 7  -2090483.220 7
  20792417.905    -6186801.275 3  -4732786.717 1
  17300666.710   -32813340.385 7 -25418253.447 8
  17328304.765   -32464893.561 7 -24887226.418 8
  19635690.882   -13744738.693 5  -9978346.414 5
 95  2 14 20 12 29.9870000  0  7 28 31 18 14 29 19 27
  19487294.538   -16049385.800 5  -2807496.837 6
  18827165.687   -16836122.018 6 -11458408.459 5
  16468358.194    -2801450.684 7  -2129047.708 7
  20805832.780    -6116292.396 3  -4677844.984 1
  17301723.124   -32807792.344 7 -25413930.310 8
  17315944.859   -32529844.336 7 -24937837.388 8
  19615176.405   -13852537.301 5 -10062345.256 5
 95  2 14 20 12 59.9870000  0  7 28 31 18 14 29 19 27
  19478790.562   -16094085.044 6  -2842327.374 6
  18807577.741   -16939051.907 6 -11538613.517 5
  16459034.124    -2850451.108 7  -2167229.843 7
  20819244.179    -6045810.433 3  -4622924.243 3
  17302862.718   -32801803.068 7 -25409263.354 8
  17303617.804   -32594613.574 7 -24988306.901 8
  19594674.476   -13960271.062 5 -10146293.570 5
 95  2 14 20 13 29.9870000  0  7 28 31 18 14 29 19 27
  19470386.007   -16138244.712 6  -2876737.451 6
  18788066.991   -17041588.598 6 -11618512.178 5
  16449806.718    -2898954.428 7  -2205024.616 7
  20832649.655    -5975365.617 3  -4568032.466 2
  17304083.468   -32795381.347 7 -25404259.424 8
  17291326.624   -32659203.599 7 -25038636.770 8
  19574188.640   -14067925.817 5 -10230180.332 5
 95  2 14 20 13 59.9870000  0  7 28 31 18 14 29 19 27
  19462090.851   -16181858.066 6  -2910721.838 6
  18768629.054   -17143719.492 6 -11698094.618 5
  16440670.202    -2946952.918 7  -2242426.018 7
  20846049.710    -5904960.815 3  -4513171.855 2
  17305389.515   -32788521.961 7 -25398914.453 8
  17279067.460   -32723613.628 7 -25088826.383 8
  19553718.702   -14175490.201 5 -10313996.673 5
 95  2 14 20 14 29.9870000  0  7 28 31 18 14 29 19 27
  19453888.851   -16224927.874 6  -2944282.652 6
  18749269.562   -17245463.478 6 -11777375.559 6
  16431635.187    -2994440.331 7  -2279429.183 7
  20859438.421    -5834604.476 2  -4458348.979 1
  17306778.718   -32781226.747 7 -25393229.873 8
  17266848.374   -32787839.463 7 -25138872.470 8
  19533267.585   -14282971.876 5 -10397748.542 5
 95  2 14 20 14 59.9870000  0  8 28 31 18 14  2 29 19 27
  19445800.382   -16267450.084 6  -2977416.782 6
  18729979.859   -17346821.578 6 -11856355.801 5
  16422692.663    -3041431.210 7  -2316045.436 7
  20872822.444    -5764291.535 2  -4403560.004 1
  21037136.202          -0.00713
  17308249.624   -32773492.736 7 -25387203.380 8
  17254659.569   -32851885.276 7 -25188778.278 8
  19512831.187   -14390365.277 5 -10481431.638 5
 95  2 14 20 15 29.9870000  0  8 28 31 18 14  2 29 19 27
  19437812.210   -16309423.219 6  -3010123.030 6
  18710769.413   -17447783.493 6 -11935027.332 6
  16413843.163    -3087949.304 7  -2352293.296 7
  20886189.483    -5694024.547 2  -4348806.788 3
  21011811.554     -133065.791 3        -0.46413
  17309803.734   -32765321.855 7 -25380836.474 8
  17242503.421   -32915759.629 7 -25238550.478 8
  19492415.765   -14497660.744 5 -10565038.433 5
 95  2 14 20 15 59.9870000  0  8 28 31 18 14  2 29 19 27
  19429926.054   -16350845.086 6  -3042399.729 6
  18691634.218   -17548346.809 6 -12013388.260 6
  16405073.062    -3134013.194 7  -2388187.218 7
  20899552.952    -5623797.937 3  -4294085.054 1
  20986523.241     -265976.823 2   -103567.208 4
  17311441.179   -32756716.962 7 -25374131.374 8
  17230388.062   -32979449.592 7 -25288178.997 8
  19472015.921   -14604865.706 5 -10648574.696 5
 95  2 14 20 16 29.9870000  0  8 28 31 18 14  2 29 19 27
  19422150.741   -16391722.227 6  -3074251.975 6
  18672569.983   -17648516.767 6 -12091442.677 6
  16396395.859    -3179634.053 7  -2423735.926 7
  20912907.640    -5553611.654 3  -4239394.723 1
  20961251.687     -398750.796 1   -207027.146 4
  17313161.804   -32747684.157 7 -25367092.833 8
  17218298.609   -33042963.955 7 -25337670.696 8
  19451626.976   -14711993.241 5 -10732050.624 4
 95  2 14 20 16 59.9870000  0  8 28 31 18 14  2 29 19 27
  19414480.335   -16432046.073 6  -3105673.074 6
  18653586.984   -17748271.041 6 -12169173.165 6
  16387797.452    -3224811.697 7  -2458939.267 7
  20926266.359    -5483454.994 3  -4184727.410 1
  20936020.374     -531379.255 2   -310373.706 4
  17314960.585   -32738226.777 7 -25359723.463 8
  17206243.843   -33106305.586 7 -25387027.790 8
  19431259.437   -14819033.660 5 -10815458.699 5
 95  2 14 20 17 29.9870000  0  8 28 31 18 14  2 29 19 27
  19406906.882   -16471831.137 6  -3136674.349 6
  18634686.765   -17847609.900 6 -12246579.961 6
  16379285.913    -3269538.121 7  -2493791.009 7
  20939606.663    -5413350.887 3  -4130101.109 1
  20910804.640     -663868.938 3   -413612.198 3
  17316838.944   -32728353.608 7 -25352030.101 8
  17194224.937   -33169472.426 7 -25436248.679 8
  19410905.085   -14926000.431 5 -10898809.371 4
 95  2 14 20 17 59.9870000  0  7 28 31 18  2 29 19 27
  19399436.921   -16511074.146 6  -3167253.256 6
  18615860.562   -17946519.778 6 -12323652.503 5
  16370867.437    -3313785.407 7  -2528269.392 7
  20885620.523     -796222.725 2   -516744.781 2
  17318797.148   -32718053.979 7 -25344004.434 8
  17182241.921   -33232441.189 7 -25485315.231 8
  19390562.710   -15032894.283 5 -10982103.243 5
 95  2 14 20 18 29.9870000  0  7 28 31 18  2 29 19 27
  19392071.679   -16549770.361 5  -3197406.108 5
  18597122.148   -18044992.394 6 -12400384.309 6
  16362538.444    -3357537.659 7  -2562362.055 7
  20860463.116     -928422.529 3   -619757.407 4
  17320843.476   -32707312.909 7 -25335634.792 8
  17170302.015   -33295200.523 7 -25534218.587 8
  19370237.929   -15139704.564 5 -11065332.007 5
 95  2 14 20 18 59.9870000  0  7 28 31 18  2 29 19 27
  19384819.913   -16587908.767 6  -3227124.303 6
  18578467.304   -18143026.617 6 -12476774.526 6
  16354309.257    -3400788.313 7  -2596063.862 7
  20835342.984    -1060446.076 4   -722632.671 2
  17322973.749   -32696120.957 7 -25326913.806 8
  17158398.858   -33357729.600 7 -25582942.525 8
  19349930.796   -15246418.025 5 -11148485.277 5
 95  2 14 20 19 29.9870000  0  7 28 31 18  2 29 19 27
  19377664.655   -16625500.915 5  -3256416.874 5
  18559891.077   -18240638.260 6 -12552835.460 6
  16346172.218    -3443539.706 7  -2629376.621 7
  20810246.890    -1192302.423 4   -825377.713 2
  17325188.374   -32684478.969 7 -25317842.160 8
  17146544.991   -33420040.688 7 -25631496.592 8
  19329639.421   -15353044.528 5 -11231570.809 5
 95  2 14 20 19 59.9870000  0  7 28 31 18  2 29 19 27
  19370611.773   -16662541.078 5  -3285279.302 6
  18541396.069   -18337837.481 6 -12628575.035 6
  16338130.991    -3485791.175 7  -2662299.828 7
  20785189.202    -1323974.622 4   -927979.293 3
  17327487.218   -32672397.018 7 -25308427.666 8
  17134727.859   -33482147.936 7 -25679891.828 9
  19309363.773   -15459582.394 5 -11314587.267 5
 95  2 14 20 20 29.9870000  0  7 28 31 18  2 29 19 27
  19363674.476   -16699028.024 6  -3313710.651 6
  18522976.265   -18434629.209 6 -12703997.096 6
  16330186.288    -3527543.705 7  -2694834.265 7
  20760174.780    -1455440.395 4  -1030420.047 2
  17329869.366   -32659880.377 7 -25298674.464 8
  17122941.523   -33544076.872 7 -25728148.115 8
  19289106.265   -15566032.168 5 -11397535.073 5
 95  2 14 20 20 59.9870000  0  7 28 31 18  2 29 19 27
  19356831.874   -16734968.987 5  -3341716.561 6
  18504636.515   -18531010.905 6 -12779099.658 6
  16322340.062    -3568796.848 7  -2726979.566 7
  20735193.718    -1586722.405 4  -1132717.596 2
  17332332.382   -32646944.423 7 -25288594.523 8
  17111180.562   -33605861.922 7 -25776292.290 8
  19268866.905   -15672408.332 5 -11480425.519 5
 95  2 14 20 21 29.9870000  0  7 28 31 18  2 29 19 27
  19350098.960   -16770359.124 5  -3369293.251 6
  18486376.710   -18626961.938 6 -12853866.642 6
  16314583.312    -3609536.780 7  -2758724.944 7
  20710244.718    -1717823.094 4  -1234873.872 3
  17334872.484   -32633590.287 7 -25278188.735 8
  17099454.366   -33667508.001 7 -25824328.177 8
  19248636.491   -15778707.861 5 -11563256.228 5
 95  2 14 20 21 59.9870000  0  7 28 31 18  2 29 19 27
  19343468.343   -16805195.287 6  -3396438.283 6
  18468200.687   -18722479.004 6 -12928295.471 6
  16306930.812    -3649763.972 7  -2790070.790 7
  20685328.069    -1848747.587 3  -1336892.870 2
  17337492.390   -32619823.084 7 -25267461.070 8
  17087748.835   -33729016.048 7 -25872256.514 8
  19228425.515   -15884929.504 5 -11646026.264 5
 95  2 14 20 22 29.9870000  0  7 28 31 18  2 29 19 27
  19336945.319   -16839478.214 6  -3423152.228 6
  18450109.038   -18817553.931 6 -13002379.796 5
  16299371.077    -3689476.082 7  -2821015.276 7
  20660445.640    -1979529.119 3  -1438800.503 2
  17340190.312   -32605637.792 7 -25256407.615 8
  17076074.132   -33790374.968 7 -25920068.645 8
  19208226.929   -15991072.307 5 -11728734.846 5
 95  2 14 20 22 59.9870000  0  7 28 31 18  2 29 19 27
  19330523.015   -16873208.699 5  -3449435.707 6
  18432103.937   -18912176.090 6 -13076111.313 6
  16291911.569    -3728680.750 7  -2851564.348 7
  20635582.866    -2110174.814 4  -1540602.266 1
  17342968.843   -32591042.800 7 -25245034.924 8
  17064428.577   -33851567.137 7 -25967750.841 9
  19188041.765   -16097142.577 5 -11811386.923 5
 95  2 14 20 23 29.9870000  0  7 28 31 18  2 29 19 27
  19324209.210   -16906402.524 5  -3475300.994 5
  18414178.960   -19006369.935 6 -13149509.078 6
  16284547.023    -3767395.841 7  -2881731.936 7
  20610746.163    -2240694.633 4  -1642305.960 2
  17345822.093   -32576056.430 7 -25233357.261 8
  17052815.796   -33912574.816 7 -26015289.278 8
  19167869.140   -16203153.224 5 -11893992.557 5
 95  2 14 20 23 59.9870000  0  7 28 31 18  2 29 19 27
  19317996.069   -16939048.693 5  -3500739.543 6
  18396340.734   -19100118.015 6 -13222559.485 6
  16277271.858    -3805617.228 7  -2911514.818 7
  20585936.163    -2371073.729 4  -1743899.934 1
  17348751.148   -32560661.568 7 -25221361.283 8
  17041247.421   -33973373.486 7 -26062664.840 9
  19147711.671   -16309084.348 5 -11976536.206 5
 95  2 14 20 24 29.9870000  0  7 28 31 18  2 29 19 27
  19311883.077   -16971155.672 5  -3525757.981 6
  18378584.148   -19193420.732 6 -13295262.852 6
  16270088.546    -3843364.980 7  -2940928.641 7
  20561147.749    -2501306.971 3  -1845380.280 1
  17351754.038   -32544876.032 7 -25209060.890 8
  17029719.015   -34033968.013 7 -26109881.336 8
  19127568.280   -16414943.488 5 -12059023.778 5
 95  2 14 20 24 59.9870000  0  7 28 31 18  2 29 19 27
  19305884.116   -17002713.614 5  -3550348.580 6
  18360913.944   -19286269.160 6 -13367612.215 6
  16262996.546    -3880633.811 7  -2969969.286 7
  20536404.405    -2631355.563 3  -1946716.683 1
  17354833.233   -32528690.859 7 -25196449.082 8
  17018228.062   -34094352.144 7 -26156933.885 9
  19107437.288   -16520728.179 5 -12141453.351 5
 95  2 14 20 25 29.9870000  0  7 28 31 18  2 29 19 27
  19299982.179   -17033727.541 5  -3574515.273 6
  18343327.413   -19378681.534 6 -13439621.795 6
  16255995.499    -3917428.121 7  -2998640.168 7
  20511690.429    -2761231.839 3  -2047918.790 2
  17357993.827   -32512090.957 7 -25183514.124 8
  17006772.687   -34154536.922 7 -26203831.090 9
  19087318.921   -16626436.335 5 -12223823.283 5
 95  2 14 20 25 59.9870000  0  7 28 31 18  2 29 19 27
  19294183.710   -17064195.671 5  -3598256.695 6
  18325831.273   -19470646.038 6 -13511282.379 6
  16249082.562    -3953758.754 7  -3026949.744 7
  20487008.687    -2890920.144 3  -2148974.424 2
  17361232.929   -32495067.729 7 -25170249.280 8
  16995352.960   -34214552.431 7 -26250596.390 8
  19067217.054   -16732074.714 5 -12306138.849 5
 95  2 14 20 26 29.9870000  0  7 28 31 18  2 29 19 27
  19288483.437   -17094125.688 5  -3621578.786 6
  18308414.265   -19562176.623 6 -13582604.857 6
  16242258.569    -3989622.878 7  -3054895.808 7
  20462358.523    -3020428.118 3  -2249889.517 2
  17364551.437   -32477628.287 7 -25156660.134 8
  16983959.327   -34274420.661 7 -26297246.938 8
  19047124.960   -16837667.273 5 -12388418.715 5
 95  2 14 20 26 59.9870000  0  7 28 31 18  2 29 19 27
  19282894.007   -17123508.152 5  -3644474.232 6
  18291081.390   -19653259.547 6 -13653578.483 6
  16235524.944    -4024995.877 7  -3082459.186 7
  20437760.062    -3149755.343 3  -2350663.761 4
  17367955.921   -32459736.753 7 -25142718.695 8
  16972597.523   -34334137.649 7 -26343779.623 8
  19027040.249   -16943207.069 5 -12470657.463 5
 95  2 14 20 27 29.9870000  0  7 28 31 18  2 29 19 27
  19277406.632   -17152345.485 5  -3666944.906 5
  18273832.569   -19743881.281 6 -13724192.735 6
  16228888.233    -4059873.336 7  -3109636.428 7
  20413175.546    -3278915.867 4  -2451308.112 4
  17371444.780   -32441403.828 7 -25128433.314 8
  16961260.601   -34393711.392 7 -26390200.696 8
  19006967.882   -17048685.044 5 -12552848.080 5
 95  2 14 20 27 59.9870000  0  7 28 31 18  2 29 19 27
  19272022.483   -17180641.303 5  -3688993.637 5
  18256679.968   -19834035.339 6 -13794442.577 6
  16222350.069    -4094242.847 7  -3136417.865 7
  20388631.874    -3407911.319 4  -2551823.805 4
  17375010.819   -32422660.926 7 -25113828.471 8
  16949947.429   -34453153.063 7 -26436518.855 8
  18986907.687   -17154104.730 5 -12634993.262 5
 95  2 14 20 28 29.9860000  0  7 28 31 18  2 29 19 27
  19266743.440   -17208392.407 5  -3710617.905 6
  18239616.268   -19923709.940 6 -13864318.799 6
  16215908.557    -4128084.348 7  -3162787.865 7
  20364112.291    -3536747.983 4  -2652215.773 5
  17378654.322   -32403518.227 7 -25098912.106 8
  16938667.924   -34512443.833 7 -26482719.434 8
  18966862.533   -17259448.937 6 -12717079.619 5
 95  2 14 20 28 59.9860000  0  7 28 31 18  2 29 19 27
  19261566.861   -17235599.791 5  -3731818.501 6
  18222639.760   -20012906.170 6 -13933822.279 6
  16209568.963    -4161407.479 7  -3188753.936 7
  20339626.151    -3665424.473 4  -2752482.926 5
  17382371.205   -32383983.346 7 -25083690.137 8
  16927414.846   -34571573.209 7 -26528794.248 8
  18946832.283   -17364709.539 5 -12799100.812 5
 95  2 14 20 29 29.9860000  0  7 28 31 18  2 29 19 27
  19256489.736   -17262261.389 5  -3752593.809 6
  18205757.299   -20101625.570 6 -14002954.193 6
  16203323.650    -4194224.655 7  -3214325.761 7
  20315176.572    -3793925.249 5  -2852613.162 4
  17386161.447   -32364067.828 7 -25068171.557 8
  16916194.947   -34630526.737 7 -26574732.046 9
  18926818.916   -17469871.223 5 -12881044.938 5
 95  2 14 20 29 59.9860000  0  7 28 31 18  2 29 19 27
  19251522.635   -17288379.898 5  -3772945.926 6
  18188965.338   -20189872.581 6 -14071718.014 6
  16197172.104    -4226547.592 7  -3239512.464 7
  20290754.518    -3922238.672 4  -2952597.414 4
  17390025.463   -32343759.678 7 -25052347.044 7
  16905011.385   -34689305.733 7 -26620533.842 8
  18906828.002   -17574935.363 5 -12962913.042 5
 95  2 14 20 30 29.9860000  0  7 28 31 18  2 29 19 27
  19246654.338   -17313957.030 5  -3792876.172 6
  18172261.260   -20277649.662 6 -14140115.657 6
  16191110.658    -4258399.979 7  -3264332.507 7
  20266373.447    -4050355.605 4  -3052428.561 4
  17393969.432   -32323032.713 7 -25036196.175 7
  16893859.197   -34747900.577 7 -26666192.148 8
  18886852.018   -17679903.281 5 -13044706.171 5
 95  2 14 20 30 59.9860000  0  7 28 31 18  2 29 19 27
  19241892.213   -17338980.009 5  -3812374.609 6
  18155647.408   -20364955.901 6 -14208146.422 6
  16185141.963    -4289771.652 7  -3288777.964 7
  20242037.924    -4178256.333 4  -3152091.236 3
  17397997.182   -32301867.035 7 -25019703.447 7
  16882749.838   -34806293.091 7 -26711692.793 8
  18866898.768   -17784767.592 5 -13126418.566 5
 95  2 14 20 31 29.9860000  0  7 28 31 18  2 29 19 27
  19237235.799   -17363459.865 5  -3831449.835 6
  18139119.096   -20451807.457 6 -14275822.883 6
  16179263.486    -4320663.229 7  -3312849.321 7
  20217736.838    -4305965.234 4  -3251604.458 3
  17402106.432   -32280275.558 7 -25002878.932 7
  16871669.900   -34864504.753 7 -26757052.521 8
  18846956.900   -17889557.816 5 -13208073.216 5
 95  2 14 20 31 59.9860000  0  7 28 31 18  2 29 19 27
  19232682.275   -17387393.047 5  -3850099.071 6
  18122680.908   -20538198.249 6 -14343140.319 6
  16173479.815    -4351055.427 7  -3336531.555 7
  20193471.971    -4433483.902 3  -3350969.447 5
  17406294.565   -32258259.912 7 -24985723.900 7
  16860627.080   -34922532.233 7 -26802268.729 8
  18827027.815   -17994285.665 5 -13289679.267 5
 95  2 14 20 32 29.9860000  0  7 28 31 18  2 29 19 27
  19228230.377   -17410788.727 5  -3868329.461 5
  18106326.908   -20624144.048 6 -14410111.011 6
  16167791.080    -4380956.771 7  -3359831.299 7
  20169234.611    -4560830.244 3  -3450200.132 5
  17410562.822   -32235840.798 7 -24968254.477 7
  16849620.416   -34980375.868 7 -26847341.675 8
  18807106.572   -18098975.106 6 -13371255.404 5
 95  2 14 20 32 59.9860000  0  7 28 31 18  2 29 19 27
  19223877.572   -17433650.891 5  -3886144.121 6
  18090058.150   -20709641.242 6 -14476732.151 6
  16162193.307    -4410359.977 7  -3382742.888 7
  20145036.354    -4688018.469 5  -3549307.646 4
  17414901.252   -32213040.833 7 -24950488.292 7
  16838647.291   -35038045.897 7 -26892279.343 8
  18787187.893   -18203637.139 5 -13452810.170 5
 95  2 14 20 33 29.9860000  0  7 28 31 18  2 29 19 27
  19219630.393   -17455966.329 5  -3903532.758 6
  18073876.815   -20794665.855 6 -14542985.047 6
  16156695.143    -4439263.562 7  -3405265.162 7
  20120857.783    -4815037.992 4  -3648283.694 4
  17419315.002   -32189844.757 7 -24932413.451 7
  16827703.893   -35095540.051 7 -26937079.970 8
  18767280.307   -18308257.978 5 -13534332.838 5
 95  2 14 20 33 59.9860000  0  7 28 31 18  2 29 19 27
  19215485.994   -17477749.433 5  -3920506.584 6
  18057786.236   -20879211.013 6 -14608864.332 6
  16151283.588    -4467687.999 7  -3427414.082 7
  20096716.760    -4941898.265 3  -3747135.676 3
  17423800.971   -32166267.134 6 -24914041.309 7
  16816798.080   -35152868.214 7 -26981751.259 8
  18747379.072   -18412842.249 5 -13615827.021 5
 95  2 14 20 34 29.9860000  0  7 28 31 18  2 29 19 27
  19211447.838   -17498980.478 6  -3937050.232 6
  18041798.557   -20963245.992 6 -14674346.067 6
  16145969.518    -4495621.296 7  -3449180.292 7
  20072610.846    -5068579.901 3  -3845848.482 4
  17428363.143   -32142298.551 6 -24895364.530 7
  16805921.275   -35210018.339 7 -27026283.809 8
  18727488.447   -18517367.457 5 -13697275.157 5
 95  2 14 20 34 59.9860000  0  7 28 31 18  2 29 19 27
  19207509.463   -17519666.278 5  -3953169.020 6
  18025899.799   -21046772.508 6 -14739431.604 6
  16140750.229    -4523052.358 7  -3470555.156 7
  20048538.807    -5195085.528 3  -3944424.120 4
  17432996.822   -32117947.980 6 -24876390.088 7
  16795077.361   -35266999.840 7 -27070684.965 9
  18707609.557   -18621831.381 6 -13778675.539 5
 95  2 14 20 35 29.9860000  0  7 28 31 18  2 29 19 27
  19203678.580   -17539808.624 6  -3968864.347 6
  18010102.182   -21129791.699 6 -14804121.806 6
  16135624.205    -4549971.104 7  -3491530.810 7
  20024498.440    -5321410.828 3  -4042859.279 4
  17437701.322   -32093222.415 6 -24857123.461 7
  16784268.549   -35323815.021 7 -27114956.523 8
  18687742.393   -18726223.400 5 -13860019.911 5
 95  2 14 20 35 59.9860000  0  7 28 31 18  2 29 19 27
  19199940.627   -17559431.334 5  -3984154.743 6
  17994399.385   -21212328.283 6 -14868435.969 6
  16130603.486    -4576382.853 7  -3512111.405 7
  20000495.916    -5447570.810 4  -4141165.607 3
  17442473.455   -32068144.899 6 -24837582.570 7
  16773480.369   -35380486.963 7 -27159116.467 8
  18667891.213   -18830559.526 6 -13941320.726 6
 95  2 14 20 36 29.9860000  0  7 28 31 18  2 29 19 27
  19196310.307   -17578533.235 5  -3999039.346 5
  17978780.986   -21294395.254 6 -14932384.189 6
  16125672.307    -4602283.381 7  -3532293.651 7
  19976518.986    -5573553.959 4  -4239334.193 2
  17447315.330   -32042703.438 7 -24817758.086 7
  16762723.213   -35437025.448 7 -27203172.424 8
  18648046.557   -18934828.068 6 -14022568.881 5
 95  2 14 20 36 59.9860000  0  7 28 31 18  2 29 19 27
  19192775.479   -17597091.900 6  -4013500.634 6
  17963258.541   -21375970.320 6 -14995949.103 6
  16120848.299    -4627639.286 7  -3552051.510 7
  19952584.307    -5699331.595 3  -4337342.645 3
  17452233.190   -32016859.723 6 -24797620.170 7
  16751992.174   -35493410.420 7 -27247108.757 8
  18628224.440   -19038994.043 6 -14103737.108 6
 95  2 14 20 37 29.9860000  0  7 28 31 18  2 29 19 27
  19189348.940   -17615103.244 6  -4027535.449 6
  17947831.604   -21457041.806 6 -15059121.629 6
  16116120.315    -4652471.964 7  -3571401.668 7
  19928686.190    -5824899.798 4  -4435187.865 3
  17457229.979   -31990599.437 6 -24777157.655 7
  16741294.268   -35549649.237 7 -27290931.193 8
  18608426.307   -19143045.188 6 -14184815.871 5
 95  2 14 20 37 59.9860000  0  7 28 31 18  2 29 19 27
  19186019.557   -17632589.455 5  -4041161.053 6
  17932493.799   -21537631.415 6 -15121918.662 6
  16111489.088    -4676817.684 7  -3590372.379 7
  19904828.525    -5950276.750 4  -4532884.143 2
  17462306.072   -31963927.522 6 -24756374.383 7
  16730612.205   -35605764.339 7 -27334657.249 8
  18588640.799   -19247009.663 6 -14265827.092 6
 95  2 14 20 38 29.9860000  0  7 28 31 18  2 29 19 27
  19182793.025   -17649556.670 5  -4054382.249 6
  17917248.510   -21617737.443 6 -15184338.888 6
  16106949.361    -4700680.489 7  -3608966.786 7
  19881004.729    -6075475.368 4  -4630441.442 4
  17467458.400   -31936856.782 7 -24735280.353 7
  16719960.299   -35661744.855 7 -27378278.425 8
  18568870.697   -19350906.790 6 -14346785.840 5
 95  2 14 20 38 59.9860000  0  7 28 31 18  2 29 19 27
  19179665.619   -17665989.853 5  -4067187.298 5
  17902104.572   -21697337.597 6 -15246364.925 6
  16102501.752    -4724049.351 7  -3627176.309 7
  19857215.252    -6200484.339 5  -4727850.952 4
  17472684.674   -31909388.352 7 -24713876.418 7
  16709337.260   -35717564.321 7 -27421774.112 8
  18549112.721   -19454729.829 6 -14427686.859 6
 95  2 14 20 39 29.9860000  0  7 28 31 18  2 29 19 27
  19176639.971   -17681896.462 5  -4079582.040 5
  17887051.150   -21776435.716 6 -15307999.774 6
  16098144.588    -4746944.668 7  -3645016.832 7
  19833465.518    -6325317.509 5  -4825123.479 3
  17477984.924   -31881536.787 6 -24692173.936 7
  16698749.838   -35773221.077 7 -27465143.007 8
  18529364.190   -19558498.814 6 -14508545.741 6
 95  2 14 20 39 59.9860000  0  7 28 31 18  2 29 19 27
  19173711.611   -17697278.064 5  -4091567.688 5
  17872095.174   -21855027.912 6 -15369240.383 6
  16093880.252    -4769348.684 7  -3662474.523 7
  19809742.190    -6449969.408 5  -4922254.762 3
  17483352.877   -31853322.087 6 -24670188.502 7
  16688192.557   -35828698.998 7 -27508372.552 8
  18509625.150   -19662236.433 6 -14589380.191 6
 95  2 14 20 40 29.9860000  0  7 28 31 18  2 29 19 27
  19170883.158   -17712139.859 5  -4103148.284 6
  17857237.807   -21933114.372 6 -15430086.921 6
  16089709.213    -4791263.703 7  -3679551.172 7
  19786053.986    -6574448.558 5  -5019251.422 3
  17488786.986   -31824771.223 6 -24647941.116 7
  16677669.049   -35883999.855 7 -27551464.126 8
  18489887.955   -19765950.836 6 -14670196.555 6
 95  2 14 20 40 59.9860000  0  7 28 31 18  2 29 19 27
  19168154.057   -17726477.361 5  -4114320.339 6
  17842474.197   -22010693.095 6 -15490537.819 6
  16085631.971    -4812700.503 7  -3696255.185 7
  19762406.135    -6698741.178 5  -5116102.736 4
  17494284.682   -31795869.876 6 -24625420.612 7
  16667177.463   -35939132.879 7 -27594424.913 8
  18470162.361   -19869628.583 6 -14750984.358 6
 95  2 14 20 41 29.9860000  0  7 28 31 18  2 29 19 27
  19165530.440   -17740280.738 5  -4125076.200 5
  17827809.307   -22087756.318 6 -15550587.035 6
  16081645.236    -4833638.557 7  -3712570.560 7
  19738789.088    -6822836.471 5  -5212800.248 5
  17499856.119   -31766597.685 6 -24602611.153 7
  16656720.205   -35994086.850 7 -27637246.178 8
  18450438.291   -19973267.058 6 -14831741.548 6
 95  2 14 20 41 59.9860000  0  7 28 31 18  2 29 19 27
  19162998.721   -17753556.957 5  -4135421.297 6
  17813239.760   -22164317.172 6 -15610244.790 6
  16077757.690    -4854070.748 7  -3728491.755 7
  19715212.080    -6946730.899 5  -5309341.249 5
  17505495.815   -31736962.693 6 -24579518.996 7
  16646295.229   -36048865.500 7 -27679930.825 8
  18430725.963   -20076860.668 6 -14912463.767 6
 95  2 14 20 42 29.9860000  0  7 28 31 18  2 29 19 27
  19160576.596   -17766295.525 5  -4145347.442 6
  17798769.088   -22240360.190 6 -15669499.024 6
  16073967.330    -4873999.607 7  -3744020.749 7
  19691676.463    -7070415.405 5  -5405718.656 5
  17511211.135   -31706935.946 6 -24556121.563 7
  16635903.315   -36103469.802 7 -27722479.609 8
  18411027.002   -20180380.187 6 -14993128.272 6
 95  2 14 20 42 59.9860000  0  7 28 31 18  2 29 19 27
  19158256.619   -17778501.469 5  -4154858.561 5
  17784397.932   -22315878.535 6 -15728344.436 6
  16070268.893    -4893438.018 7  -3759167.567 7
  19668177.752    -7193898.602 4  -5501939.147 5
  17516998.174   -31676514.627 6 -24532416.674 7
  16625543.822   -36157909.756 7 -27764900.339 8
  18391342.354   -20283824.270 6 -15073733.989 6
 95  2 14 20 43 29.9860000  0  7 28 31 18  2 29 19 27
  19156037.361   -17790160.279 5  -4163943.365 5
  17770131.893   -22390848.656 6 -15786762.667 6
  16066665.869    -4912366.780 7  -3773917.253 7
  19644719.955    -7317168.451 5  -5597993.429 5
  17522863.354   -31645699.384 6 -24508404.843 7
  16615216.440   -36212177.890 7 -27807187.173 8
  18371673.924   -20387172.916 6 -15154265.340 6
 95  2 14 20 43 59.9860000  0  7 28 31 18  2 29 19 27
  19153917.596   -17801279.538 5  -4172607.736 5
  17755970.236   -22465260.881 6 -15844746.175 6
  16063159.229    -4930802.059 7  -3788282.395 7
  19621306.307    -7440228.415 5  -5693884.159 5
  17528800.307   -31614501.549 6 -24484094.889 7
  16604920.822   -36266283.586 7 -27849347.418 8
  18352027.510   -20490417.722 6 -15234715.785 6
 95  2 14 20 44 29.9860000  0  7 28 31 18  2 29 19 27
  19151908.963   -17811847.460 5  -4180842.496 5
  17741917.377   -22539100.417 6 -15902283.436 6
  16059744.104    -4948738.664 7  -3802258.986 7
  19597927.940    -7563071.604 5  -5789605.921 5
  17534812.861   -31582904.367 6 -24459473.761 7
  16594658.104   -36320228.553 7 -27891382.435 8
  18332399.807   -20593559.682 6 -15315086.084 6
 95  2 14 20 44 59.9860000  0  7 28 31 18  2 29 19 27
  19150002.518   -17821869.736 5  -4188652.061 6
  17727974.963   -22612396.186 6 -15959396.996 6
  16056429.354    -4966167.671 7  -3815840.030 7
  19574591.236    -7685698.264 5  -5885158.992 5
  17540899.815   -31550919.966 6 -24434550.892 7
  16584421.611   -36374006.324 7 -27933287.169 8
  18312791.440   -20696604.303 6 -15395380.535 6
 95  2 14 20 45 29.9860000  0  8 28 31 18 16  2 29 19 27
  19148203.197   -17831347.637 5  -4196037.446 5
  17714123.783   -22685162.704 6 -16016098.145 6
  16053210.072    -4983078.255 7  -3829017.111 7
  20563286.057          -0.08512
  19551300.955    -7808096.805 5  -5980534.340 4
  17547059.143   -31518549.378 6 -24409327.100 7
  16574220.721   -36427607.566 7 -27975054.352 8
  18293200.799   -20799551.348 6 -15475598.964 6
 95  2 14 20 45 59.9860000  0  8 28 31 18 16  2 29 19 27
  19146499.463   -17840277.661 5  -4202995.906 6
  17700379.596   -22757397.410 6 -16072384.919 6
  16050092.018    -4999462.803 7  -3841784.291 7
  20544238.963     -100108.037 3        -0.27311
  19528041.697    -7930266.507 5  -6075731.311 5
  17553294.588   -31485783.165 6 -24383795.035 7
  16564058.229   -36481013.406 7 -28016669.275 8
  18273626.885   -20902416.210 6 -15555753.361 6
 95  2 14 20 46 29.9860000  0  8 28 31 18 16  2 29 19 27
  19144903.244   -17848657.151 5  -4209525.385 5
  17686734.666   -22829104.125 6 -16128260.270 6
  16047076.041    -5015315.186 7  -3854136.808 7
  20525273.143     -199764.528 2    -77654.644 1
  19504848.322    -8052205.913 5  -6170748.873 5
  17559605.979   -31452619.466 6 -24357953.256 7
  16553934.721   -36534217.595 7 -28058127.072 8
  18254064.143   -21005211.341 6 -15635853.414 6
 95  2 14 20 46 59.9860000  0  8 28 31 18 16  2 29 19 27
  19143407.041   -17856500.419 5  -4215637.042 5
  17673188.315   -22900282.878 6 -16183724.241 6
  16044158.846    -5030643.727 7  -3866081.133 7
  20506397.752     -298966.126 3   -154954.568 1
  19481682.080    -8173927.049 5  -6265596.346 5
  17565986.830   -31419088.328 6 -24331825.151 7
  16543849.650   -36587226.877 7 -28099432.993 8
  18234516.400   -21107947.358 6 -15715907.409 6
 95  2 14 20 47 29.9860000  0  8 28 31 18 16  2 29 19 27
  19142020.275   -17863804.732 5  -4221328.729 6
  17659752.861   -22970904.315 6 -16238753.946 6
  16041340.775    -5045447.419 7  -3877616.489 7
  20487610.947     -397685.907 3   -231879.006 1
  19458559.791    -8295426.634 5  -6360271.198 5
  17572434.752   -31385193.331 6 -24305413.517 7
  16533796.221   -36640048.578 7 -28140592.764 8
  18214975.830   -21210626.947 6 -15795917.438 6
 95  2 14 20 47 59.9860000  0  8 28 31 18 16  2 29 19 27
  19140734.526   -17870571.966 5  -4226601.905 5
  17646415.666   -23040965.149 6 -16293346.798 6
  16038625.440    -5059718.687 7  -3888736.980 8
  20468915.721     -495939.654 3   -308440.312 1
  19435481.361    -8416713.857 5  -6454780.581 5
  17578956.408   -31350934.456 6 -24278718.366 7
  16523777.783   -36692693.270 7 -28181614.598 8
  18195448.416   -21313254.459 6 -15875886.883 6
 95  2 14 20 48 29.9850000  0  8 28 31 18 16  2 29 19 27
  19139549.528   -17876804.864 5  -4231458.725 6
  17633191.458   -23110468.807 6 -16347505.490 6
  16036010.927    -5073457.429 7  -3899442.508 7
  20450295.982     -593752.213 3   -384657.844 1
  19412440.708    -8537781.978 5  -6549119.221 4
  17585542.216   -31316314.454 6 -24251741.802 6
  16513792.208   -36745176.424 7 -28222510.565 8
  18175932.552   -21415805.439 6 -15955796.713 6
 95  2 14 20 48 59.9850000  0  8 28 31 18 16  2 29 19 27
  19138467.591   -17882513.753 5  -4235907.226 6
  17620071.325   -23179427.440 6 -16401239.464 6
  16033497.435    -5086669.395 7  -3909737.557 7
  20431762.489     -691141.732 3   -460545.706 2
  19389448.419    -8658639.637 5  -6643293.880 5
  17592198.052   -31281340.051 6 -24224489.081 6
  16503829.653   -36797515.405 7 -28263294.189 8
  18156433.302   -21518270.066 6 -16035639.242 6
 95  2 14 20 49 29.9850000  0  8 28 31 18 16  2 29 19 27
  19137478.427   -17887689.192 5  -4239940.056 5
  17607053.325   -23247832.424 6 -16454542.029 6
  16031082.192    -5099348.056 7  -3919617.051 8
  20413313.232     -788105.883 3   -536102.149 1
  19366484.802    -8779265.966 5  -6737288.266 4
  17598925.950   -31245988.093 6 -24196942.175 6
  16493902.474   -36849697.836 7 -28303955.821 8
  18136953.497   -21620633.345 6 -16115402.801 6
 95  2 14 20 49 59.9850000  0  8 28 31 18 16  2 29 19 27
  19136592.013   -17892344.482 5  -4243567.588 5
  17594140.161   -23315699.184 6 -16507425.184 6
  16028768.575    -5111509.343 7  -3929093.396 8
  20394939.325     -884665.909 3   -611343.664 1
  19343571.560    -8899670.479 5  -6831109.833 5
  17605724.677   -31210260.919 6 -24169102.867 6
  16484000.388   -36901730.713 7 -28344500.921 8
  18117491.794   -21722916.512 6 -16195103.941 6
 95  2 14 20 50 29.9850000  0  8 28 31 18 16  2 29 19 27
  19135803.857   -17896467.838 5  -4246780.625 5
  17581330.286   -23383011.764 6 -16559876.517 6
  16026552.497    -5123155.701 7  -3938168.503 8
  20376645.302     -980790.821 3   -686246.121 1
  19320713.560    -9019832.238 5  -6924742.231 5
  17612595.708   -31174154.137 6 -24140967.785 6
  16474132.497   -36953584.616 7 -28384906.558 8
  18098045.763   -21825103.021 6 -16274729.767 6
 95  2 14 20 50 59.9850000  0  8 28 31 18 16  2 29 19 27
  19135116.091   -17900069.952 5  -4249587.516 5
  17568623.419   -23449784.631 6 -16611907.292 6
  16024431.841    -5134306.862 7  -3946857.746 8
  20358442.364    -1076468.652 3   -760800.242 2
  19297890.114    -9139760.985 5  -7018193.071 4
  17619536.466   -31137687.421 6 -24112552.228 6
  16464298.677   -37005254.837 7 -28425169.070 8
  18078612.989   -21927222.112 6 -16354303.037 6
 95  2 14 20 51 29.9850000  0  8 28 31 18 16  2 29 19 27
  19134535.372   -17903136.638 5  -4251977.185 5
  17556019.544   -23516003.018 6 -16663505.991 6
  16022405.099    -5144964.457 7  -3955162.386 8
  20340324.833    -1171677.199 3   -834988.707 1
  19275110.614    -9259452.290 5  -7111458.899 5
  17626545.544   -31100843.877 6 -24083843.030 6
  16454508.192   -37056719.403 7 -28465271.310 8
  18059190.091   -22029285.151 6 -16433832.638 6
 95  2 14 20 51 59.9850000  0  8 28 31 18 16  2 29 19 27
  19134051.521   -17905674.430 5  -4253954.741 5
  17543526.521   -23581670.872 6 -16714675.703 7
  16020468.864    -5155141.510 7  -3963092.582 8
  20322293.114    -1266416.670 3   -908811.601 1
  19252381.216    -9378924.489 5  -7204553.980 5
  17633625.271   -31063637.055 6 -24054850.771 7
  16444751.247   -37107982.540 7 -28505216.603 8
  18039783.271   -22131285.245 6 -16513313.182 6
 95  2 14 20 52 29.9850000  0  8 28 31 18 16  2 29 19 27
  19133670.388   -17907688.743 5  -4255524.375 6
  17531137.771   -23646788.949 6 -16765417.025 7
  16018620.021    -5164848.310 7  -3970656.347 8
  20304357.255    -1360679.981 3   -982263.497 1
  19229679.255    -9498196.283 5  -7297492.938 4
  17640773.646   -31026076.930 6 -24025583.201 6
  16435033.021   -37159046.942 7 -28545007.031 8
  18020385.419   -22233204.663 6 -16592730.888 6
 95  2 14 20 52 59.9850000  0  8 28 31 18 16  2 29 19 27
  19133388.052   -17909175.928 5  -4256683.249 6
  17518852.950   -23711333.654 6 -16815711.563 7
  16016863.896    -5174075.484 7  -3977846.381 8
  20286513.607    -1454467.224 3  -1055344.404 2
  19207023.278    -9617264.595 5  -7390273.346 5
  17647992.638   -30988148.919 6 -23996028.971 6
  16425351.396   -37209928.569 7 -28584655.033 8
  18001008.028   -22335040.127 6 -16672083.159 6
 95  2 14 20 53 29.9850000  0  8 28 31 18 16  2 29 19 27
  19133204.364   -17910142.052 5  -4257436.070 6
  17506679.005   -23775293.394 6 -16865550.276 7
  16015202.903    -5182810.777 7  -3984653.122 8
  20268752.903    -1547795.602 3  -1128067.804 1
  19184403.067    -9736131.736 5  -7482896.989 5
  17655278.732   -30949850.402 6 -23966186.037 6
  16415702.638   -37260636.134 7 -28624167.399 8
  17981646.536   -22436776.792 6 -16751358.438 6
 95  2 14 20 53 59.9850000  0  8 28 31 18 16  2 29 19 27
  19133112.528   -17910599.636 5
  17494619.622   -23838678.311 6 -16914941.069 7
  16013634.232    -5191044.764 7  -3991069.240 7
  20251076.982    -1640680.664 3  -1200445.739 2
  19161818.208    -9854806.447 5  -7575370.708 5
  17662634.966   -30911198.755 6 -23936067.939 6
  16406084.560   -37311181.681 7 -28663553.518 8
  17962308.513   -22538409.075 6 -16830552.368 6
 95  2 14 20 54 29.9850000  0  8 28 31 18 16  2 29 19 27
  19133131.005   -17910525.874 5
  17482672.919   -23901463.906 6 -16963864.866 7
  16012170.528    -5198741.048 7  -3997066.365 8
  20233489.192    -1733095.426 3  -1272457.186 2
  19139281.505    -9973246.298 5  -7667661.422 5
  17670059.880   -30872181.284 6 -23905664.770 6
  16396500.692   -37361539.303 7 -28702793.202 8
  17942987.950   -22639931.560 6 -16909660.756 6
 95  2 14 20 54 59.9850000  0  8 28 31 18 16  2 29 19 27
  19133242.310   -17909939.900 5  -4257278.642 5
  17470831.771   -23963673.149 6 -17012339.559 7
  16010806.786    -5205911.270 7  -4002653.579 8
  20215988.091    -1825070.591 3  -1344126.130 1
  19116789.435   -10091448.679 5  -7759767.112 5
  17677549.239   -30832820.536 6 -23874994.121 6
  16386952.521   -37411723.977 7 -28741898.121 8
  17923684.692   -22741373.115 6 -16988706.075 6
 95  2 14 20 55 29.9850000  0  8 28 31 18 16  2 29 19 27
  19133454.982   -17908832.629 5  -4256415.861 5
  17459103.349   -24025314.447 6 -17060371.710 7
  16009544.552    -5212536.878 7  -4007816.408 8
  20198567.997    -1916598.894 3  -1415446.861 1
  19094340.028   -10209406.156 5  -7851681.972 5
  17685105.497   -30793108.786 6 -23844049.980 6
  16377438.716   -37461712.408 7 -28780850.122 8
  17904399.950   -22842724.328 6 -17067680.985 6
 95  2 14 20 55 59.9850000  0  8 28 31 18 16  2 29 19 27
  19133759.560   -17907222.673 5  -4255161.367 5
  17447475.021   -24086406.931 6 -17107976.206 7
  16008382.653    -5218640.671 7  -4012572.640 8
  20181234.114    -2007682.475 3  -1486421.055 1
  19071936.958   -10327131.715 5  -7943416.122 5
  17692726.380   -30753067.452 6 -23812849.005 6
  16367961.864   -37511521.611 7 -28819662.473 9
  17885122.786   -22944016.918 6 -17146610.221 6
 95  2 14 20 56 29.9850000  0  8 28 31 18 16  2 29 19 27
  19134160.169   -17905103.703 5  -4253510.215 5
  17435957.403   -24146937.070 6 -17155142.506 7
  16007320.833    -5224222.822 7  -4016922.393 8
  20163991.302    -2098310.784 3  -1557040.477 1
  19049587.982   -10444608.178 5  -8034956.200 5
  17700412.552   -30712687.970 6 -23781384.545 6
  16358515.739   -37561158.443 7 -28858340.511 8
  17865859.013   -23045245.273 6 -17225489.404 6
 95  2 14 20 56 59.9850000  0  8 28 31 18 16  2 29 19 27
  19134662.255   -17902469.816 5  -4251457.851 6
  17424546.114   -24206895.158 6 -17201863.053 7
  16006359.927    -5229275.349 7  -4020859.460 8
  20146835.364    -2188476.366 3  -1627299.351 2
  19027276.396   -10561839.036 5  -8126304.905 5
  17708161.825   -30671954.479 6 -23749644.249 6
  16349102.067   -37610627.237 7 -28896887.615 8
  17846611.825   -23146395.676 6 -17304307.837 6
 95  2 14 20 57 29.9850000  0  8 28 31 18 16  2 29 19 27
  19135259.474   -17899332.554 5  -4249013.258 5
  17413248.607   -24266285.764 6 -17248141.417 7
  16005496.982    -5233814.252 7  -4024396.289 8
  20129760.075    -2278181.996 3  -1697199.820 1
  19005013.122   -10678843.915 5  -8217477.506 5
  17715976.661   -30630879.475 6 -23717637.828 6
  16339716.216   -37659944.302 7 -28935316.489 9
  17827376.114   -23247485.515 6 -17383079.093 6
 95  2 14 20 57 59.9850000  0  8 28 31 18 16  2 29 19 27
  19135954.599   -17895686.514 5  -4246172.217 5
  17402055.622   -24325096.523 6 -17293967.946 7
  16004724.216    -5237862.845 7  -4027551.060 7
  20112780.317    -2367423.966 3  -1766738.992 1
  18982791.333   -10795616.806 5  -8308469.363 5
  17723857.692   -30589476.425 6 -23685375.786 6
  16330360.372   -37709112.724 7 -28973629.536 8
  17808149.271   -23348510.220 6 -17461799.583 6
 95  2 14 20 58 29.9850000  0  8 28 31 18 16  2 29 19 27
  19136743.247   -17891538.055 5  -4242939.702 5
  17390973.607   -24383331.573 6 -17339345.881 7
  16004046.536    -5241439.028 7  -4030337.721 7
  20095881.739    -2456211.139 3  -1835923.788 2
  18960611.778   -10912169.586 5  -8399289.676 5
  17731794.607   -30547759.578 6 -23652869.225 6
  16321030.552   -37758134.331 7 -29011828.182 8
  17788938.739   -23449467.618 6 -17540467.629 6
 95  2 14 20 58 59.9850000  0  8 28 31 18 16  2 29 19 27
  19137628.458   -17886888.380 5  -4239316.608 5
  17380002.130   -24440996.251 6 -17384279.368 7
  16003456.333    -5244548.578 7  -4032760.775 8
  20079073.950    -2544549.807 3  -1904759.094 1
  18938470.521   -11028510.198 5  -8489944.703 5
  17739794.169   -30505732.004 6 -23620120.536 6
  16311732.692   -37806993.689 7 -29049900.404 9
  17769737.849   -23550361.386 6 -17619086.101 6
 95  2 14 20 59 29.9850000  0  8 28 31 18 16  2 29 19 27
  19138604.786   -17881743.112 5  -4235307.308 5
  17369131.028   -24498105.325 6 -17428779.922 7
  16002947.974    -5247203.608 7  -4034829.657 8
  20062351.411    -2632433.962 3  -1973240.233 1
  18916372.575   -11144639.728 5  -8580435.213 5
  17747849.622   -30463392.009 6 -23587128.397 6
  16302469.177   -37855684.794 7 -29087841.534 9
  17750552.310   -23651184.936 6 -17697649.864 6
 95  2 14 20 59 59.9850000  0  8 28 31 18 16  2 29 19 27
  19139682.903   -17876099.447 5  -4230909.639 5
  17358370.075   -24554658.688 6 -17472847.459 7
  16002534.802    -5249383.941 7  -4036528.647 7
  20045716.864    -2719849.249 3  -2041356.055 1
  18894318.552   -11260545.821 5  -8670751.616 5
  17755969.630   -30420729.906 6 -23553885.263 6
  16293236.263   -37904203.907 7 -29125648.616 9
  17731383.528   -23751918.307 6 -17776143.358 6
 95  2 14 21  0 29.9850000  0  8 28 31 18 16  2 29 19 27
  19140855.583   -17869950.828 5  -4226118.504 5
  17347716.247   -24610647.007 6 -17516474.704 7
  16002216.888    -5251048.744 7  -4037825.920 7
  20029172.364    -2806777.241 3  -2109092.119 1
  18872305.716   -11376206.941 5  -8760877.117 5
  17764153.567   -30377725.461 6 -23520375.380 6
  16284037.075   -37952538.806 7 -29163312.169 9
  17712232.325   -23852554.664 6 -17854561.257 6
 95  2 14 21  0 59.9850000  0  8 28 31 18 16  2 29 19 27
  19142120.028   -17863300.750 5  -4220936.614 5
  17337169.435   -24666070.214 6 -17559661.607 7
  16002000.091    -5252176.832 7  -4038704.974 8
  20012721.966    -2893216.561 3  -2176447.450 1
  18850345.786   -11491617.353 5  -8850807.258 5
  17772402.857   -30334364.473 6 -23486587.673 6
  16274876.005   -38000696.317 7 -29200837.494 9
  17693097.841   -23953108.119 6 -17932914.568 6
 95  2 14 21  1 29.9850000  0  8 28 31 18 16  2 29 19 27
  19143484.083   -17856149.914 5  -4215364.522 5
  17326734.692   -24720915.247 6 -17602397.979 7
  16001889.505    -5252767.706 7  -4039165.413 7
  19996369.450    -2979157.902 3  -2243414.682 2
  18828433.833   -11606767.046 5  -8940534.230 5
  17780720.810   -30290649.328 6 -23452524.000 6
  16265742.755   -38048676.707 7 -29238224.803 9
  17673979.364   -24053582.552 6 -18011206.309 6
 95  2 14 21  1 59.9850000  0  8 28 31 18 16  2 29 19 27
  19144937.888   -17848500.581 5  -4209403.993 5
  17316415.083   -24775157.170 6 -17644664.400 7
  16001879.380    -5252827.141 7
  19980105.380    -3064612.900 3  -2310003.020 1
  18806571.778   -11721660.282 5  -9030061.347 5
  17789104.114   -30246596.696 6 -23418197.355 6
  16256646.974   -38096479.203 7 -29275473.502 9
  17654871.044   -24153992.327 6 -18089447.664 6
 95  2 14 21  2 29.9850000  0  8 28 31 18 16  2 29 19 27
  19146485.958   -17840358.593 5  -4203059.569 5
  17306206.052   -24828795.720 6 -17686460.659 7
  16001961.489    -5252382.950 7
  19963932.325    -3149595.335 2  -2376223.019 2
  18784753.232   -11836313.391 5  -9119401.338 5
  17797552.067   -30202208.965 6 -23383609.581 6
  16247585.021   -38144095.856 7 -29312577.365 9
  17635772.185   -24254352.638 6 -18167650.474 6
 95  2 14 21  2 59.9850000  0  8 28 31 18 16  2 29 19 27
  19148129.278   -17831720.999 5  -4196328.965 5
  17296110.864   -24881834.617 6 -17727789.654 7
  16002139.544    -5251460.669 7  -4038147.002 8
  19947853.841    -3234100.008 3  -2442070.824 2
  18762975.411   -11950740.775 5  -9208565.447 5
  17806063.263   -30157480.461 6 -23348756.277 6
  16238561.310   -38191524.323 7 -29349534.584 9
  17616686.521   -24354653.306 6 -18245806.806 6
 95  2 14 21  3 29.9850000  0  8 28 31 18 16  2 29 19 27
  19149867.075   -17822587.003 5  -4189211.570 5
  17286132.278   -24934286.207 6 -17768661.002 6
  16002401.153    -5250075.352 7  -4037067.551 8
  19931869.216    -3318126.705 3  -2507546.177 2
  18741244.192   -12064949.592 5  -9297559.213 5
  17814636.489   -30112421.391 6 -23313645.394 6
  16229570.091   -38238761.051 7 -29386342.419 9
  17597615.013   -24454869.633 6 -18323897.416 6
 95  2 14 21  3 59.9850000  0  8 28 31 18 16  2 29 19 27
  19151693.294   -17812975.093 5  -4181721.765 5
  17276257.989   -24986178.576 6 -17809096.589 7
  16002754.450    -5248232.069 7  -4035631.239 8
  19915964.450    -3401687.666 3  -2572658.566 2
  18719548.396   -12178970.663 5  -9386406.711 5
  17823273.724   -30067048.374 6 -23278289.880 6
  16220614.442   -38285828.116 7 -29423018.039 9
  17578559.692   -24555011.632 6 -18401930.116 6
 95  2 14 21  4 29.9850000  0  8 28 31 18 16  2 29 19 27
  19153620.450   -17802878.432 5  -4173854.246 5
  17266486.708   -25037524.154 6 -17849106.120 7
  16003195.677    -5245914.354 7  -4033825.237 8
  19900153.771    -3484765.615 3  -2637394.560 1
  18697888.036   -12292788.369 5  -9475095.725 5
  17831968.653   -30021346.185 6 -23242677.850 6
  16211689.396   -38332723.760 7 -29459560.079 9
  17559523.989   -24655055.182 6 -18479886.100 6
 95  2 14 21  4 59.9850000  0  8 28 31 18 16  2 29 19 27
  19155627.950   -17792288.836 5  -4165602.639 5
  17256820.677   -25088304.061 6 -17888674.847 7
  16003728.450    -5243097.141 7  -4031630.024 8
  19884438.950    -3567349.516 2  -2701745.634 2
  18676270.372   -12406382.919 5  -9563610.848 5
  17840728.083   -29975317.187 6 -23206811.185 6
  16202800.575   -38379447.267 7 -29495967.981 9
  17540508.067   -24754980.408 6 -18557749.886 6
 95  2 14 21  5 29.9850000  0  8 28 31 18 16  2 29 19 27
  19157741.528   -17781215.126 5  -4156973.800 5
  17247272.317   -25138501.029 6 -17927789.351 7
  16004362.896    -5239772.190 7  -4029039.168 8
  19868816.146    -3649453.368 2  -2765722.621 1
  18654697.091   -12519748.550 5  -9651947.622 5
  17849544.974   -29928982.675 6 -23170706.450 6
  16193940.099   -38425993.426 7 -29532237.697 9
  17521513.778   -24854800.805 6 -18635531.982 6
 95  2 14 21  5 59.9850000  0  8 28 31 18 16  2 29 19 27
  19159936.786   -17769663.263 5  -4147972.389 5
  17237833.075   -25188101.665 6 -17966439.166 7
  16005089.302    -5235947.019 7  -4026058.537 8
  19853280.138    -3731088.822 2  -2829334.599 1
  18633172.239   -12632878.660 5  -9740100.865 5
  17858421.888   -29882349.869 6 -23134369.274 6
  16185116.692   -38472362.153 7 -29568369.155 9
  17502533.911   -24954534.604 6 -18713246.585 6
 95  2 14 21  6 29.9850000  0  8 28 31 18 16  2 29 19 27
  19162225.411   -17757631.697 5  -4138597.195 5
  17228508.232   -25237100.085 6 -18004619.720 7
  16005912.021    -5231634.889 7  -4022698.456 8
  19837837.747    -3812259.013 3  -2892584.040 2
  18611689.349   -12745753.678 5  -9828055.355 5
  17867349.778   -29835422.974 6 -23097802.950 6
  16176328.794   -38518547.103 7 -29604357.404 9
  17483570.489   -25054181.655 6 -18790893.614 6
 95  2 14 21  6 59.9850000  0  8 28 31 18 16  2 29 19 27
  19164607.989   -17745123.797 5  -4128850.811 5
  17219296.122   -25285492.669 6 -18042328.198 7
  16006824.036    -5226842.288 7  -4018963.986 8
  19822474.817    -3892964.124 3  -2955471.076 2
  18590256.974   -12858381.056 5  -9915816.874 6
  17876333.200   -29788209.635 6 -23061013.420 6
  16167576.474   -38564551.224 7 -29640204.750 9
  17464622.692   -25153756.880 6 -18868484.670 6
 95  2 14 21  7 29.9850000  0  8 28 31 18 16  2 29 19 27
  19167074.208   -17732138.391 5  -4118732.364 5
  17210201.685   -25333291.856 6 -18079574.278 7
  16007825.271    -5221576.578 7  -4014860.852 8
  19807206.458    -3973197.394 3  -3017990.441 1
  18568874.466   -12970754.982 5 -10003380.919 5
  17885374.044   -29740697.789 6 -23023991.274 6
  16158857.497   -38610372.679 7 -29675909.757 9
  17445689.380   -25253254.875 6 -18946015.545 6
 95  2 14 21  7 59.9850000  0  8 28 31 18 16  2 29 19 27
  19169644.927   -17718669.075 5  -4108236.807 5
  17201216.560   -25380507.551 6 -18116365.698 7
  16008920.575    -5215827.349 7  -4010380.957 8
  19792041.208    -4052935.294 3  -3080123.841 1
  18547539.177   -13082865.016 5 -10090739.320 5
  17894477.880   -29692865.116 6 -22986719.138 6
  16150172.091   -38656016.108 7 -29711476.053 9
  17426774.122   -25352656.613 6 -19023471.422 6
 95  2 14 21  8 29.9840000  0  8 28 31 18 16  2 29 19 27
  19172293.617   -17704724.337 5  -4097370.803 5
  17192339.399   -25427153.728 6 -18152713.336 7
  16010106.297    -5209587.621 7  -4005518.857 8
  19776957.703    -4132171.517 3  -3141866.267 2
  18526255.078   -13194716.524 5 -10177896.300 6
  17903638.133   -29644716.948 6 -22949201.179 6
  16141516.750   -38701492.488 7 -29746912.177 9
  17407875.617   -25451968.655 6 -19100857.395 6
 95  2 14 21  8 59.9840000  0  8 28 31 18 16  2 29 19 27
  19175039.078   -17690312.687 5  -4086140.969 5
  17183575.000   -25473228.742 6 -18188615.918 7
  16011388.149    -5202857.578 7  -4000274.691 8
  19761971.141    -4210928.268 3  -3203235.081 1
  18505017.383   -13306332.062 5 -10264869.395 6
  17912863.758   -29596250.058 6 -22911434.852 6
  16132890.719   -38746809.947 7 -29782224.471 9
  17388989.711   -25551210.886 6 -19178188.978 6
 95  2 14 21  9 29.9840000  0  8 28 31 18 16  2 29 19 27
  19177868.047   -17675436.984 5  -4074549.523 5
  17174916.828   -25518723.565 6
  16012763.133    -5195627.808 7  -3994641.130 8
  19747079.961    -4289204.263 3  -3264229.281 2
  18483822.445   -13417704.921 5 -10351653.414 5
  17922143.734   -29547474.067 6 -22873427.669 6
  16124300.500   -38791955.170 7
  17370118.844   -25650381.374 6 -19255464.645 6
 95  2 14 21  9 59.9840000  0  8 28 31 18 16  2 29 19 27
  19180788.000   -17660099.883 5  -4062598.550 5
  17166372.086   -25563625.996 6 -18259055.274 7
  16014235.453    -5187887.302 7  -3988609.595 8
  19732272.766    -4366999.995 4  -3324849.253 1
  18462672.875   -13528848.882 5 -10438259.047 6
  17931482.609   -29498410.282 6 -22835196.237 6
  16115742.391   -38836928.746 7 -29852446.886 9
  17351258.641   -25749498.073 6 -19332698.390 6
 95  2 14 21 10 29.9840000  0  8 28 31 18 16  2 29 19 27
  19183802.438   -17644296.810 5  -4050284.460 5
  17157941.289   -25607918.955 6 -18293569.242 7
  16015803.656    -5179645.026 7  -3982187.069 8
  19717559.211    -4444323.323 4  -3385101.140 1
  18441564.008   -13639768.531 5 -10524689.917 6
  17940870.172   -29449066.181 6 -22796746.383 5
  16107219.055   -38881723.385 7 -29887351.786 9
  17332405.938   -25848560.939 6 -19409890.193 7
 95  2 14 21 10 59.9840000  0  8 28 31 18 16  2 29 19 27
  19186892.828   -17628021.823 5  -4037602.662 5
  17149635.430   -25651576.579 6 -18327588.159 7
  16017466.633    -5170906.291 7  -3975377.695 8
  19702937.149    -4521161.326 4  -3444974.835 2
  18420503.500   -13750458.501 6 -10610941.787 6
  17950312.477   -29399439.049 6 -22758075.950 5
  16098731.024   -38926330.182 7 -29922110.324 9
  17313569.149   -25947549.503 6 -19487024.092 6
 95  2 14 21 11 29.9840000  0  8 28 31 18 16  2 29 19 27
  19190073.774   -17611289.979 5  -4024564.864 5
  17141441.531   -25694631.189 6 -18361137.200 7
  16019220.234    -5161688.803 7  -3968195.272 8
  19688411.070    -4597517.272 4  -3504472.920 2
  18399478.024   -13860929.412 5 -10697022.990 6
  17959810.133   -29349553.288 6 -22719204.003 5
  16090275.188   -38970763.072 7 -29956733.348 9
  17294745.828   -26046465.298 6 -19564101.283 7
 95  2 14 21 11 59.9840000  0  8 28 31 18 16  2 29 19 27
  19193346.031   -17594094.638 5  -4011165.937 5
  17133363.102   -25737080.884 6 -18394214.886 7
  16021064.961    -5152003.967 7  -3960648.672 8
  19673968.914    -4673384.619 3  -3563590.284 1
  18378499.313   -13971160.135 5 -10782917.002 5
  17969357.258   -29299379.749 6 -22680107.824 6
  16081853.477   -39015019.670 7 -29991219.006 9
  17275940.250   -26145286.566 6 -19641104.813 7
 95  2 14 21 12 29.9840000  0  8 28 31 18 16  2 29 19 27
  19196703.641   -17576447.137 5  -3997414.667 5
  17125398.250   -25778933.723 6 -18426827.499 7
  16022995.539    -5141862.363 7  -3952746.153 8
  19659622.477    -4748771.839 3  -3622333.526 1
  18357570.039   -14081147.630 5 -10868621.496 6
  17978958.250   -29248921.411 6 -22640789.739 5
  16073466.234   -39059096.289 7 -30025564.427 9
  17257153.500   -26244009.782 6 -19718031.940 7
 95  2 14 21 12 59.9840000  0  8 28 31 18 16  2 29 19 27
  19200144.828   -17558348.032 5  -3983311.497 5
  17117546.930   -25820208.694 6 -18458989.825 7
  16025015.485    -5131247.548 7  -3944474.899 8
  19645371.617    -4823670.571 3  -3680696.122 2
  18336687.477   -14190883.879 6 -10954130.190 6
  17988613.344   -29198178.198 6 -22601249.655 5
  16065113.391   -39102985.424 7 -30059763.754 9
  17238385.492   -26342634.350 6 -19794882.204 7
 95  2 14 21 13 29.9840000  0  8 28 31 18 16  2 29 19 27
  19203680.524   -17539795.338 5  -3968854.883 5
  17109800.313   -25860916.952 6 -18490710.558 7
  16027125.383    -5120159.623 7  -3935834.986 8
  19631210.758    -4898079.741 3  -3738677.238 1
  18315856.430   -14300360.136 5 -11039436.285 6
  17998324.188   -29147142.845 6 -22561481.930 5
  16056798.367   -39146681.444 7 -30093812.589 9
  17219637.649   -26441161.270 6 -19871656.387 7
 95  2 14 21 13 59.9840000  0  8 28 31 18 16  2 29 19 27
  19207292.391   -17520799.447 5  -3954052.927 5
  17102161.141   -25901052.974 6 -18521985.386 7
  16029322.195    -5108613.715 7  -3926838.206 8
  19617145.938    -4971999.103 3  -3796276.702 2
  18295072.680   -14409593.961 6 -11124553.467 6
  18008090.320   -29095827.872 6 -22521496.329 6
  16048518.242   -39190196.055 7 -30127720.074 9
  17200905.750   -26539603.278 6 -19948364.403 7
 95  2 14 21 14 29.9840000  0  8 28 31 18 16  2 29 19 27
  19210994.750   -17501356.873 5  -3938902.900 5
  17094632.305   -25940607.971 6 -18552807.463 7
  16031607.297    -5096604.426 7  -3917480.341 8
  19603174.828    -5045414.564 3  -3853483.505 3
  18274326.172   -14518601.889 5 -11209494.628 6
  18017906.211   -29044241.645 6 -22481299.372 5
  16040273.367   -39233528.135 7 -30161485.322 9
  17182186.133   -26637972.415 6 -20025015.635 7
 95  2 14 21 14 59.9840000  0  8 28 31 18 16  2 29 19 27
  19214783.984   -17481446.879 5  -3923388.654 5
  17087219.914   -25979567.297 6 -18583165.378 7
  16033981.367    -5084129.061 7  -3907759.305 8
  19589304.945    -5118299.188 3  -3910276.709 1
  18253631.320   -14627363.296 6 -11294243.692 6
  18027779.149   -28992355.407 6 -22440868.620 5
  16032064.078   -39276671.763 7 -30195103.735 9
  17163484.188   -26736244.997 6 -20101591.631 7
 95  2 14 21 15 29.9840000  0  8 28 31 18 16  2 29 19 27
  19218653.141   -17461087.918 5  -3907524.569 5
  17079919.477   -26017930.170 6 -18613058.530 7
  16036438.539    -5071221.157 7  -3897701.225 8
  19575533.844    -5190666.040 3  -3966666.410 1
  18232980.234   -14735889.837 6 -11378809.734 6
  18037710.742   -28940181.548 6 -22400213.752 5
  16023885.547   -39319648.892 7 -30228592.408 9
  17144798.359   -26834432.151 6 -20178101.058 7
 95  2 14 21 15 59.9840000  0  8 28 31 18 16  2 29 19 27
  19222617.250   -17440276.392 5  -3891307.859 5
  17072734.820   -26055686.886 6 -18642479.347 7
  16038980.266    -5057857.970 7  -3887288.374 8
  19561857.680    -5262509.991 3  -4022648.661 2
  18212373.508   -14844187.181 6 -11463197.174 6
  18047693.805   -28887719.761 6 -22359334.535 5
  16015740.735   -39362443.947 7 -30261939.194 9
  17126132.109   -26932531.367 6 -20254541.971 7
 95  2 14 21 16 29.9840000  0  8 28 31 18 16  2 29 19 27
  19226659.500   -17419024.458 5  -3874747.938 5
  17065664.922   -26092851.709 6 -18671438.933 7
  16041610.984    -5044039.620 7  -3876520.858 8
  19548283.047    -5333856.723 3  -4078243.489 2
  18191808.852   -14952247.992 6 -11547400.309 6
  18057727.313   -28834976.250 6 -22318235.795 5
  16007631.031   -39405060.287 7 -30295146.719 9
  17107478.094   -27030547.709 6 -20330918.311 7
 95  2 14 21 16 59.9840000  0  8 28 31 18 16  2 29 19 27
  19230792.063   -17397333.198 5  -3857845.694 5
  17058704.047   -26129422.134 6 -18699935.357 7
  16044328.617    -5029750.617 7  -3865386.596 7
  19534798.961    -5404727.048 3  -4133467.061 2
  18171292.633   -15060052.499 6 -11631403.738 6
  18067816.930   -28781960.714 6 -22276925.069 5
  15999556.149   -39447493.555 7 -30328211.590 9
  17088846.320   -27128466.855 6 -20407218.918 7
 95  2 14 21 17 29.9840000  0  8 28 31 18 16  2 29 19 27
  19235000.938   -17375211.487 5  -3840608.025 5
  17051860.617   -26165395.214 6 -18727966.308 7
  16047139.844    -5014976.751 7  -3853874.519 7
  19521401.492    -5475134.235 3  -4188329.771 3
  18150825.961   -15167610.428 6 -11715215.012 6
  18077953.406   -28728695.711 6 -22235419.968 5
  15991517.211   -39489739.129 7 -30361130.208 9
  17070230.383   -27226304.882 6 -20483456.318 7
 95  2 14 21 17 59.9840000  0  8 28 31 18 16  2 29 19 27
  19239291.008   -17352650.080 5  -3823027.741 5
  17045126.945   -26200763.056 6 -18755525.642 7
  16050049.555    -4999691.912 7  -3841964.281 8
  19508092.656    -5545074.665 3  -4242828.785 2
  18130405.547   -15274916.272 6 -11798829.848 6
  18088136.680   -28675187.075 6 -22193725.038 5
  15983516.891   -39531783.662 7 -30393892.174 9
  17051628.703   -27324051.758 6 -20559622.695 7
 95  2 14 21 18 29.9840000  0  8 28 31 18 16  2 29 19 27
  19243669.000   -17329649.674 5  -3805105.378 5
  17038515.266   -26235521.253 6 -18782609.932 7
  16053052.125    -4983908.775 7  -3829665.761 8
  19494871.258    -5614544.928 4  -4296961.484 1
  18110035.563   -15381957.426 6 -11882238.464 6
  18098364.828   -28621434.223 5 -22151839.806 5
  15975547.969   -39573649.963 7 -30426515.255 9
  17033047.125   -27421698.429 6 -20635710.980 7
 95  2 14 21 18 59.9840000  0  8 28 31 18 16  2 29 19 27
  19248133.602   -17306214.479 5  -3786844.247 4
  17032014.070   -26269678.946 6 -18809226.297 7
  16056148.813    -4967630.645 7  -3816981.530 8
  19481749.328    -5683532.696 3  -4350718.172 3
  18089714.570   -15488756.715 6 -11965458.604 6
  18108639.180   -28567442.194 5 -22109768.186 5
  15967613.852   -39615344.948 7 -30459004.843 9
  17014483.039   -27519251.158 6 -20711726.077 7
 95  2 14 21 19 29.9840000  0  8 28 31 18 16  2 29 19 27
  19252668.391   -17282347.377 5  -3768246.535 5
  17025627.992   -26303250.475 6 -18835385.913 7
  16059337.719    -4950875.221 7  -3803925.386 8
  19468709.352    -5752011.376 3  -4404078.157 2
  18069433.914   -15595331.291 6 -12048503.654 6
  18118962.852   -28513203.195 5 -22067504.129 5
  15959712.156   -39656871.459 7 -30491363.164 9
  16995936.695   -27616711.600 6 -20787669.259 7
 95  2 14 21 19 59.9840000  0  8 28 31 18 16  2 29 19 27
  19257296.258   -17258043.436 5  -3749308.439 4
  17019345.305   -26336240.982 6 -18861092.775 7
  16062615.203    -4933661.308 7  -3790511.978 8
  19455777.367    -5819971.066 3  -4457033.726 4
  18049197.211   -15701667.416 6 -12131362.885 6
  18129333.883   -28458694.828 5 -22025030.178 5
  15951845.149   -39698226.983 7 -30523588.241 9
  16977411.828   -27714066.163 6 -20863529.934 7
 95  2 14 21 20 29.9840000  0  8 28 31 18 16  2 29 19 27
  19262001.758   -17233312.606 5  -3730037.709 5
  17013180.570   -26368659.682 6 -18886354.071 7
  16065971.836    -4916011.661 7  -3776759.035 8
  19442937.875    -5887421.774 3  -4509592.710 3
  18029007.383   -15807768.075 6 -12214038.647 6
  18139757.078   -28403904.013 5 -21982336.155 5
  15944005.883   -39739414.038 7 -30555682.045 9
  16958902.578   -27811327.765 6 -20939318.175 7
 95  2 14 21 20 59.9840000  0  8 28 31 18 16  2 29 19 27
  19266786.399   -17208150.832 5  -3710431.175 5
  17007119.914   -26400500.874 6 -18911165.367 7
  16069415.031    -4897925.623 7  -3762666.049 8
  19430204.149    -5954357.311 3  -4561750.225 2
  18008859.008   -15913624.589 6 -12296524.162 6
  18150238.938   -28348829.214 5 -21939420.837 5
  15936206.719   -39780397.897 7 -30587617.518 9
  16940411.297   -27908499.274 7 -21015036.218 7
 95  2 14 21 21 29.9840000  0  8 28 31 18 16  2 29 19 27
  19271653.883   -17182568.230 5  -3690496.709 5
  17001170.625   -26431760.535 6 -18935523.519 7
  16072934.399    -4879421.804 7  -3748247.515 8
  19417569.078    -6020791.167 3  -4613516.854 1
  17988768.516   -16019227.927 6 -12378812.414 6
  18160775.953   -28293471.211 6 -21896284.829 5
  15928445.172   -39821188.775 7 -30619402.617 9
  16921937.211   -28005583.381 6 -21090686.147 7
 95  2 14 21 21 59.9840000  0  8 28 31 18 16  2 29 19 27
  19276604.445   -17156567.084 5  -3670236.127 4
  16995336.320   -26462417.102 6 -18959411.731 7
  16076539.313    -4860487.656 7  -3733493.663 8
  19405014.852    -6086738.586 3  -4664904.428 3
  17968724.117   -16124558.850 6 -12460888.361 6
  18171361.125   -28237841.478 5 -21852937.085 5
  15920721.602   -39861775.928 7 -30651028.976 9
  16903479.274   -28102578.480 6 -21166266.715 7
 95  2 14 21 22 29.9840000  0  8 28 31 18 16  2 29 19 27
  19281637.844   -17130137.015 5  -3649641.331 4
  16989620.859   -26492445.947 6 -18982810.808 7
  16080229.305    -4841090.555 7  -3718379.067 8
  19392566.461    -6152186.271 4  -4715902.629 2
  17948732.149   -16229611.131 6 -12542747.215 6
  18181997.359   -28181945.800 5 -21809382.125 5
  15913040.227   -39902149.068 7 -30682488.561 9
  16885041.727   -28199469.890 6 -21241766.492 7
 95  2 14 21 22 59.9840000  0  8 28 31 18 16  2 29 19 27
  19286739.500   -17103296.633 5  -3628726.817 4
  16984020.797   -26521871.589 6 -19005739.860 7
  16084008.406    -4821234.616 7  -3702906.935 8
  19380204.125    -6217140.153 4  -4766516.030 1
  17928790.695   -16334403.391 6 -12624403.448 6
  18192678.180   -28125825.367 5 -21765652.043 5
  15905392.250   -39942334.681 7 -30713802.028 9
  16866622.961   -28296263.214 6 -21317189.834 7
 95  2 14 21 23 29.9840000  0  8 28 31 18 16  2 29 19 27
  19291929.672   -17076026.587 5  -3607477.488 3
  16978541.883   -26550667.253 6 -19028178.021 7
  16087878.813    -4800890.487 7  -3687054.395 8
  19367939.539    -6281581.534 3  -4816730.089 2
  17908904.211   -16438915.710 6 -12705841.544 6
  18203400.781   -28069474.845 5 -21721742.651 5
  15897780.453   -39982330.231 7 -30744967.384 9
  16848228.469   -28392923.200 7 -21392509.269 7
 95  2 14 21 23 59.9840000  0  8 28 31 18 16  2 29 19 27
  19297194.703   -17048351.341 5  -3585912.404 5
  16973179.406   -26578858.290 6 -19050145.037 7
  16091840.750    -4780079.254 7  -3670837.879 8
  19355769.570    -6345526.950 4  -4866557.674 1
  17889062.149   -16543184.715 6 -12787090.057 6
  18214159.844   -28012936.411 5 -21677686.835 5
  15890202.570   -40022156.502 7 -30776000.843 9
  16829855.250   -28489476.089 7 -21467745.266 7
 95  2 14 21 24 29.9840000  0  8 28 31 18 16  2 29 19 27
  19302545.008   -17020257.786 5  -3564021.376 4
  16967929.766   -26606448.646 6 -19071643.995 7
  16095889.445    -4758800.106 7  -3654256.755 8
  19343698.844    -6408955.005 3  -4915982.107 1
  17869266.992   -16647214.542 6 -12868152.192 6
  18224960.625   -27956184.574 5 -21633464.756 5
  15882654.547   -40061807.746 7 -30806897.915 9
  16811505.969   -28585902.023 7 -21542882.327 7
 95  2 14 21 24 59.9840000  0  8 28 31 18 16  2 29 19 27
  19307966.352   -16991748.003 5  -3541805.985 5
  16962793.594   -26633439.674 6 -19092675.933 7
  16100024.531    -4737067.216 7  -3637322.068 8
  19331731.813    -6471860.474 4  -4964999.354 2
  17849514.641   -16751005.544 6 -12949028.224 6
  18235802.672   -27899203.811 5 -21589064.285 5
  15875146.055   -40101271.674 7 -30837649.026 9
  16793180.125   -28682211.926 7 -21617928.976 7
 95  2 14 21 25 29.9840000  0  8 28 31 18 16  2 29 19 27
  19313480.172   -16962828.496 5  -3519271.327 5
  16957768.617   -26659825.418 6 -19113236.230 7
  16104242.547    -4714896.477 7  -3620046.191 8
  19319861.555    -6534246.761 4  -5013612.025 2
  17829806.899   -16854562.772 6 -13029722.116 6
  18246689.149   -27841976.178 5 -21544471.434 5
  15867675.844   -40140540.874 7 -30868248.396 9
  16774869.945   -28778426.893 7 -21692901.642 7
 95  2 14 21 25 59.9840000  0  8 28 31 18 16  2 29 19 27
  19319051.360   -16933506.315 5  -3496422.892 4
  16952863.055   -26685626.643 6 -19133341.055 7
  16108543.524    -4692300.234 7  -3602438.758 8
  19308081.250    -6596120.449 3  -5061825.328 2
  17810143.797   -16957894.720 6 -13110240.451 6
  18257635.078   -27784475.415 5 -21499665.746 5
  15860239.297   -40179606.371 7 -30898689.033 9
  16756575.016   -28874560.746 7 -21767811.101 7
 95  2 14 21 26 29.9840000  0  8 28 31 18 16  2 29 19 27
  19324716.594   -16903776.623 5  -3473256.912 5
  16948065.344   -26710840.046 6 -19152987.850 7
  16112927.774    -4669270.522 7  -3584493.556 8
  19296408.149    -6657484.302 4  -5109641.279 2
  17790527.180   -17060978.465 6 -13190565.397 6
  18268630.719   -27726686.467 5 -21454635.517 5
  15852845.180   -40218463.313 7 -30928967.159 9
  16738298.266   -28970610.941 7 -21842655.379 7
 95  2 14 21 26 59.9840000  0  8 28 31 18 16  2 29 19 27
  19330452.375   -16873636.443 5  -3449771.072 3
  16943382.195   -26735444.207 7 -19172159.909 7
  16117394.414    -4645794.656 7  -3566200.711 8
  19284826.555    -6718340.132 4  -5157061.435 1
  17770964.891   -17163796.086 6 -13270682.967 6
  18279680.375   -27668617.680 5 -21409387.243 5
  15845492.391   -40257100.870 7 -30959074.339 9
  16720037.391   -29066571.675 7 -21917429.948 7
 95  2 14 21 27 29.9840000  0  8 28 31 18 16  2 29 19 27
  19336258.164   -16843096.337 4  -3425973.599 4
  16938810.406   -26759456.951 6 -19190871.115 7
  16121944.860    -4621880.676 7  -3547566.478 8
  19273341.383    -6778706.694 4  -5204100.287 1
  17751445.063   -17266352.147 6 -13350596.724 6
  18290778.227   -27610293.305 5 -21363939.797 5
  15838177.758   -40295549.876 7 -30989034.595 9
  16701798.047   -29162422.262 7 -21992118.690 7
 95  2 14 21 27 59.9840000  0  8 28 31 18 16  2 29 19 27
  19342141.914   -16812157.122 4  -3401865.113 3
  16934354.914   -26782874.604 6 -19209118.625 7
  16126577.617    -4597527.085 7  -3528589.685 8
  19261943.336    -6838593.748 3  -5250765.482 1
  17731984.367   -17368631.508 6 -13430294.881 6
  18301924.531   -27551738.994 5 -21318313.194 4
  15830894.664   -40333815.367 7 -31018851.852 9
  16683583.359   -29258143.099 7 -22066706.340 7
 95  2 14 21 28 29.9830000  0  8 28 31 18 16  2 29 19 27
  19348111.722   -16780809.201 4  -3377438.178 3
  16930018.620   -26805670.647 6 -19226881.762 7
  16131298.237    -4572720.552 7  -3509259.957 8
  19250640.706    -6897982.870 3  -5297042.740 2
  17712578.558   -17470612.729 6 -13509760.734 6
  18313106.214   -27492970.715 5 -21272519.846 4
  15823650.526   -40371883.455 7 -31048515.284 9
  16665396.612   -29353711.277 7 -22141175.028 7
 95  2 14 21 28 59.9830000  0  8 28 31 18 16  2 29 19 27
  19354152.784   -16749052.586 5  -3352692.773 2
  16925799.472   -26827839.091 6 -19244155.875 7
  16136107.636    -4547462.122 7  -3489578.097 8
  19239435.925    -6956868.759 3  -5342927.794 2
  17693226.862   -17572307.943 6 -13589003.705 6
  18324331.066   -27433986.619 5 -21226558.310 5
  15816445.683   -40409748.252 7 -31078020.316 9
  16647238.831   -29449131.553 7 -22215528.477 7
 95  2 14 21 29 29.9830000  0  8 28 31 18 16  2 29 19 27
  19360270.980   -16716898.276 5  -3327637.494 4
  16921694.839   -26849399.834 6 -19260956.446 7
  16140994.534    -4521772.002 7  -3469559.851 8
  19228328.026    -7015250.459 4  -5388420.052 2
  17673928.480   -17673726.665 6 -13668031.255 6
  18335596.417   -27374799.498 5 -21180438.609 5
  15809277.323   -40447416.173 7 -31107371.944 9
  16629105.323   -29544422.367 7 -22289781.039 7
 95  2 14 21 29 59.9830000  0  8 28 31 18 16  2 29 19 27
  19366464.784   -16684344.350 4  -3302270.836 2
  16917709.034   -26870348.821 6 -19277280.335 7
  16145966.355    -4495643.029 7  -3449199.647 8
  19217313.878    -7073118.429 3  -5433511.940 2
  17654681.722   -17774871.957 6 -13746845.726 6
  18346899.558   -27315394.480 5 -21134149.107 5
  15802154.089   -40484856.224 7 -31136546.025 9
  16610990.737   -29639606.284 6 -22363950.315 7
 95  2 14 21 30 29.9830000  0  8 28 31 18 16  2 29 19 27
  19372732.956   -16651401.202 4  -3276600.918 4
  16913834.870   -26890700.613 6 -19293138.859 7
  16151021.136    -4469081.742 7  -3428502.574 8
  19206401.894    -7130477.011 4  -5478206.962 2
  17635472.901   -17875784.768 6 -13825479.054 6
  18358244.112   -27255767.843 5 -21087686.918 3
  15795071.636   -40522074.666 7 -31165547.406 9
  16592897.745   -29734695.937 7 -22438046.133 8
 95  2 14 21 30 59.9830000  0  8 28 31 18 16  2 29 19 27
  19379074.644   -16618072.702 4  -3250630.716 4
  16910073.089   -26910470.996 6 -19308544.351 7
  16156158.136    -4442091.338 7  -3407471.127 8
  19195577.425    -7187334.909 3  -5522511.789 1
  17616313.855   -17976478.687 6 -13903941.815 6
  18369635.816   -27195916.056 5 -21041049.271 4
  15788030.761   -40559079.261 7 -31194382.157 9
  16574820.433   -29829696.343 7 -22512072.413 7
 95  2 14 21 31 29.9830000  0  8 28 31 18 16  2 29 19 27
  19385492.769   -16584351.289 5  -3224354.346 4
  16906423.448   -26929666.535 6 -19323501.884 7
  16161377.167    -4414660.932 7  -3386096.819 8
  19184857.784    -7243689.149 3  -5566424.145 2
  17597197.894   -18076942.878 6 -13982225.570 6
  18381067.198   -27135837.888 5 -20994235.245 4
  15781028.644   -40595855.705 7 -31223039.130 9
  16556763.433   -29924581.219 7 -22586008.667 7
 95  2 14 21 31 59.9830000  0  8 28 31 18 16  2 29 19 27
  19391983.355   -16550254.869 4  -3197785.740 5
  16902877.636   -26948288.938 6 -19338012.817 7
  16166680.456    -4386790.230 7  -3364379.427 8
  19174223.784    -7299553.696 3  -5609954.962 1
  17578119.042   -18177192.526 6 -14060342.151 6
  18392538.753   -27075548.634 5 -20947256.745 5
  15774072.097   -40632422.548 7 -31251532.777 9
  16538731.120   -30019347.299 7 -22659852.351 8
 95  2 14 21 32 29.9830000  0  8 28 31 18 16  2 29 19 27
  19398545.558   -16515793.780 5  -3170933.005 5
  16899440.441   -26966337.483 6 -19352076.598 7
  16172066.628    -4358489.381 7  -3342326.855 7
  19163685.823    -7354932.649 3  -5653107.381 2
  17559083.909   -18277229.790 6 -14138293.228 6
  18404048.534   -27015073.849 5 -20900133.664 5
  15767149.464   -40668800.207 7 -31279879.015 9
  16520721.316   -30113985.748 7 -22733596.574 7
 95  2 14 21 32 59.9830000  0  8 28 31 18 16  2 29 19 27
  19405174.737   -16480953.230 5  -3143784.588 4
  16896119.683   -26983798.078 6 -19365682.229 7
  16177536.886    -4329745.278 7  -3319928.880 8
  19153248.355    -7409794.926 3  -5695857.205 1
  17540095.175   -18377004.253 6 -14216039.528 6
  18415593.605   -26954402.629 5 -20852857.535 4
  15760265.980   -40704976.171 7 -31308068.082 9
  16502740.886   -30208477.347 7 -22807226.365 7
 95  2 14 21 33 29.9830000  0  8 28 31 18 16  2 29 19 27
  19411865.675   -16445741.924 4  -3116347.247 4
  16892914.214   -27000661.932 6 -19378822.862 7
  16183091.495    -4300556.511 7  -3297184.428 7
  19142912.144    -7464129.222 3  -5738195.666 1
  17521162.667   -18476507.948 6 -14293574.829 6
  18427173.042   -26893548.640 5 -20805438.971 4
  15753418.691   -40740958.342 7 -31336106.148 9
  16484786.995   -30302825.117 7 -22880744.081 7
 95  2 14 21 33 59.9830000  0  8 28 31 18 16  2 29 19 27
  19418650.003   -16410148.759 5  -3088612.332 4
  16889821.042   -27016904.660 6 -19391479.500 7
  16188732.698    -4270910.105 7  -3274083.367 7
  19132674.894    -7517915.081 3  -5780106.699 1
  17502282.159   -18575724.309 6 -14370886.241 6
  18438792.441   -26832488.641 5 -20757859.889 4
  15746606.886   -40776747.546 7 -31363993.846 9
  16466857.855   -30397035.572 6 -22954154.808 8
 95  2 14 21 34 29.9830000  0  8 28 31 18 16  2 29 19 27
  19425489.300   -16374178.634 5  -3060583.670 5
  16886842.222   -27032550.657 6 -19403671.153 7
  16194456.933    -4240823.407 7  -3250639.222 7
  19122545.230    -7571156.989 3  -5821593.886 1
  17483458.198   -18674645.571 6 -14447967.695 6
  18450451.042   -26771227.693 5 -20710124.206 4
  15739832.058   -40812354.275 7 -31391739.355 9
  16448949.706   -30491138.926 7 -23027482.061 7
 95  2 14 21 34 59.9830000  0  8 28 31 18 16  2 29 19 27
  19432410.112   -16337845.289 5  -3032271.985 4
  16883979.128   -27047614.251 6 -19415408.984 7
  16200262.800    -4210312.725 7  -3226864.699 7
  19112504.652    -7623873.025 3  -5862671.309 1
  17464688.230   -18773276.848 6 -14524823.180 6
  18462146.409   -26709766.660 5 -20662232.624 3
  15733089.816   -40847786.843 7 -31419349.156 9
  16431059.214   -30585156.617 7 -23100742.568 7
 95  2 14 21 35 29.9830000  0  8 28 31 18 16  2 29 19 27
  19439388.066   -16301149.014 5  -3003677.505 5
  16881220.159   -27062088.348 6 -19426687.468 7
  16206150.292    -4179374.775 7  -3202757.244 7
  19102573.558    -7676079.624 3  -5903351.804 1
  17445970.847   -18871638.341 6 -14601468.447 6
  18473883.917   -26648097.221 5 -20614178.649 4
  15726384.526   -40883034.188 7 -31446814.609 9
  16413186.378   -30679090.642 7 -23173937.879 8
 95  2 14 21 35 59.9830000  0  8 28 31 18 16  2 29 19 27
  19446439.214   -16264079.307 5  -2974792.044 4
  16878582.136   -27075965.844 6 -19437501.072 7
  16212119.558    -4148012.799 7  -3178319.376 7
  19092728.628    -7727783.441 3  -5943640.463 1
  17427304.636   -18969728.849 6 -14677902.564 6
  18485659.542   -26586201.436 5 -20565948.298 5
  15719714.355   -40918077.504 7 -31474121.088 9
  16395328.237   -30772930.547 7 -23247059.842 8
 95  2 14 21 36 29.9830000  0  8 28 31 18 16  2 29 19 27
  19453567.261   -16226627.019 4  -2945608.450 3
  16876054.261   -27089244.513 6 -19447848.052 7
  16218167.003    -4116231.767 7  -3153554.969 7
  19082994.409    -7778991.286 3  -5983542.665 1
  17408686.956   -19067545.735 6 -14754123.449 6
  18497483.050   -26524073.120 5 -20517536.734 4
  15713089.300   -40952889.481 7 -31501247.293 9
  16377495.167   -30866652.949 7 -23320090.248 8
 95  2 14 21 36 59.9830000  0  8 28 31 18 16  2 29 19 27
  19460767.386   -16188806.583 4  -2916137.957 4
  16873642.339   -27101924.539 6 -19457728.567 7
  16224292.128    -4084042.340 7  -3128472.338 7
  19073335.636    -7829717.655 3  -6023069.707 1
  17390124.034   -19165115.139 6 -14830151.510 6
  18509350.847   -26461729.165 5 -20468957.161 4
  15706509.956   -40987468.786 7 -31528192.191 9
  16359682.737   -30960242.104 7 -23393016.831 8
 95  2 14 21 37 29.9830000  0  8 28 31 18 16  2 29 19 27
  19468031.808   -16150620.034 4  -2886382.199 4
  16871343.675   -27114005.027 6 -19467141.915 7
  16230495.816    -4051446.737 7  -3103073.194 7
  19063774.472    -7879966.365 3  -6062224.496 1
  17371602.620   -19262440.205 6 -14905989.170 6
  18521250.175   -26399179.811 5 -20420217.534 3
  15699973.667   -41021811.327 7 -31554952.602 9
  16341901.409   -31053692.908 7 -23465835.609 8
 95  2 14 21 37 59.9830000  0  8 28 31 18 16  2 29 19 27
  19475367.042   -16112059.086 3  -2856334.717 5
  16869156.776   -27125480.708 6 -19476083.990 7
  16236774.870    -4018442.546 7  -3077355.670 7
  19054310.855    -7929720.219 4
  17353134.659   -19359496.511 6 -14981617.409 6
  18533188.425   -26336430.935 5 -20371322.414 4
  15693487.980   -41055898.786 7 -31581514.248 9
  16324144.362   -31146990.181 7 -23538534.746 8
 95  2 14 21 38 29.9830000  0  8 28 31 18 16  2 29 19 27
  19482776.526   -16073123.492 3  -2825995.283 4
  16867089.605   -27136347.793 6 -19484551.826 7
  16243135.097    -3985018.725 7  -3051311.178 7
  19044938.378    -7978963.733 3        -0.25211
  17334717.925   -19456266.288 6 -15057022.385 6
  18545168.409   -26273482.916 5 -20322272.148 5
  15687051.026   -41089724.753 7 -31607872.126 9
  16306424.816   -31240123.058 7 -23611105.796 8
 95  2 14 21 38 59.9830000  0  8 28 31 18 16  2 29 19 27
  19490258.105   -16033825.393 3  -2795373.389 3
  16865138.300   -27146604.995 6 -19492544.433 7
  16249576.800    -3951171.637 7  -3024936.854 7
  19035667.300    -8027682.786 3    -37963.155 1
  17316355.878   -19552758.999 6 -15132211.460 6
  18557187.284   -26210347.579 5 -20273075.918 4
  15680661.901   -41123301.539 7 -31634035.842 8
  16288731.980   -31333097.963 7 -23683553.746 8
 95  2 14 21 39 29.9830000  0  8 28 31 18 16  2 29 19 27
  19497811.308   -15994150.214 3  -2764457.673 3
  16863307.636   -27156242.134 6 -19500053.868 7
  16256099.698    -3916889.848 7  -2998223.808 7
  19026498.886    -8075862.911 3    -75506.065 1
  17298053.386   -19648951.138 6 -15207166.322 6
  18569240.956   -26146996.650 5 -20223711.705 4
  15674321.855   -41156611.373 7 -31659991.539 9
  16271071.659   -31425900.079 7 -23755867.055 8
 95  2 14 21 39 59.9830000  0  8 28 31 18 16  2 29 19 27
  19505428.487   -15954113.063 3  -2733259.917 4
  16861581.878   -27165286.482 6 -19507101.404 7
  16262704.683    -3882185.231 7  -2971181.281 8
  19017434.097    -8123506.412 4   -112630.860 1
  17279803.089   -19744854.641 6 -15281896.279 6
  18581331.425   -26083432.388 5 -20174181.231 5
  15668030.831   -41189680.507 7 -31685759.685 9
  16253442.550   -31518542.756 7 -23828056.126 8
 95  2 14 21 40 29.9830000  0  8 28 31 18 16  2 29 19 27
  19513108.159   -15913714.439 3  -2701780.449 2
  16859977.339   -27173733.198 6 -19513683.243 7
  16269389.042    -3847059.111 7  -2943810.316 8
  19008467.480    -8170610.277 3   -149335.153 1
  17261607.792   -19840477.334 6 -15356407.432 6
  18593470.659   -26019643.791 5 -20124475.939 4
  15661780.183   -41222526.768 7 -31711354.166 9
  16235845.019   -31611017.345 7 -23900114.226 8
 95  2 14 21 40 59.9830000  0  8 28 31 18 16  2 29 19 27
  19520863.222   -15872953.604 3  -2670018.761 2
  16858480.519   -27181590.237 6 -19519805.595 7
  16276153.472    -3811512.395 7  -2916111.615 8
  18999607.737    -8217187.678 4   -185629.192 1
  17243463.089   -19935833.628 6 -15430710.992 6
  18605651.933   -25955641.193 5 -20074603.912 4
  15655568.737   -41255161.781 7 -31736784.031 9
  16218279.753   -31703323.582 7 -23972041.141 8
 95  2 14 21 41 29.9830000  0  8 28 31 18 16  2 29 19 27
  19528693.964   -15831831.034 3  -2637975.159 2
  16857097.753   -27188871.434 6 -19525479.249 7
  16282994.597    -3775553.764 7  -2888091.940 8
  18990834.292    -8263249.276 3   -221521.282 1
  17225370.050   -20030919.712 6 -15504804.005 6
  18617872.167   -25891427.186 5 -20024567.147 3
  15649397.300   -41287591.039 7 -31762053.570 9
  16200745.175   -31795467.025 7 -24043841.205 8
 95  2 14 21 41 59.9830000  0  8 28 31 18 16  2 29 19 27
  19536585.198   -15790354.620 3  -2605655.872 1
  16855818.206   -27195582.096 6 -19530708.321 7
  16289917.011    -3739185.475 7  -2859753.052 8
  18982176.042    -8308792.806 3   -257009.755 2
  17207323.675   -20125741.535 6 -15578691.103 6
  18630125.026   -25827032.560 5 -19974389.637 5
  15643264.737   -41319825.523 7 -31787171.340 9
  16183240.862   -31887456.461 7 -24115521.255 8
 95  2 14 21 42 29.9830000  0  8 28 31 18 16  2 29 19 27
  19544549.433   -15748535.416 3  -2573069.446 1
  16854651.761   -27201724.466 6 -19535494.571 7
  16296913.761    -3702411.956 7  -2831098.403 7
  18973605.191    -8353837.988 3   -292109.899 1
  17189324.659   -20220314.594 6 -15652384.363 6
  18642407.776   -25762482.640 5 -19924091.136 4
  15637167.112   -41351860.224 7 -31812133.431 9
  16165764.519   -31979293.789 7 -24187082.788 8
 95  2 14 21 42 59.9830000  0  8 28 31 18 16  2 29 19 27
  19552574.816   -15706370.559 3  -2540213.711 2
  16853590.495   -27207301.068 6 -19539839.972 7
  16303991.511    -3665223.417 7  -2802120.351 8
  18965126.378    -8398377.791 3   -326816.210 2
  17171379.222   -20314626.128 6 -15725873.842 7
  18654724.511   -25697783.125 5 -19873676.071 4
  15631113.737   -41383676.618 7 -31836925.414 8
  16148316.667   -32070986.512 7 -24258531.646 8
 95  2 14 21 43 29.9830000  0  8 28 31 18 16  2 29 19 27
  19560658.808   -15663862.345 4  -2507090.423 1
  16852634.737   -27212304.963 6 -19543739.116 7
  16311147.245    -3627617.688 7  -2772817.221 7
  18956753.222    -8442388.199 4   -361110.009 1
  17153484.730   -20408662.880 6 -15799149.185 7
  18667065.909   -25632924.463 5 -19823137.006 3
  15625102.433   -41415261.275 7 -31861536.830 9
  16130894.066   -32162540.328 7 -24329872.257 8
 95  2 14 21 43 59.9830000  0  8 28 31 18 16  2 29 19 27
  19568811.964   -15621009.877 5  -2473698.892 2
  16851801.651   -27216710.663 6 -19547172.128 7
  16318384.964    -3589583.687 7  -2743180.383 7
  18948473.300    -8485864.884 4   -394987.945 1
  17135642.776   -20502413.737 6 -15872201.776 7
  18679439.073   -25567902.263 5 -19772470.523 3
  15619136.722   -41446609.926 7 -31885964.340 8
  16113501.714   -32253944.084 7 -24401095.934 8
 95  2 14 21 44 29.9830000  0  8 28 31 18 16  2 29 19 27
  19577035.831   -15577803.572 4  -2440031.614 2
  16851078.644   -27220494.366 6 -19550120.484 7
  16325706.870    -3551112.376 7  -2713202.778 7
  18940312.941    -8528796.461 4   -428441.096 1
  17117859.480   -20595869.274 6 -15945024.223 7
  18691849.167   -25502688.387 5 -19721654.645 2
  15613218.558   -41477706.303 7 -31910195.274 9
  16096138.581   -32345185.839 7 -24472193.375 8
 95  2 14 21 44 59.9830000  0  8 28 31 18 16  2 29 19 27
  19585318.612   -15534258.501 4  -2406100.360 3
  16850476.183   -27223664.505 6 -19552590.735 7
  16333103.800    -3512231.032 7  -2682905.656 7
  18932237.644    -8571184.475 3
  17100133.464   -20689031.339 6 -16017617.998 7
  18704296.456   -25437287.265 5 -19670692.884 3
  15607348.816   -41508559.198 7 -31934236.490 9
  16078804.011   -32436277.451 7 -24543173.831 8
 95  2 14 21 45 29.9830000  0  7 31 18 16  2 29 19 27
  16849995.401   -27226199.768 6 -19554566.278 7
  16340582.870    -3472933.052 7  -2652283.898 7
  18924279.605    -8613029.050 4        -0.36611
  17082458.987   -20781883.888 6 -16089970.589 7
  18716777.019   -25371669.550 5 -19619562.338 2
  15601526.683   -41539149.460 7 -31958073.051 9
  16061503.722   -32527189.740 7 -24614014.539 8
 95  2 14 21 45 59.9830000  0  7 31 18 16  2 29 19 27
  16849624.737   -27228123.813 6 -19556065.553 6
  16348136.980    -3433238.491 7  -2621353.101 7
  18916411.339    -8654361.152 3    -32207.221 1
  17064847.706   -20874437.042 6 -16162089.886 7
  18729305.605   -25305848.576 5 -19568273.420 2
  15595755.956   -41569484.430 7 -31981710.686 9
  16044239.855   -32617917.737 7 -24684711.651 8
 95  2 14 21 46 29.9830000  0  7 31 18 16  2 29 19 27
  16849369.917   -27229473.334 6 -19557117.151 6
  16355760.495    -3393170.536 7  -2590131.355 7
  18908646.136    -8695189.940 3    -64021.822 1
  17047291.542   -20966707.625 6 -16233988.990 7
  18741867.980   -25239838.489 5 -19516837.142 3
  15590031.917   -41599557.903 7 -32005144.563 9
  16027008.683   -32708463.859 7 -24755267.037 8
 95  2 14 21 46 59.9830000  0  7 31 18 16  2 29 19 27
  16849222.222   -27230254.938 6 -19557726.211 7
  16363457.401    -3352725.694 7  -2558615.922 7
  18900972.417    -8735518.167 3    -95446.431 1
  17029784.698   -21058698.792 6 -16305670.373 7
  18754461.573   -25173643.781 5 -19465257.013 3
  15584359.269   -41629360.417 7 -32028367.291 9
  16009813.487   -32798821.832 7 -24825675.813 8
 95  2 14 21 47 29.9830000  0  7 31 18 16  2 29 19 27
  16849184.714   -27230459.307 6
  16371230.183    -3311885.577 7  -2526792.483 7
  18893388.722    -8775343.191 3   -126478.933 2
  17012331.792   -21150416.364 6 -16377138.552 7
  18767093.120   -25107272.750 5 -19413539.501 2
  15578741.651   -41658890.942 7 -32051378.092 9
  15992654.894   -32888988.958 7 -24895935.881 8
 95  2 14 21 47 59.9820000  0  7 31 18 16  2 29 19 27
  16849252.904   -27230095.663 6
  16379072.475    -3270664.059 6  -2494671.859 7
  18885914.186    -8814665.123 4   -157119.382 1
  16994927.186   -21241878.389 6 -16448407.596 7
  18779749.553   -25040768.670 5 -19361718.265 2
  15573171.506   -41688161.542 7 -32074186.351 9
  15975529.483   -32978986.356 7 -24966063.691 8
 95  2 14 21 48 29.9820000  0  7 31 18 16  2 29 19 27
  16849434.365   -27229127.417 6 -19556847.692 6
  16386992.975    -3229045.878 6  -2462242.151 7
  18878526.061    -8853466.846 3   -187354.470 1
  16977570.662   -21333083.555 6 -16519476.494 7
  18792430.787   -24974130.447 5 -19309792.548 2
  15567654.061   -41717161.120 7 -32096783.421 9
  15958436.225   -33068812.340 7 -25036057.933 8
 95  2 14 21 48 59.9820000  0  7 31 18 16  2 29 19 27
  16849737.131   -27227537.906 6 -19555609.131 6
  16394992.608    -3187016.792 7  -2429492.244 7
  18871238.983    -8891754.322 4   -217188.845 1
  16960268.084   -21424013.000 6 -16590330.552 7
  18805134.295   -24907359.175 4 -19257763.148 3
  15562183.748   -41745905.168 7 -32119181.379 8
  15941373.717   -33158474.934 7 -25105924.863 8
 95  2 14 21 49 29.9820000  0  7 31 18 16  2 29 19 27
  16850155.100   -27225347.140 6 -19553902.047 6
  16403064.639    -3144591.032 7  -2396433.249 7
  18864048.279    -8929551.678 3   -246641.321 1
  16943021.756   -21514657.320 6 -16660962.427 7
  18817863.779   -24840459.791 4 -19205633.911 4
  15556759.436   -41774411.531 7 -32141394.126 9
  15924339.467   -33247986.147 7 -25175673.831 8
 95  2 14 21 49 59.9820000  0  7 31 18 16  2 29 19 27
  16850679.623   -27222579.667 6 -19551745.580 6
  16411210.248    -3101789.040 7  -2363081.085 7
  18856943.193    -8966873.934 4   -275723.609 1
  16925824.287   -21605017.589 6 -16731372.972 7
  18830621.506   -24773426.473 4 -19153400.340 3
  15551377.826   -41802692.176 7 -32163430.989 8
  15907335.912   -33337343.915 7 -25245303.235 8
 95  2 14 21 50 29.9820000  0  7 31 18 16  2 29 19 27
  16851314.295   -27219249.644 6 -19549150.763 6
  16419425.834    -3058612.465 6  -2329437.034 7
  18849930.897    -9003738.423 3   -304449.194 2
  16908678.639   -21695105.857 6 -16801571.568 7
  18843408.178   -24706241.219 4 -19101048.358 2
  15546032.264   -41830773.283 7 -32185312.373 8
  15890360.779   -33426548.588 7 -25314813.346 8
 95  2 14 21 50 59.9820000  0  7 31 18 16  2 29 19 27
  16852056.733   -27215357.422 6 -19546117.859 7
  16427717.123    -3015041.446 6  -2295485.628 7
  18843005.014    -9040133.237 4   -332808.777 1
  16891595.303   -21784906.566 6 -16871546.097 7
  18856227.295   -24638863.285 4 -19048546.250 2
  15540729.217   -41858648.026 7 -32207032.953 9
  15873415.498   -33515589.264 7 -25384195.659 8
 95  2 14 21 51 29.9820000  0  7 31 18 16  2 29 19 27
  16852903.576   -27210907.716 6 -19542650.556 6
  16436076.006    -2971107.459 6  -2261251.395 7
  18836170.279    -9076049.450 4   -360795.417 1
  16874554.358   -21874444.801 6 -16941316.096 7
  18869085.764   -24571307.250 5 -18995905.336 2
  15535464.858   -41886315.639 7 -32228592.141 9
  15856505.873   -33604463.922 7 -25453448.618 8
 95  2 14 21 51 59.9820000  0  7 31 18 16  2 29 19 27
  16853860.178   -27205880.302 6 -19538733.079 6
  16444506.803    -2926813.422 6  -2226736.592 7
  18829429.170    -9111461.451 3   -388389.158 1
  16857562.662   -21963733.583 6 -17010891.722 7
  18881972.272   -24503583.115 5 -18943133.452 2
  15530239.467   -41913770.292 7 -32249985.381 9
  15839624.951   -33693168.116 7 -25522568.746 8
 95  2 14 21 52 29.9820000  0  7 31 18 16  2 29 19 27
  16854928.756   -27200263.041 6 -19534355.976 7
  16453003.139    -2882154.299 6  -2191937.321 7
  18822790.834    -9146359.611 3   -415582.544 1
  16840622.537   -22052763.127 6 -17080265.343 7
  18894891.420   -24435696.264 5 -18890234.792 2
  15525056.897   -41940999.931 7 -32271203.280 9
  15822774.225   -33781707.828 7 -25591560.702 8
 95  2 14 21 52 59.9820000  0  7 31 18 16  2 29 19 27
  16856108.068   -27194066.313 6 -19529527.338 6
  16461570.358    -2837139.981 6  -2156861.258 7
  18816247.842    -9180723.228 3   -442359.364 2
  16823730.936   -22141517.609 6 -17149424.636 7
  18907836.764   -24367670.836 5 -18837228.125 3
  15519925.920   -41967969.236 7 -32292218.328 8
  15805960.092   -33870078.367 7 -25660420.836 8
 95  2 14 21 53 29.9820000  0  7 31 18 16  2 29 19 27
  16857398.131   -27187302.124 6 -19524256.524 6
  16470202.240    -2791775.656 6  -2121512.468 7
  18809812.248    -9214551.704 3   -468719.208 1
  16806892.608   -22230002.511 6 -17218373.866 7
  18920801.678   -24299529.228 4 -18784131.003 1
  15514845.701   -41994666.718 7 -32313021.556 8
  15789180.576   -33958263.483 7 -25729136.480 8
 95  2 14 21 53 59.9820000  0  7 31 18 16  2 29 19 27
  16858787.748   -27179995.531 6 -19518563.062 6
  16478904.772    -2746040.276 6  -2085874.543 7
  18803479.037    -9247857.281 3   -494671.602 2
  16790107.053   -22318211.466 6
  18933792.475   -24231271.547 4 -18730943.403 2
  15509815.217   -42021092.979 7 -32333613.447 8
  15772433.670   -34046264.867 7
 95  2 14 21 54 29.9820000  0  7 31 18 16  2 29 19 27
  16860278.615   -27172154.794 6 -19512453.379 7
  16487685.014    -2699912.432 6  -2049930.807 7
  18797237.373    -9280635.455 3   -520213.071 1
  16773377.858   -22406124.804 6
  18946807.529   -24162884.619 4 -18677655.077 1
  15504842.467   -42047229.395 7 -32353979.489 8
  15755726.662   -34134064.308 7
 95  2 14 21 54 59.9820000  0  7 31 18 16  2 29 19 27
  16861867.873   -27163799.449 6 -19505942.697 7
  16496534.006    -2653406.860 6  -2013692.725 7
  18791095.686    -9312904.152 3   -545357.504 1
  16756698.928   -22493768.175 6
  18959842.576   -24094388.993 4 -18624282.051 3
  15499921.748   -42073090.604 7 -32374131.079 8
  15739056.217   -34221666.529 7
 95  2 14 21 55 29.9820000  0  7 31 18 16  2 29 19 27
  16863555.647   -27154915.607 6 -19499020.201 7
  16505456.514    -2606519.631 6  -1977157.251 7
  18785048.733    -9344682.363 3   -570119.700 1
  16740072.295   -22581144.490 6
  18972895.483   -24025775.296 4 -18570817.076 2
  15495048.264   -42098705.182 7 -32394090.483 9
  15722423.256   -34309071.839 7
 95  2 14 21 55 59.9820000  0  7 31 18 16  2 29 19 27
  16865351.248   -27145495.424 6 -19491679.777 6
  16514449.045    -2559263.859 6  -1940334.602 7
  18779091.506    -9375985.015 3   -594511.388 1
  16723493.889   -22668257.112 6
  18985973.053   -23957050.331 3 -18517265.336 1
  15490219.022   -42124080.634 7 -32413863.561 8
  15705823.397   -34396301.447 7
 95  2 14 21 56 29.9820000  0  7 31 18 16  2 29 19 27
  16867248.818   -27135531.229 6 -19483915.454 6
  16523502.279    -2511670.782 6  -1903249.119 7
  18773224.412    -9406821.614 3   -618539.885 1
  16706965.123   -22755118.577 6 -17627554.945 7
  18999073.725   -23888218.724 3 -18463630.513 1
  15485433.459   -42149225.252 7 -32433456.763 8
  15689255.514   -34483362.619 7 -26138304.476 9
 95  2 14 21 56 59.9820000  0  7 31 18 16  2 29 19 27
  16869250.670   -27125007.493 6 -19475715.130 6
  16532627.818    -2463734.443 6  -1865896.169 7
  18767442.022    -9437202.784 3   -642213.500 1
  16690484.514   -22841728.413 6 -17695043.066 7
  19012194.061   -23819275.661 3 -18409908.907 1
  15480692.623   -42174141.398 7 -32452871.936 8
  15672721.217   -34570247.780 7 -26206007.176 9
 95  2 14 21 57 29.9820000  0  7 31 18 16  2 29 19 27
  16871351.037   -27113960.496 6 -19467107.084 6
  16541807.029    -2415491.101 6  -1828303.978 7
  18761747.709    -9467158.695 4   -665555.767 1
  16674050.209   -22928105.418 6 -17762349.773 7
  19025329.576   -23750239.274 3 -18356114.550 3
  15475988.365   -42198864.307 7 -32472136.530 8
  15656214.701   -34656988.253 7 -26273597.130 9
 95  2 14 21 57 59.9820000  0  7 31 18 16  2 29 19 27
  16873548.998   -27102409.893 6 -19458106.618 6
  16551043.334    -2366953.910 6  -1790482.821 7
  18756120.303    -9496691.876 3   -688568.614 2
  16657654.959   -23014255.240 6 -17829479.442 7
  19038484.209   -23681114.226 3 -18302251.150 1
  15471323.381   -42223380.647 7 -32491240.160 8
  15639736.975   -34743588.492 7 -26341077.801 9
 95  2 14 21 58 29.9820000  0  7 31 18 16  2 29 19 27
  16875844.131   -27090349.240 6 -19448708.716 6
  16560339.748    -2318106.353 6  -1752419.826 6
  18750585.209    -9525786.114 4   -711239.385 1
  16641306.678   -23100156.162 6 -17896415.164 7
  19051654.568   -23611885.781 3 -18248307.130 1
  15466699.365   -42247680.163 7 -32510174.831 8
  15623287.600   -34830028.705 7 -26408433.783 9
 95  2 14 21 58 59.9820000  0  7 31 18 16  2 29 19 27
  16878233.068   -27077797.297 6 -19438927.989 7
  16569692.967    -2268955.004 6  -1714120.106 7
  18745130.670    -9554450.458 4   -733575.245 1
  16625010.967   -23185810.013 6 -17963158.379 7
  19064852.975   -23542572.307 3 -18194296.902 2
  15462115.779   -42271763.715 7 -32528941.222 8
  15606864.779   -34916319.929 7 -26475673.676 9
 95  2 14 21 59 29.9820000  0  7 31 18 16  2 29 19 27
  16880718.998   -27064746.930 6 -19428758.881 6
  16579099.186    -2219520.241 6  -1675599.549 7
  18739762.639    -9582664.171 3   -755559.957 2
  16608754.928   -23271214.311 6 -18029707.136 7
  19078055.990   -23473173.649 3 -18140220.346 1
  15457575.248   -42295623.561 7 -32547533.286 8
  15590475.498   -35002458.556 7 -26542794.653 9
 95  2 14 21 59 59.9820000  0  7 31 18 16  2 29 19 27
  16883299.920   -27051170.604 6 -19418179.946 6
  16588565.725    -2169783.513 6  -1636843.693 7
  18734483.162    -9610415.191 3   -777184.137 1
  16592555.045   -23356363.279 6 -18096056.926 7
  19091279.475   -23403698.023 3 -18086083.788 1
  15453081.084   -42319236.817 7 -32565933.214 8
  15574114.615   -35088427.785 7 -26609783.629 9
 95  2 14 22  0 29.9820000  0  7 31 18 16  2 29 19 27
  16885984.858   -27037065.374 6 -19407188.877 6
  16598084.154    -2119753.025 6  -1597858.929 6
  18729285.186    -9637699.253 3   -798444.420 1
  16576394.201   -23441272.271 6 -18162219.730 7
  19104509.264   -23334161.014 3 -18031899.397 1
  15448633.209   -42342618.416 7 -32584152.624 8
  15557786.936   -35174231.869 7 -26676643.928 9
 95  2 14 22  0 59.9820000  0  8  7 31 18 16  2 29 19 27
  19134082.178     -148221.322 3
  16888770.545   -27022429.763 6 -19395784.517 6
  16607660.818    -2069433.157 6  -1558648.676 7
  18724189.920    -9664509.159 4   -819335.251 1
  16560283.248   -23525947.192 6 -18228200.139 7
  19117754.701   -23264561.112 3
  15444226.881   -42365765.760 7 -32602189.505 8
  15541493.373   -35259853.748 7 -26743362.247 9
 95  2 14 22  1 29.9820000  0  8  7 31 18 16  2 29 19 27
  19105867.100     -296479.378 2
  16891656.951   -27007266.845 6 -19383969.275 6
  16617292.108    -2018823.955 6  -1519212.977 6
  18719176.404    -9690855.846 4   -839865.099 2
  16544211.233   -23610402.852 6 -18294009.695 7
  19131008.139   -23194911.411 3        -0.30711
  15439863.842   -42388691.569 7 -32620053.761 8
  15525233.967   -35345294.460 7 -26809939.403 9
 95  2 14 22  1 59.9820000  0  8  7 31 18 16  2 29 19 27
  19077655.975     -444751.153 3        -0.31914
  16894638.076   -26991589.620 6 -19371753.269 6
  16626979.443    -1967904.357 6  -1479535.388 6
  18714252.725    -9716739.898 4   -860034.501 1
  16528179.264   -23694637.200 6 -18359646.808 7
  19144269.717   -23125205.800 3     54315.390 2
  15435545.959   -42411388.026 7 -32637739.309 8
  15509011.889   -35430552.135 7 -26876373.929 9
 95  2 14 22  2 29.9820000  0  8  7 31 18 16  2 29 19 27
  19049432.365     -593032.756 2   -115544.108 2
  16897715.303   -26975424.166 6 -19359156.826 6
  16636727.514    -1916690.120 6  -1439628.230 6
  18709411.803    -9742177.202 3   -879855.791 1
  16512191.975   -23778664.909 6 -18425122.908 7
  19157550.178   -23055432.741 3    108683.625 2
  15431269.076   -42433863.997 7 -32655253.048 8
  15492819.693   -35515637.370 7 -26942674.078 9
 95  2 14 22  2 59.9820000  0  8  7 31 18 16  2 29 19 27
  19021218.678     -741310.964 3   -231085.225 2
  16900884.108   -26958774.173 6 -19346182.826 6
  16646532.131    -1865166.220 6  -1399479.778 6
  18704653.404    -9767175.653 4   -899335.111 2
  16496245.772   -23862468.069 6 -18490424.033 7
  19170844.342   -22985581.698 3    163112.654 1
  15427034.514   -42456114.807 7 -32672591.339 8
  15476661.311   -35600543.048 7 -27008834.319 9
 95  2 14 22  3 29.9820000  0  8  7 31 18 16  2 29 19 27
  18993005.701     -889571.453 3   -346612.559 3
  16904143.693   -26941635.116 6 -19332827.730 6
  16656395.529    -1813322.072 6  -1359081.784 6
  18699978.850    -9791721.023 4   -918461.401 2
  16480342.100   -23946032.447 6 -18555539.093 7
  19184155.014   -22915640.166 3    217612.199 2
  15422846.170   -42478127.730 7 -32689744.256 8
  15460539.818   -35685276.469 7 -27074860.328 9
 95  2 14 22  3 59.9820000  0  8  7 31 18 16  2 29 19 27
  18964798.443    -1037823.205 3   -462133.094 2
  16907494.608   -26924029.655 6 -19319109.208 6
  16666318.889    -1761187.608 6  -1318457.566 6
  18695392.842    -9815835.749 4   -937252.067 2
  16464483.045   -24029365.654 6 -18620474.007 7
  19197480.576   -22845612.065 3    272179.128 2
  15418699.459   -42499916.857 7 -32706722.796 8
  15444444.850   -35769854.323 7 -27140765.120 9
 95  2 14 22  4 29.9820000  0  8  7 31 18 16  2 29 19 27
  18936572.639    -1186087.184 2   -577663.176 1
  16910935.225   -26905945.094 6 -19305017.348 6
  16676293.795    -1708766.432 6  -1277609.926 6
  18690884.709    -9839521.629 4   -955708.599 2
  16448673.576   -24112446.530 6 -18685212.313 7
  19210820.428   -22775507.713 3    326805.473 2
  15414596.131   -42521480.539 7 -32723525.658 8
  15428383.654   -35854259.032 7 -27206534.986 9
 95  2 14 22  4 59.9820000  0  8  7 31 18 16  2 29 19 27
  18908359.756    -1334381.612 3   -693217.033 2
  16914468.811   -26887375.346 6 -19290547.424 6
  16686321.920    -1656069.630 6  -1236547.515 6
  18686460.639    -9862778.079 4   -973830.500 2
  16432915.772   -24195260.426 6 -18749742.574 7
  19224167.092   -22705353.518 3    381470.661 1
  15410535.475   -42542820.806 7 -32740154.439 8
  15412353.467   -35938488.555 7 -27272168.340 9
 95  2 14 22  5 29.9820000  0  7  7 31 18 16  2 19 27
  18880130.662    -1482719.493 3   -808804.724 2
  16918096.154   -26868321.047 6 -19275699.926 6
  16696401.756    -1603105.223 6  -1195276.587 6
  18682117.717    -9885613.367 4   -991624.207 1
  16417206.740   -24277818.771 6 -18814073.706 7
  15406518.053   -42563923.374 7 -32756597.995 8
  15396358.608   -36022543.984 7 -27337666.043 9
 95  2 14 22  5 59.9820000  0  7  7 31 18 16  2 19 27
  18851895.279    -1631107.026 3   -924431.144 2
  16921813.834   -26848780.306 6 -19260473.383 6
  16706532.029    -1549868.230 6  -1153793.265 6
  18677844.490    -9908040.302 3  -1009099.757 2
  16401544.623   -24360123.223 6 -18878207.001 7
  15402547.342   -42584793.083 7 -32772860.096 8
  15380397.358   -36106418.719 7 -27403022.939 9
 95  2 14 22  6 29.9820000  0  7  7 31 18 16  2 19 27
  18823647.037    -1779545.868 3  -1040097.549 4
  16925622.850   -26828754.408 6 -19244868.783 6
  16716714.967    -1496356.941 6  -1112096.195 6
  18673654.889    -9930059.456 4  -1026257.527 2
  16385925.889   -24442193.069 6 -18942157.472 7
  15398620.975   -42605434.219 7 -32788944.097 8
  15364471.029   -36190116.416 7 -27468241.880 9
 95  2 14 22  6 59.9820000  0  7  7 31 18 16  2 19 27
  18795397.522    -1927994.490 4  -1155771.602 4
  16929528.928   -26808238.348 6 -19228882.250 6
  16726951.748    -1442552.093 6  -1070170.383 6
  18669545.334    -9951655.164 3  -1043085.345 2
  16370350.529   -24524038.699 6 -19005933.236 7
  15394741.100   -42625821.232 7 -32804830.071 8
  15348577.529   -36273637.841 7 -27533323.480 9
 95  2 14 22  7 29.9810000  0  7  7 31 18 16  2 19 27
  18767153.696    -2076435.547 4  -1271439.795 3
  16933522.235   -26787246.573 6 -19212525.021 6
  16737245.079    -1388461.527 6  -1028021.943 6
  18665520.142    -9972832.977 4  -1059587.593 2
  16354813.728   -24605680.874 6 -19069550.468 7
  15390907.728   -42645965.007 7 -32820526.508 8
  15332717.923   -36356984.196 7 -27598268.651 9
 95  2 14 22  7 59.9810000  0  7  7 31 18 16  2 19 27
  18738910.314    -2224855.250 4  -1387091.349 1
  16937608.025   -26765774.123 6 -19195793.233 6
  16747591.985    -1334090.317 6   -985654.817 6
  18661562.696    -9993590.935 3  -1075762.615 2
  16339317.165   -24687117.223 6 -19133007.312 7
  15387118.556   -42665877.160 7 -32836042.450 8
  15316889.735   -36440153.198 7 -27663075.627 9
 95  2 14 22  8 29.9810000  0  7  7 31 18 16  2 19 27
  18710676.775    -2373219.199 4  -1502699.467 2
  16941788.400   -26743813.884 6 -19178681.342 6
  16757991.056    -1279441.785 6   -943071.591 6
  18657705.525   -10013914.194 4  -1091598.916 1
  16323862.587   -24768342.461 6 -19196299.659 7
  15383376.876   -42685537.696 7 -32851362.322 8
  15301097.603   -36523136.468 7 -27727737.878 9
 95  2 14 22  8 59.9810000  0  7  7 31 18 16  2 19 27
  18682454.243    -2521533.045 4  -1618268.525 1
  16946056.751   -26721383.993 6 -19161203.484 6
  16768438.181    -1224542.236 6   -900292.782 6
  18653913.517   -10033811.172 4  -1107103.085 2
  16308446.446   -24849359.506 6 -19259429.778 7
  15379680.196   -42704963.904 7 -32866499.606 8
  15285339.321   -36605946.263 7 -27792264.958 9
 95  2 14 22  9 29.9810000  0  7  7 31 18 16  2 19 27
  18654241.384    -2669793.496 4  -1733796.007 1
  16950417.954   -26698467.470 6 -19143346.427 6
  16778931.275    -1169403.057 6   -857327.235 6
  18650208.626   -10053270.787 3
  16293071.579   -24930150.662 6 -19322383.889 7
  15376026.165   -42724166.324 7
  15269618.095   -36688566.184 7 -27856644.081 9
 95  2 14 22  9 59.9810000  0  7  7 31 18 16  2 19 27
  18626031.056    -2818009.899 3  -1849289.139 2
  16954868.814   -26675074.961 6 -19125118.482 6
  16789468.048    -1114027.069 6   -814177.163 6
  18646584.134   -10072293.596 3
  16277739.446   -25010713.452 6 -19385160.046 7
  15372412.564   -42743154.515 7 -32896258.481 8
  15253932.681   -36771001.705 7 -27920879.522 9
 95  2 14 22 10 29.9810000  0  7  7 31 18 16  2 19 27
  18597833.282    -2966197.907 3  -1964760.128 2
  16959406.821   -26651222.663 6 -19106532.261 6
  16800051.181    -1058423.865 6   -770850.042 6
  18643047.587   -10090882.598 3
  16262450.673   -25091054.623 6 -19447763.519 7
  15368839.978   -42761929.015 7 -32910887.944 8
  15238280.837   -36853258.016 7 -27984975.319 9
 95  2 14 22 10 59.9810000  0  7  7 31 18 16  2 19 27
  18569639.110    -3114374.865 3  -2080222.484 2
  16964033.110   -26626913.286 6 -19087589.887 6
  16810672.415    -1002603.664 6   -727353.835 6
  18639596.267   -10109044.510 4
  16247208.931   -25171163.705 7 -19510186.135 7
  15365308.618   -42780490.251 7 -32925351.223 8
  15222664.157   -36935308.577 7 -28048910.789 9
 95  2 14 22 11 29.9810000  0  7  7 31 18 16  2 19 27
  18541437.861    -3262549.108 3  -2195682.695 1
  16968747.509   -26602150.858 6 -19068294.487 6
  16821339.704     -946544.970 6   -683671.799 6
  18636221.064   -10126789.013 4        -0.41413
  16232009.954   -25251039.070 6 -19572426.637 7
  15361818.150   -42798828.102 7 -32939640.441 8
  15207090.337   -37017150.631 7 -28112683.790 9
 95  2 14 22 11 59.9810000  0  7  7 31 18 16  2 19 27
  18513250.517    -3410729.070 3  -2311147.345 2
  16973540.150   -26576954.898 6 -19048661.279 6
  16832059.415     -890227.253 6   -639787.914 6
  18632919.189   -10144130.815 4    -13513.522 4
  16216849.439   -25330682.848 6 -19634486.683 7
  15358373.571   -42816927.472 7 -32953743.830 8
  15191558.790   -37098784.646 7 -28176294.676 9
 95  2 14 22 12 29.9810000  0  7  7 31 18 16  2 19 27
  18485045.681    -3558916.453 3  -2426617.778 2
  16978419.681   -26551312.323 6 -19028680.048 6
  16842822.150     -833656.422 6   -595706.822 6
  18629692.501   -10161076.341 4    -26717.870 4
  16201740.048   -25410096.727 7 -19696367.587 7
  15354981.610   -42834762.147 7 -32967640.963 8
  15176063.439   -37180203.588 7 -28239737.978 9
 95  2 14 22 12 59.9810000  0  7  7 31 18 16  2 19 27
  18456843.564    -3707115.814 4  -2542097.525 2
  16983382.728   -26525239.047 6 -19008363.218 6
  16853634.931     -776833.470 6   -551429.260 6
  18626544.181   -10177627.381 4    -39614.785 3
  16186671.173   -25489298.612 7 -19758083.298 7
  15351634.806   -42852346.149 7 -32981342.760 8
  15160605.657   -37261422.167 7 -28303025.155 9
 95  2 14 22 13 29.9810000  0  7  7 31 18 16  2 19 27
  18428639.923    -3855316.072 4  -2657577.936 2
  16988420.970   -26498745.357 6 -18987718.804 6
  16864499.571     -719746.018 6   -506945.571 6
  18623469.571   -10193797.069 4    -52214.578 4
  16171633.720   -25568299.914 7 -19819642.710 7
  15348334.650   -42869684.463 7 -32994853.120 8
  15145184.829   -37342475.904 7 -28366183.877 9
 95  2 14 22 13 59.9810000  0  7  7 31 18 16  2 19 27
  18400444.025    -4003490.529 4  -2773038.219 3
  16993550.001   -26471811.780 6 -18966731.627 6
  16875406.837     -662411.934 6   -462269.731 6
  18620467.251   -10209571.893 5    -64506.674 2
  16156642.478   -25647085.442 7 -19881033.990 7
  15345084.759   -42886768.387 7 -33008165.252 8
  15129792.767   -37423347.841 7 -28429200.937 9
 95  2 14 22 14 29.9810000  0  7  7 31 18 16  2 19 27
  18372254.689    -4151616.959 5  -2888461.104 3
  16998758.392   -26444431.859 6 -18945396.635 6
  16886362.642     -604846.067 6   -417413.270 6
  18617541.892   -10224948.780 4    -76488.683 2
  16141697.064   -25725638.213 7 -19942243.892 7
  15341879.696   -42903613.394 7 -33021291.220 8
  15114438.165   -37504037.691 7 -28492076.108 9
 95  2 14 22 14 59.9810000  0  7  7 31 18 16  2 19 27
  18344076.790    -4299691.593 5  -3003843.618 3
  17004050.845   -26416625.171 6 -18923729.106 6
  16897360.048     -547059.698 6   -372384.986 6
  18614687.142   -10239941.085 4    -88171.034 3
  16126789.009   -25803960.848 7 -20003274.467 7
  15338711.962   -42920257.761 7 -33034260.844 8
  15099116.095   -37584565.832 7 -28554825.284 9
 95  2 14 22 15 29.9810000  0  7  7 31 18 16  2 19 27
  18315912.907    -4447696.584 5  -3119171.879 4
  17009424.829   -26388372.365 6 -18901713.940 6
  16908398.446     -489053.671 6   -327185.546 6
  18611907.056   -10254548.049 4    -99553.125 2
  16111937.087   -25882030.158 6 -20064107.645 7
  15335583.579   -42936689.721 7 -33047064.960 8
  15083824.548   -37664911.318 7 -28617432.107 9
 95  2 14 22 15 59.9810000  0  7  7 31 18 16  2 19 27
  18287765.212    -4595633.300 5  -3234446.934 3
  17014885.689   -26359677.149 6 -18879354.040 6
  16919472.454     -430854.035 6   -281835.238 6
  18609207.618   -10268761.624 4   -110628.680 3
  16097123.884   -25959844.938 6 -20124742.486 7
  15332495.525   -42952923.463 7 -33059714.620 8
  15068577.415   -37745053.323 7 -28679880.390 9
 95  2 14 22 16 29.9810000  0  7  7 31 18 16  2 19 27
  18259624.384    -4743496.839 5  -3349665.021 3
  17020432.525   -26330532.142 6 -18856643.664 6
  16930591.298     -372429.534 6   -236309.721 6
  18606577.368   -10282565.083 4   -121384.646 4
  16082368.001   -26037409.236 7 -20185182.148 7
  15329450.423   -42968922.341 7 -33072181.274 8
  15053364.439   -37824979.398 7 -28742160.412 9
 95  2 14 22 16 59.9810000  0  7  7 31 18 16  2 19 27
  18231497.064    -4891321.020 5  -3464852.435 2
  17026061.196   -26300954.098 6 -18833595.851 6
  16941749.587     -313798.265 6   -190623.073 5
  18604024.298   -10295979.299 4   -131837.309 2
  16067643.564   -26114768.369 7 -20245461.941 7
  15326453.103   -42984675.538 7 -33084456.486 8
  15038198.251   -37904693.062 7 -28804274.928 9
 95  2 14 22 17 29.9810000  0  7  7 31 18 16  2 19 27
  18203367.110    -5039110.422 4  -3580012.808 4
  17031770.634   -26270952.976 6 -18810218.361 6
  16952944.868     -254955.896 6   -144771.920 6
  18601544.782   -10309010.925 4   -141991.850 2
  16052963.376   -26191933.956 7 -20305590.929 7
  15323506.095   -43000159.109 7 -33096521.609 8
  15023069.493   -37984182.619 7 -28866214.817 9
 95  2 14 22 17 59.9810000  0  7  7 31 18 16  2 19 27
  18175249.900    -5186873.831 5  -3695152.961 4
  17037559.618   -26240530.471 6 -18786512.520 6
  16964184.743     -195894.182 6    -98749.870 6
  18599136.884   -10321666.530 4   -151853.406 2
  16038310.556   -26268916.408 7 -20365577.207 7
  15320613.642   -43015357.872 7 -33108364.795 8
  15007986.579   -38063453.896 7 -28927984.611 9
 95  2 14 22 18 29.9810000  0  7  7 31 18 16  2 19 27
  18147138.540    -5334618.362 5  -3810278.393 3
  17043428.618   -26209692.188 6 -18762482.688 6
  16975466.892     -136603.303 6    -52549.261 6
  18596794.868   -10333967.814 4   -161438.849 4
  16023697.337   -26345728.806 7 -20425430.982 7
  15317776.751   -43030263.489 7 -33119979.561 8
  14992939.134   -38142518.774 7 -28989593.584 9
 95  2 14 22 18 59.9810000  0  7  7 31 18 16  2 19 27
  18119030.337    -5482318.068 5  -3925368.966 4
  17049378.946   -26178426.514 6 -18738119.832 6
  16986797.384      -77067.608 6     -6157.864 6
  18594522.204   -10345901.019 3   -170737.495 3
  16009115.017   -26422330.101 7 -20485120.248 7
  15314992.751   -43044893.931 7 -33131379.904 8
  14977939.985   -38221355.284 7 -29051024.611 9
 95  2 14 22 19 29.9810000  0  7  7 31 18 16  2 19 27
  18090934.142    -5629963.294 5  -4040417.068 3
  17055408.595   -26146744.367 6 -18713432.446 6
  16998170.501      -17296.603 6     40416.893 5
  18592323.282   -10357465.284 4   -179748.664 3
  15994585.993   -26498710.543 7 -20544637.434 7
  15312257.939   -43059269.815 7 -33142581.891 8
  14962973.275   -38299988.267 7 -29112297.049 9
 95  2 14 22 19 59.9810000  0  7  7 31 18 16  2 19 27
  18062851.611    -5777544.190 4  -4155415.061 4
  17061518.071   -26114635.540 6 -18688412.584 6
  17009587.657       42707.351 6     87173.157 6
  18590195.243   -10368647.073 4   -188461.783 2
  15980090.485   -26574855.931 7 -20603971.456 7
  15309569.681   -43073399.665 7 -33153592.168 8
  14948053.400   -38378406.707 7 -29173402.314 9
 95  2 14 22 20 29.9810000  0  7  7 31 18 16  2 19 27
  18034783.767    -5925049.715 5  -4270354.327 4
  17067706.556   -26082111.200 6 -18663068.944 6
  17021049.150      102937.353 6    134105.560 6
  18588139.735   -10379443.514 3   -196874.627 2
  15965652.931   -26650756.719 7 -20663114.876 7
  15306923.337   -43087298.055 7 -33164422.088 8
  14933172.126   -38456597.602 7 -29234330.265 9
 95  2 14 22 20 59.9810000  0  7  7 31 18 16  2 19 27
  18006724.571    -6072477.313 5  -4385232.853 4
  17073973.485   -26049175.351 6 -18637404.643 6
  17032553.353      163382.410 6    181205.545 5
  18586163.478   -10389843.422 3   -204978.515 2
  15951253.103   -26726402.386 7 -20722059.501 8
  15304323.142   -43100971.776 7 -33175076.939 8
  14918339.157   -38534557.758 7 -29295078.423 9
 95  2 14 22 21 29.9810000  0  7  7 31 18 16  2 19 27
  17978689.009    -6219823.489 5  -4500047.935 4
  17080321.962   -26015817.779 6 -18611411.745 6
  17044093.595      224029.021 6    228462.599 6
  18584260.696   -10399851.499 3   -212777.042 2
  15936907.439   -26801810.060 7 -20780818.688 7
  15301767.618   -43114399.100 7 -33185539.796 8
  14903545.735   -38612279.836 7 -29355641.058 9
 95  2 14 22 21 59.9810000  0  7  7 31 18 16  2 19 27
  17950663.532    -6367072.770 5  -4614787.500 4
  17086751.220   -25982024.185 6 -18585079.083 6
  17055676.712      284889.846 6    275886.539 6
  18582430.915   -10409464.866 3   -220267.997 2
  15922601.360   -26876972.034 7 -20839386.417 7
  15299260.321   -43127569.940 7 -33195802.794 8
  14888811.259   -38689731.802 7 -29415993.225 9
 95  2 14 22 22 29.9810000  0  7  7 31 18 16  2 19 27
  17922664.884    -6514218.650 5  -4729446.487 5
  17093267.892   -25947794.397 6 -18558406.529 6
  17067297.439      345967.778 6    323479.672 6
  18580672.485   -10418686.277 3   -227453.555 1
  15908347.814   -26951894.632 7 -20897767.628 7
  15296805.532   -43140468.522 7 -33205853.641 8
  14874119.493   -38766923.911 7 -29476142.896 9
 95  2 14 22 22 59.9810000  0  7  7 31 18 16  2 19 27
  17894682.696    -6661267.705 5  -4844030.002 4
  17099861.470   -25913133.092 6 -18531397.721 6
  17078958.939      407246.493 6    371229.270 5
  18578992.415   -10427526.498 3   -234342.088 2
  15894127.642   -27026601.114 7 -20955980.438 8
  15294402.165   -43153101.805 7 -33215697.755 8
  14859478.087   -38843880.457 7 -29536109.017 9
 95  2 14 22 23 29.9810000  0  7  7 31 18 16  2 19 27
  17866719.689    -6808213.612 5  -4958533.135 3
  17106535.415   -25878062.512 6 -18504069.993 6
  17090656.392      468710.800 6    419123.475 5
  18577379.071   -10435995.472 3   -240941.346 1
  15879950.681   -27101108.170 7 -21014037.840 8
  15292049.603   -43165468.433 7 -33225334.082 8
  14844874.860   -38920604.172 7 -29595893.709 9
 95  2 14 22 23 59.9810000  0  7  7 31 18 16  2 19 27
  17838778.087    -6955057.045 5  -5072956.383 4
  17113282.978   -25842603.301 6 -18476439.450 6
  17102385.806      530357.623 6    467159.917 5
  18575839.720   -10444097.807 3   -247254.877 1
  15865812.212   -27175414.550 7 -21071938.883 8
  15289745.493   -43177577.895 7 -33234770.031 8
  14830317.939   -38997105.695 7 -29655505.268 9
 95  2 14 22 24 29.9810000  0  7  7 31 18 16  2 19 27
  17810849.892    -7101804.007 5  -5187304.468 4
  17120105.400   -25806762.308 6 -18448511.396 6
  17114148.970      592166.702 6    515322.775 5
  18574365.564   -10451840.528 3   -253288.186 2
  15851708.681   -27249515.195 7 -21129679.608 8
  15287488.337   -43189437.940 7 -33244011.623 8
  14815800.673   -39073391.731 7 -29714948.904 9
 95  2 14 22 24 59.9810000  0  7  7 31 18 16  2 19 27
  17782944.329    -7248450.707 5  -5301574.420 5
  17126996.626   -25770531.623 6 -18420279.709 5
  17125942.407      654140.526 6    563614.005 5
  18572958.032   -10459216.886 3   -259036.026 2
  15837652.962   -27323393.782 7 -21187247.310 8
  15285276.243   -43201056.075 7 -33253064.711 8
  14801328.423   -39149442.978 7 -29774209.590 9
 95  2 14 22 25 29.9810000  0  7  7 31 18 16  2 19 27
  17755060.735    -7395000.745 5  -5415769.032 5
  17133966.235   -25733918.702 6 -18391750.175 5
  17137765.275      716274.384 6    612029.944 5
  18571624.251   -10466247.255 3   -264514.290 1
  15823631.595   -27397055.562 7 -21244646.058 8
  15283110.134   -43212439.422 7 -33261934.853 8
  14786902.392   -39225264.902 7 -29833291.574 9
 95  2 14 22 25 59.9810000  0  7  7 31 18 16  2 19 27
  17727185.267    -7541463.508 5  -5529895.663 4
  17141007.259   -25696911.345 6 -18362913.276 6
  17149620.525      778580.975 6    660580.477 5
  18570349.868   -10472947.077 3   -269734.940 1
  15809658.267   -27470500.690 7 -21301875.993 8
  15280989.665   -43223589.457 7 -33270623.182 8
  14772514.564   -39300861.397 7 -29892197.899 9
 95  2 14 22 26 29.9800000  0  7  7 31 18 16  2 19 27
  17699330.832    -7687836.939 5  -5643952.657 5
  17148125.723   -25659507.422 6 -18333767.357 6
  17161513.410      841080.443 6    709281.318 5
  18569141.184   -10479309.260 3   -274692.506 1
  15795724.199   -27543728.415 7 -21358936.512 8
  15278914.512   -43234498.230 7 -33279123.527 8
  14758173.574   -39376228.113 7 -29950925.179 9
 95  2 14 22 26 59.9800000  0  7  7 31 18 16  2 19 27
  17671497.660    -7834116.315 5  -5757936.383 5
  17155317.137   -25621707.004 6 -18304312.488 6
  17173451.676      903800.634 6    758154.126 5
  18567993.074   -10485324.167 2   -279379.531 2
  15781825.777   -27616751.175 7 -21415837.322 8
  15276887.020   -43245145.051 7 -33287419.755 8
  14743876.363   -39451366.891 7 -30009474.843 9
 95  2 14 22 27 29.9800000  0  7  7 31 18 16  2 19 27
  17643680.473    -7980291.423 5  -5871838.870 5
  17162582.660   -25583531.676 6 -18274565.508 6
  17185423.152      966717.479 6    807180.190 5
  18566914.496   -10491008.807 3   -283809.146 1
  15767967.762   -27689593.054 7 -21472597.186 8
  15274910.996   -43255531.553 7 -33295513.128 8
  14729613.895   -39526292.492 7 -30067858.394 9
 95  2 14 22 27 59.9800000  0  7  7 31 18 16  2 19 27
  17615883.934    -8126372.459 5  -5985668.055 4
  17169917.277   -25544994.724 6 -18244536.724 6
  17197429.746     1029813.959 6    856346.216 5
  18565891.238   -10496350.612 3   -287971.646 1
  15754138.238   -27762256.094 7 -21529217.703 8
  15272982.918   -43265664.751 7 -33303409.135 8
  14715400.676   -39601002.413 7 -30126073.885 9
 95  2 14 22 28 29.9800000  0  7  7 31 18 16  2 19 27
  17588105.621    -8272340.025 5  -6099408.809 5
  17177318.074   -25506096.473 6 -18214226.408 6
  17209468.223     1093072.162 6    905638.259 5
  18564945.785   -10501330.607 3   -291852.166 2
  15740346.309   -27834727.119 7 -21585688.587 8
  15271103.801   -43275538.241 7 -33311102.744 8
  14701228.551   -39675482.308 7 -30184110.137 9
